[[{"header":{"parameterUnit":"m.s-1","parameterCategory":1,"la1":31.0,"la2":29.5877,"lo1":-88.7671,"lo2":-86.6584,"dy":0.0162,"dx":0.0185,"nx":115,"ny":88,"refTime":"2026-03-27T00:00:00:Z","depth":0,"parameterNumber":2,"parameterNumberName":"U-component_of_WINDS"},"data":[0.0,0.0,0.0,0.0,0.0,0.0,0.0,0.0,0.0,0.0,0.0,0.0,0.0,0.0,0.0,0.0,0.0,0.0,0.0,0.0,0.0,0.0,0.0,0.0,0.0,0.0,0.0,0.0,0.0,0.0,0.0,0.0,0.0,0.0,0.0,0.0,0.0,0.0,0.0,0.0,0.0,0.0,0.0,0.0,0.0,0.0,0.0,0.0,0.0,0.0,0.0,0.0,0.0,0.0,0.0,0.0,0.0,0.0,0.0,0.0,0.0,0.0,0.0,0.0,0.0,0.0,0.0,0.0,0.0,0.0,0.0,0.0,0.0,0.0,0.0,0.0,0.0,0.0,0.0,0.0,0.0,0.0,0.0,0.0,0.0,0.0,0.0,0.0,0.0,0.0,0.0,0.0,0.0,0.0,0.0,0.0,0.0,0.0,0.0,0.0,0.0,0.0,0.0,0.0,0.0,0.0,0.0,0.0,0.0,0.0,0.0,0.0,0.0,0.0,0.0,0.0,0.0,0.0,0.0,0.0,0.0,0.0,0.0,0.0,0.0,0.0,0.0,0.0,0.0,0.0,0.0,0.0,0.0,0.0,0.0,0.0,0.0,0.0,0.0,0.0,0.0,0.0,0.0,0.0,0.0,0.0,0.0,0.0,0.0,0.0,0.0,0.0,0.0,0.0,0.0,0.0,0.0,0.0,0.0,0.0,0.0,0.0,0.0,0.0,0.0,0.0,0.0,0.0,0.0,0.0,0.0,0.0,0.0,0.0,0.0,0.0,0.0,0.0,0.0,0.0,0.0,0.0,0.0,0.0,0.0,0.0,0.0,0.0,0.0,0.0,0.0,0.0,0.0,0.0,0.0,0.0,0.0,0.0,0.0,0.0,0.0,0.0,0.0,0.0,0.0,0.0,0.0,0.0,0.0,0.0,0.0,0.0,0.0,0.0,0.0,0.0,0.0,0.0,0.0,0.0,0.0,0.0,0.0,0.0,0.0,0.0,0.0,0.0,0.0,0.0,0.0,0.0,0.0,0.0,0.0,0.0,0.0,0.0,0.0,0.0,0.0,0.0,0.0,0.0,0.0,0.0,0.0,0.0,0.0,0.0,0.0,0.0,0.0,0.0,0.0,0.0,0.0,0.0,0.0,0.0,0.0,0.0,0.0,0.0,0.0,0.0,0.0,0.0,0.0,0.0,0.0,0.0,0.0,0.0,0.0,0.0,0.0,0.0,0.0,0.0,0.0,0.0,0.0,0.0,0.0,0.0,0.0,0.0,0.0,0.0,0.0,0.0,0.0,0.0,0.0,0.0,0.0,0.0,0.0,0.0,0.0,0.0,0.0,0.0,0.0,0.0,0.0,0.0,0.0,0.0,0.0,0.0,0.0,0.0,0.0,0.0,0.0,0.0,0.0,0.0,0.0,0.0,0.0,0.0,0.0,0.0,0.0,0.0,0.0,0.0,0.0,0.0,0.0,0.0,0.0,0.0,0.0,0.0,0.0,0.0,0.0,0.0,0.0,0.0,0.0,0.0,0.0,0.0,0.0,0.0,0.0,0.0,0.0,0.0,0.0,0.0,0.0,0.0,0.0,0.0,0.0,0.0,0.0,0.0,0.0,0.0,0.0,0.0,0.0,0.0,0.0,0.0,0.0,0.0,0.0,0.0,0.0,0.0,0.0,0.0,0.0,0.0,0.0,0.0,0.0,0.0,0.0,0.0,0.0,0.0,0.0,0.0,0.0,0.0,0.0,0.0,0.0,0.0,0.0,0.0,0.0,0.0,0.0,0.0,0.0,0.0,0.0,0.0,0.0,0.0,0.0,0.0,0.0,0.0,0.0,0.0,0.0,0.0,0.0,0.0,0.0,0.0,0.0,0.0,0.0,0.0,0.0,0.0,0.0,0.0,0.0,0.0,0.0,0.0,0.0,0.0,0.0,0.0,0.0,0.0,0.0,0.0,0.0,0.0,0.0,0.0,0.0,0.0,0.0,0.0,0.0,0.0,0.0,0.0,0.0,0.0,0.0,0.0,0.0,0.0,0.0,0.0,0.0,0.0,0.0,0.0,0.0,0.0,0.0,0.0,0.0,0.0,0.0,0.0,0.0,0.0,0.0,0.0,0.0,0.0,0.0,0.0,0.0,0.0,0.0,0.0,0.0,0.0,0.0,0.0,0.0,0.0,0.0,0.0,0.0,0.0,0.0,0.0,0.0,0.0,0.0,0.0,0.0,0.0,0.0,0.0,0.0,0.0,0.0,0.0,0.0,0.0,0.0,0.0,0.0,0.0,0.0,0.0,0.0,0.0,0.0,0.0,0.0,0.0,0.0,0.0,0.0,0.0,0.0,0.0,0.0,0.0,0.0,0.0,0.0,0.0,0.0,0.0,0.0,0.0,0.0,0.0,0.0,0.0,0.0,0.0,0.0,0.0,0.0,0.0,0.0,0.0,0.0,0.0,0.0,0.0,0.0,0.0,0.0,0.0,0.0,0.0,0.0,0.0,0.0,0.0,0.0,0.0,0.0,0.0,0.0,0.0,0.0,0.0,0.0,0.0,0.0,0.0,0.0,0.0,0.0,0.0,0.0,0.0,0.0,0.0,0.0,0.0,0.0,0.0,0.0,0.0,0.0,0.0,0.0,0.0,0.0,0.0,0.0,0.0,0.0,0.0,0.0,0.0,0.0,0.0,0.0,0.0,0.0,0.0,0.0,0.0,0.0,0.0,0.0,0.0,0.0,0.0,0.0,0.0,0.0,0.0,0.0,0.0,0.0,0.0,0.0,0.0,0.0,0.0,0.0,0.0,0.0,0.0,0.0,0.0,0.0,0.0,0.0,0.0,0.0,0.0,0.0,0.0,0.0,0.0,0.0,0.0,0.0,0.0,0.0,0.0,0.0,0.0,0.0,0.0,0.0,0.0,0.0,0.0,0.0,0.0,0.0,0.0,0.0,0.0,0.0,0.0,0.0,0.0,0.0,0.0,0.0,0.0,0.0,0.0,0.0,0.0,0.0,0.0,0.0,0.0,0.0,0.0,0.0,0.0,0.0,0.0,0.0,0.0,0.0,0.0,0.0,0.0,0.0,0.0,0.0,0.0,0.0,0.0,0.0,0.0,0.0,0.0,0.0,0.0,0.0,0.0,0.0,0.0,0.0,0.0,0.0,0.0,0.0,0.0,0.0,0.0,0.0,0.0,0.0,0.0,0.0,0.0,0.0,0.0,0.0,0.0,0.0,0.0,0.0,0.0,0.0,0.0,0.0,0.0,0.0,0.0,0.0,0.0,0.0,0.0,0.0,0.0,0.0,0.0,0.0,0.0,0.0,0.0,0.0,0.0,0.0,0.0,0.0,0.0,0.0,0.0,0.0,0.0,0.0,0.0,0.0,0.0,0.0,0.0,0.0,0.0,0.0,0.0,0.0,0.0,0.0,0.0,0.0,0.0,0.0,0.0,0.0,0.0,0.0,0.0,0.0,0.0,0.0,0.0,0.0,0.0,0.0,0.0,0.0,0.0,0.0,0.0,0.0,0.0,0.0,0.0,0.0,0.0,0.0,0.0,0.0,0.0,0.0,0.0,0.0,0.0,0.0,0.0,0.0,0.0,0.0,0.0,0.0,0.0,0.0,0.0,0.0,0.0,0.0,0.0,0.0,0.0,0.0,0.0,0.0,0.0,0.0,0.0,0.0,0.0,0.0,0.0,0.0,0.0,0.0,0.0,0.0,0.0,0.0,0.0,0.0,0.0,0.0,0.0,0.0,0.0,0.0,0.0,0.0,0.0,0.0,0.0,0.0,0.0,0.0,0.0,0.0,0.0,0.0,0.0,0.0,0.0,0.0,0.0,0.0,0.0,0.0,0.0,0.0,0.0,0.0,0.0,0.0,0.0,0.0,0.0,0.0,0.0,0.0,0.0,0.0,0.0,0.0,0.0,0.0,0.0,0.0,0.0,0.0,0.0,0.0,0.0,0.0,0.0,0.0,0.0,0.0,0.0,0.0,0.0,0.0,0.0,0.0,0.0,0.0,0.0,0.0,0.0,0.0,0.0,0.0,0.0,0.0,0.0,0.0,0.0,0.0,0.0,0.0,0.0,0.0,0.0,0.0,0.0,0.0,0.0,0.0,0.0,0.0,0.0,0.0,0.0,0.0,0.0,0.0,0.0,0.0,0.0,0.0,0.0,0.0,0.0,0.0,0.0,0.0,0.0,0.0,0.0,0.0,0.0,0.0,0.0,0.0,0.0,0.0,0.0,0.0,0.0,0.0,0.0,0.0,0.0,0.0,0.0,-2.4446,0.0,0.0,0.0,0.0,0.0,0.0,0.0,0.0,0.0,0.0,0.0,0.0,0.0,0.0,0.0,0.0,0.0,0.0,0.0,0.0,0.0,0.0,0.0,0.0,0.0,0.0,0.0,0.0,0.0,0.0,0.0,0.0,0.0,0.0,0.0,0.0,0.0,0.0,0.0,0.0,0.0,0.0,0.0,0.0,0.0,0.0,0.0,0.0,0.0,0.0,0.0,0.0,0.0,0.0,0.0,0.0,0.0,0.0,0.0,0.0,0.0,0.0,0.0,0.0,0.0,0.0,0.0,0.0,0.0,0.0,0.0,0.0,0.0,0.0,0.0,0.0,0.0,0.0,0.0,0.0,0.0,0.0,0.0,0.0,0.0,0.0,0.0,0.0,0.0,0.0,0.0,0.0,0.0,0.0,0.0,0.0,0.0,0.0,0.0,0.0,0.0,0.0,0.0,0.0,0.0,0.0,0.0,0.0,0.0,0.0,-2.7877,-2.8028,-2.7019,-2.5871,-2.4634,0.0,0.0,0.0,0.0,0.0,0.0,0.0,0.0,0.0,0.0,0.0,0.0,0.0,0.0,0.0,0.0,0.0,0.0,0.0,0.0,0.0,0.0,0.0,0.0,0.0,0.0,0.0,0.0,0.0,0.0,0.0,0.0,0.0,0.0,0.0,0.0,0.0,0.0,0.0,0.0,0.0,0.0,0.0,0.0,0.0,0.0,0.0,0.0,0.0,0.0,0.0,0.0,0.0,0.0,0.0,0.0,0.0,0.0,0.0,0.0,0.0,0.0,0.0,0.0,0.0,0.0,0.0,0.0,0.0,0.0,0.0,0.0,0.0,0.0,0.0,0.0,0.0,0.0,0.0,0.0,0.0,0.0,0.0,0.0,0.0,0.0,0.0,0.0,0.0,0.0,0.0,0.0,0.0,0.0,0.0,0.0,0.0,0.0,0.0,0.0,0.0,0.0,0.0,0.0,0.0,0.0,0.0,0.0,0.0,0.0,0.0,0.0,-2.7478,-2.6148,-2.4545,0.0,0.0,0.0,0.0,0.0,0.0,0.0,0.0,0.0,0.0,0.0,0.0,0.0,0.0,0.0,0.0,0.0,0.0,0.0,0.0,0.0,0.0,0.0,0.0,0.0,0.0,0.0,0.0,0.0,0.0,0.0,0.0,0.0,0.0,0.0,0.0,0.0,0.0,0.0,0.0,0.0,0.0,0.0,0.0,0.0,0.0,0.0,0.0,0.0,0.0,0.0,0.0,0.0,0.0,0.0,0.0,0.0,0.0,0.0,0.0,0.0,0.0,0.0,0.0,0.0,0.0,0.0,0.0,0.0,0.0,0.0,0.0,0.0,0.0,0.0,0.0,0.0,0.0,0.0,0.0,0.0,0.0,0.0,0.0,0.0,0.0,0.0,0.0,0.0,0.0,0.0,0.0,0.0,0.0,0.0,0.0,0.0,0.0,0.0,0.0,0.0,0.0,0.0,0.0,0.0,0.0,0.0,0.0,0.0,0.0,-2.883,-2.9693,-2.8521,0.0,-2.44,0.0,0.0,0.0,0.0,0.0,0.0,0.0,0.0,0.0,0.0,0.0,0.0,0.0,0.0,0.0,0.0,0.0,0.0,0.0,0.0,0.0,0.0,0.0,0.0,0.0,0.0,0.0,0.0,0.0,0.0,0.0,0.0,0.0,0.0,0.0,0.0,0.0,0.0,0.0,0.0,0.0,0.0,0.0,0.0,0.0,0.0,0.0,0.0,0.0,0.0,0.0,0.0,0.0,0.0,0.0,0.0,0.0,0.0,0.0,0.0,0.0,0.0,0.0,0.0,0.0,0.0,0.0,0.0,0.0,0.0,0.0,0.0,0.0,0.0,0.0,0.0,0.0,0.0,0.0,0.0,0.0,0.0,0.0,0.0,0.0,0.0,0.0,0.0,0.0,0.0,0.0,0.0,0.0,0.0,0.0,0.0,0.0,0.0,0.0,0.0,0.0,0.0,0.0,0.0,0.0,0.0,0.0,0.0,0.0,0.0,-2.9394,-3.0057,-2.8071,-2.6159,0.0,0.0,0.0,0.0,0.0,0.0,0.0,0.0,0.0,0.0,0.0,0.0,0.0,0.0,0.0,0.0,0.0,0.0,0.0,0.0,0.0,0.0,0.0,0.0,0.0,0.0,0.0,0.0,0.0,0.0,0.0,0.0,0.0,0.0,0.0,0.0,0.0,0.0,0.0,0.0,0.0,0.0,0.0,0.0,0.0,0.0,0.0,0.0,0.0,0.0,0.0,0.0,0.0,0.0,0.0,0.0,0.0,0.0,0.0,0.0,0.0,0.0,0.0,0.0,0.0,0.0,0.0,0.0,0.0,0.0,0.0,0.0,0.0,0.0,0.0,0.0,0.0,0.0,0.0,0.0,0.0,0.0,0.0,0.0,0.0,0.0,0.0,0.0,0.0,0.0,0.0,0.0,0.0,0.0,0.0,0.0,0.0,0.0,0.0,0.0,0.0,0.0,0.0,0.0,0.0,0.0,0.0,0.0,0.0,0.0,-2.9539,-2.9574,-2.96,-2.7624,-2.5835,-2.446,0.0,0.0,0.0,0.0,0.0,0.0,0.0,0.0,0.0,0.0,0.0,0.0,0.0,0.0,0.0,0.0,0.0,0.0,0.0,0.0,0.0,0.0,0.0,0.0,0.0,0.0,0.0,0.0,0.0,0.0,0.0,0.0,0.0,0.0,0.0,0.0,0.0,0.0,0.0,0.0,0.0,0.0,0.0,0.0,0.0,0.0,0.0,0.0,0.0,0.0,0.0,0.0,0.0,0.0,0.0,0.0,0.0,0.0,0.0,0.0,0.0,0.0,0.0,0.0,0.0,0.0,0.0,0.0,0.0,0.0,0.0,0.0,0.0,0.0,0.0,0.0,0.0,0.0,0.0,0.0,0.0,0.0,0.0,0.0,0.0,0.0,0.0,0.0,0.0,0.0,0.0,0.0,0.0,0.0,0.0,0.0,0.0,0.0,0.0,0.0,0.0,0.0,0.0,0.0,0.0,0.0,0.0,0.0,0.0,-2.9503,-2.9186,-2.8513,-2.7494,-2.6117,0.0,0.0,0.0,0.0,0.0,0.0,0.0,0.0,0.0,0.0,0.0,0.0,0.0,0.0,0.0,0.0,0.0,0.0,0.0,0.0,0.0,0.0,0.0,0.0,0.0,0.0,0.0,0.0,0.0,0.0,0.0,0.0,0.0,0.0,0.0,0.0,0.0,0.0,0.0,0.0,0.0,0.0,0.0,0.0,0.0,0.0,0.0,0.0,0.0,0.0,0.0,0.0,0.0,0.0,0.0,0.0,0.0,0.0,0.0,0.0,0.0,0.0,0.0,0.0,0.0,0.0,0.0,0.0,0.0,0.0,0.0,0.0,0.0,0.0,0.0,0.0,0.0,0.0,0.0,0.0,0.0,0.0,0.0,0.0,0.0,0.0,0.0,0.0,0.0,0.0,0.0,0.0,0.0,0.0,0.0,0.0,0.0,0.0,0.0,0.0,0.0,0.0,0.0,0.0,0.0,0.0,0.0,0.0,0.0,-2.8976,-2.932,-2.9216,-2.8565,-2.699,-2.562,0.0,0.0,0.0,0.0,0.0,0.0,0.0,0.0,0.0,0.0,0.0,0.0,0.0,0.0,0.0,0.0,0.0,0.0,0.0,0.0,0.0,0.0,0.0,0.0,0.0,0.0,0.0,0.0,0.0,0.0,0.0,0.0,0.0,0.0,0.0,0.0,0.0,0.0,0.0,0.0,0.0,0.0,0.0,0.0,0.0,0.0,0.0,0.0,0.0,0.0,0.0,0.0,0.0,0.0,0.0,0.0,0.0,0.0,0.0,0.0,0.0,0.0,0.0,0.0,0.0,0.0,0.0,0.0,0.0,0.0,0.0,0.0,0.0,0.0,0.0,0.0,0.0,0.0,0.0,0.0,0.0,0.0,0.0,0.0,0.0,0.0,0.0,0.0,0.0,0.0,0.0,0.0,0.0,0.0,0.0,0.0,0.0,0.0,0.0,0.0,0.0,0.0,0.0,0.0,0.0,0.0,0.0,0.0,0.0,-2.8713,0.0,-2.8723,0.0,-2.6712,-2.5434,0.0,0.0,0.0,0.0,0.0,0.0,0.0,0.0,0.0,0.0,0.0,0.0,0.0,0.0,0.0,0.0,0.0,0.0,0.0,0.0,0.0,0.0,0.0,0.0,0.0,0.0,0.0,0.0,0.0,0.0,0.0,0.0,0.0,0.0,0.0,0.0,0.0,0.0,0.0,0.0,0.0,0.0,0.0,0.0,0.0,0.0,0.0,0.0,0.0,0.0,0.0,0.0,0.0,0.0,0.0,0.0,0.0,0.0,0.0,0.0,0.0,0.0,0.0,0.0,0.0,0.0,0.0,0.0,0.0,0.0,0.0,0.0,0.0,0.0,0.0,0.0,0.0,0.0,0.0,0.0,0.0,0.0,0.0,0.0,0.0,0.0,0.0,0.0,0.0,0.0,0.0,0.0,0.0,0.0,0.0,0.0,0.0,0.0,0.0,0.0,0.0,0.0,0.0,0.0,0.0,0.0,0.0,0.0,-2.9037,-2.8679,-2.8229,-2.7782,-2.7038,-2.6737,-2.5634,0.0,0.0,0.0,0.0,0.0,0.0,0.0,0.0,0.0,0.0,0.0,0.0,0.0,0.0,0.0,0.0,0.0,0.0,0.0,0.0,0.0,0.0,0.0,0.0,0.0,0.0,0.0,0.0,0.0,0.0,0.0,0.0,0.0,0.0,0.0,0.0,0.0,0.0,0.0,0.0,0.0,0.0,0.0,0.0,0.0,0.0,0.0,0.0,0.0,0.0,0.0,0.0,0.0,0.0,0.0,0.0,0.0,0.0,0.0,0.0,0.0,0.0,0.0,0.0,0.0,0.0,0.0,0.0,0.0,0.0,0.0,0.0,0.0,0.0,0.0,0.0,0.0,0.0,0.0,0.0,0.0,0.0,0.0,0.0,0.0,0.0,0.0,0.0,0.0,0.0,0.0,0.0,0.0,0.0,0.0,0.0,0.0,0.0,0.0,0.0,0.0,0.0,0.0,0.0,0.0,0.0,0.0,0.0,0.0,-2.7745,-2.7917,-2.8058,-2.8096,-2.6515,-2.5551,0.0,0.0,0.0,0.0,0.0,0.0,0.0,0.0,0.0,0.0,0.0,0.0,0.0,0.0,0.0,0.0,0.0,0.0,0.0,0.0,0.0,0.0,0.0,0.0,0.0,0.0,0.0,0.0,0.0,0.0,0.0,0.0,0.0,0.0,0.0,0.0,0.0,0.0,0.0,0.0,0.0,0.0,0.0,0.0,0.0,0.0,0.0,0.0,0.0,0.0,0.0,0.0,0.0,0.0,0.0,0.0,0.0,0.0,0.0,0.0,0.0,0.0,0.0,0.0,0.0,0.0,0.0,0.0,0.0,0.0,0.0,0.0,0.0,0.0,0.0,0.0,0.0,0.0,0.0,0.0,0.0,0.0,0.0,0.0,0.0,0.0,0.0,0.0,0.0,0.0,0.0,0.0,0.0,0.0,0.0,0.0,0.0,0.0,0.0,0.0,0.0,0.0,0.0,0.0,0.0,0.0,0.0,0.0,0.0,-2.7306,-2.7732,-2.8019,-2.8181,-2.6646,-2.5756,-2.5534,0.0,0.0,0.0,0.0,0.0,0.0,0.0,0.0,0.0,0.0,0.0,0.0,0.0,0.0,0.0,0.0,0.0,0.0,0.0,0.0,0.0,0.0,0.0,0.0,0.0,0.0,0.0,0.0,0.0,0.0,0.0,0.0,0.0,0.0,0.0,0.0,0.0,0.0,0.0,0.0,0.0,0.0,0.0,0.0,0.0,0.0,0.0,0.0,0.0,0.0,0.0,0.0,0.0,0.0,0.0,0.0,0.0,0.0,0.0,0.0,0.0,0.0,0.0,0.0,0.0,0.0,0.0,0.0,0.0,0.0,0.0,0.0,0.0,0.0,0.0,0.0,0.0,0.0,0.0,0.0,0.0,0.0,0.0,0.0,0.0,0.0,0.0,0.0,0.0,0.0,0.0,0.0,0.0,0.0,0.0,0.0,0.0,0.0,0.0,0.0,0.0,0.0,0.0,0.0,0.0,0.0,0.0,0.0,-2.7327,-2.7779,-2.7841,-2.7455,-2.7079,-2.6203,0.0,0.0,0.0,0.0,0.0,0.0,0.0,0.0,0.0,0.0,0.0,0.0,0.0,0.0,0.0,0.0,0.0,0.0,0.0,0.0,0.0,0.0,0.0,0.0,0.0,0.0,0.0,0.0,0.0,0.0,0.0,0.0,0.0,0.0,0.0,0.0,0.0,0.0,0.0,0.0,0.0,0.0,0.0,0.0,0.0,0.0,0.0,0.0,0.0,0.0,0.0,0.0,0.0,0.0,0.0,0.0,0.0,0.0,0.0,0.0,0.0,0.0,0.0,0.0,0.0,0.0,0.0,0.0,0.0,0.0,0.0,0.0,0.0,0.0,0.0,0.0,0.0,0.0,0.0,0.0,0.0,0.0,0.0,0.0,0.0,0.0,0.0,0.0,0.0,0.0,0.0,0.0,0.0,0.0,0.0,0.0,0.0,0.0,0.0,0.0,0.0,0.0,0.0,0.0,0.0,0.0,0.0,0.0,0.0,-2.7779,-2.8856,-2.9228,-2.8773,-2.7748,-2.698,0.0,0.0,0.0,0.0,0.0,0.0,0.0,0.0,0.0,0.0,0.0,0.0,0.0,0.0,0.0,0.0,0.0,0.0,0.0,0.0,0.0,0.0,0.0,0.0,0.0,0.0,0.0,0.0,0.0,0.0,0.0,0.0,0.0,0.0,0.0,0.0,0.0,0.0,0.0,0.0,0.0,0.0,0.0,0.0,0.0,0.0,0.0,0.0,0.0,0.0,0.0,0.0,0.0,0.0,0.0,0.0,0.0,0.0,0.0,0.0,0.0,0.0,0.0,0.0,0.0,0.0,0.0,0.0,0.0,0.0,0.0,0.0,0.0,0.0,0.0,0.0,0.0,0.0,0.0,0.0,0.0,0.0,0.0,0.0,0.0,0.0,0.0,0.0,0.0,0.0,0.0,0.0,0.0,0.0,0.0,0.0,0.0,0.0,0.0,0.0,0.0,0.0,0.0,0.0,0.0,0.0,0.0,0.0,-2.7945,-2.8189,-2.9373,-2.9979,-2.9891,-2.8777,-2.7783,0.0,0.0,0.0,0.0,0.0,0.0,0.0,0.0,0.0,0.0,0.0,0.0,0.0,0.0,0.0,0.0,0.0,0.0,0.0,0.0,0.0,0.0,0.0,0.0,0.0,0.0,0.0,0.0,0.0,0.0,0.0,0.0,0.0,0.0,0.0,0.0,0.0,0.0,0.0,0.0,0.0,0.0,0.0,0.0,0.0,0.0,0.0,0.0,0.0,0.0,0.0,0.0,0.0,0.0,0.0,0.0,0.0,0.0,0.0,0.0,0.0,0.0,0.0,0.0,0.0,0.0,0.0,0.0,0.0,0.0,0.0,0.0,0.0,0.0,0.0,0.0,0.0,0.0,0.0,0.0,0.0,0.0,0.0,0.0,0.0,0.0,0.0,0.0,0.0,0.0,0.0,0.0,0.0,0.0,0.0,0.0,0.0,0.0,0.0,0.0,0.0,0.0,0.0,0.0,0.0,0.0,0.0,0.0,-2.8603,-2.869,-2.9601,-3.029,-3.0663,-2.9746,-2.8462,0.0,0.0,0.0,0.0,0.0,0.0,0.0,0.0,0.0,0.0,0.0,0.0,0.0,0.0,0.0,0.0,0.0,0.0,0.0,0.0,0.0,0.0,0.0,0.0,0.0,0.0,0.0,0.0,0.0,0.0,0.0,0.0,0.0,0.0,0.0,0.0,0.0,0.0,0.0,0.0,0.0,0.0,0.0,0.0,0.0,0.0,0.0,0.0,0.0,0.0,0.0,0.0,0.0,0.0,0.0,0.0,0.0,0.0,0.0,0.0,0.0,0.0,0.0,0.0,0.0,0.0,0.0,0.0,0.0,0.0,0.0,0.0,0.0,0.0,0.0,0.0,0.0,0.0,0.0,0.0,0.0,0.0,0.0,0.0,0.0,0.0,0.0,0.0,0.0,0.0,0.0,0.0,0.0,0.0,0.0,0.0,0.0,0.0,0.0,0.0,0.0,0.0,0.0,0.0,0.0,0.0,0.0,0.0,-2.8794,-2.9166,-3.0056,-3.0621,-3.0704,-2.9435,-2.8587,0.0,0.0,0.0,0.0,0.0,0.0,0.0,0.0,0.0,0.0,0.0,0.0,0.0,0.0,0.0,0.0,0.0,0.0,0.0,0.0,0.0,0.0,0.0,0.0,0.0,0.0,0.0,0.0,0.0,0.0,0.0,0.0,0.0,0.0,0.0,0.0,0.0,0.0,0.0,0.0,0.0,0.0,0.0,0.0,0.0,0.0,0.0,0.0,-2.1971,0.0,0.0,0.0,0.0,0.0,0.0,0.0,0.0,0.0,0.0,0.0,0.0,0.0,0.0,0.0,0.0,0.0,0.0,0.0,0.0,0.0,0.0,0.0,0.0,0.0,0.0,0.0,0.0,0.0,0.0,0.0,0.0,0.0,0.0,0.0,0.0,0.0,0.0,0.0,0.0,0.0,0.0,0.0,0.0,0.0,0.0,0.0,0.0,0.0,0.0,0.0,0.0,0.0,0.0,0.0,0.0,0.0,0.0,0.0,-2.8812,-2.9596,-3.0325,-3.0727,-3.0757,-2.9867,-2.9091,0.0,0.0,0.0,0.0,0.0,0.0,0.0,0.0,0.0,0.0,0.0,0.0,0.0,0.0,0.0,0.0,0.0,0.0,0.0,0.0,0.0,0.0,0.0,0.0,0.0,0.0,0.0,0.0,0.0,0.0,0.0,0.0,0.0,0.0,0.0,0.0,0.0,0.0,0.0,0.0,0.0,0.0,0.0,0.0,0.0,0.0,0.0,0.0,0.0,0.0,0.0,0.0,0.0,0.0,0.0,0.0,0.0,0.0,0.0,0.0,0.0,0.0,0.0,0.0,0.0,0.0,0.0,0.0,0.0,0.0,0.0,0.0,0.0,0.0,0.0,0.0,0.0,0.0,0.0,0.0,0.0,0.0,0.0,0.0,0.0,0.0,0.0,0.0,0.0,0.0,0.0,0.0,0.0,0.0,0.0,0.0,0.0,0.0,0.0,0.0,0.0,0.0,0.0,0.0,0.0,0.0,0.0,-2.8052,-2.8707,-2.9843,-3.0343,-3.0641,-3.0805,-3.0364,-2.9676,-2.8704,0.0,0.0,0.0,0.0,0.0,0.0,0.0,0.0,0.0,0.0,0.0,0.0,0.0,0.0,0.0,0.0,0.0,0.0,0.0,0.0,0.0,0.0,0.0,0.0,0.0,0.0,0.0,0.0,0.0,0.0,0.0,0.0,0.0,0.0,0.0,0.0,0.0,0.0,-2.1337,-2.1862,0.0,0.0,0.0,0.0,0.0,0.0,0.0,0.0,-2.1552,0.0,0.0,0.0,0.0,0.0,0.0,0.0,0.0,0.0,0.0,0.0,0.0,0.0,0.0,0.0,0.0,0.0,0.0,0.0,0.0,0.0,0.0,0.0,0.0,0.0,0.0,0.0,0.0,0.0,0.0,0.0,0.0,0.0,0.0,0.0,0.0,0.0,0.0,0.0,0.0,0.0,0.0,0.0,0.0,0.0,0.0,0.0,0.0,0.0,0.0,0.0,0.0,0.0,0.0,0.0,0.0,-2.7829,-2.7859,-2.8323,-2.9217,-2.9709,-3.0153,-3.055,-3.0119,-2.9615,-2.8995,0.0,0.0,0.0,0.0,0.0,0.0,0.0,0.0,0.0,0.0,0.0,0.0,0.0,0.0,0.0,0.0,0.0,0.0,0.0,0.0,0.0,0.0,0.0,0.0,0.0,0.0,0.0,0.0,0.0,0.0,0.0,0.0,0.0,0.0,0.0,0.0,0.0,0.0,0.0,-2.3226,-2.298,0.0,0.0,0.0,0.0,0.0,0.0,0.0,0.0,-2.2124,0.0,0.0,0.0,0.0,0.0,0.0,0.0,0.0,0.0,0.0,0.0,0.0,0.0,0.0,0.0,0.0,0.0,0.0,0.0,0.0,0.0,0.0,0.0,0.0,0.0,0.0,0.0,0.0,0.0,0.0,0.0,0.0,0.0,0.0,0.0,0.0,0.0,0.0,0.0,0.0,0.0,0.0,0.0,0.0,0.0,0.0,0.0,0.0,0.0,0.0,0.0,0.0,0.0,0.0,0.0,-2.81,-2.8233,-2.8673,-2.9427,-2.9695,-2.9935,-3.0218,-2.9819,-2.9379,0.0,0.0,0.0,0.0,0.0,0.0,0.0,0.0,0.0,0.0,0.0,0.0,0.0,0.0,0.0,0.0,0.0,0.0,0.0,0.0,0.0,0.0,0.0,0.0,0.0,0.0,0.0,0.0,0.0,0.0,0.0,0.0,0.0,0.0,0.0,0.0,0.0,0.0,0.0,0.0,-2.3315,-2.3101,-2.3014,0.0,0.0,0.0,0.0,0.0,0.0,-2.2398,-2.2492,0.0,0.0,0.0,0.0,0.0,0.0,0.0,0.0,0.0,0.0,0.0,0.0,0.0,0.0,0.0,0.0,0.0,0.0,0.0,0.0,0.0,0.0,0.0,0.0,0.0,0.0,0.0,0.0,0.0,0.0,0.0,0.0,0.0,0.0,0.0,0.0,0.0,0.0,0.0,0.0,0.0,0.0,0.0,0.0,0.0,0.0,0.0,0.0,0.0,0.0,0.0,0.0,0.0,0.0,0.0,-2.7923,-2.7958,-2.8315,-2.8922,-2.8996,-2.91,-2.9255,-2.8848,-2.8435,0.0,0.0,0.0,0.0,0.0,0.0,0.0,0.0,0.0,0.0,0.0,0.0,0.0,0.0,0.0,0.0,0.0,0.0,0.0,0.0,0.0,0.0,0.0,0.0,0.0,0.0,0.0,0.0,0.0,0.0,0.0,0.0,0.0,0.0,0.0,0.0,0.0,0.0,0.0,0.0,0.0,-2.3308,-2.2963,-2.2306,0.0,0.0,0.0,0.0,-2.2131,-2.2451,0.0,0.0,0.0,0.0,0.0,0.0,0.0,0.0,0.0,0.0,0.0,0.0,0.0,0.0,0.0,0.0,0.0,0.0,0.0,0.0,0.0,0.0,0.0,0.0,0.0,0.0,0.0,0.0,0.0,0.0,0.0,0.0,0.0,0.0,0.0,0.0,0.0,0.0,0.0,0.0,0.0,0.0,0.0,0.0,0.0,0.0,0.0,0.0,0.0,0.0,0.0,0.0,0.0,0.0,0.0,0.0,-2.5992,-2.5685,-2.5741,-2.6145,-2.6278,-2.6498,-2.6807,-2.6202,-2.5902,0.0,0.0,0.0,0.0,0.0,0.0,0.0,0.0,0.0,0.0,0.0,0.0,0.0,0.0,0.0,0.0,0.0,0.0,0.0,0.0,0.0,0.0,0.0,0.0,0.0,0.0,0.0,0.0,0.0,0.0,0.0,0.0,0.0,0.0,0.0,0.0,0.0,0.0,0.0,0.0,0.0,-2.3921,-2.3012,-2.2505,-2.2092,0.0,0.0,-2.2355,-2.2747,-2.2776,0.0,0.0,0.0,0.0,0.0,0.0,0.0,0.0,0.0,0.0,0.0,0.0,0.0,0.0,0.0,0.0,0.0,0.0,0.0,0.0,0.0,0.0,0.0,0.0,0.0,0.0,0.0,0.0,0.0,0.0,0.0,0.0,0.0,0.0,0.0,0.0,0.0,0.0,0.0,0.0,0.0,0.0,0.0,0.0,0.0,0.0,0.0,0.0,0.0,0.0,0.0,0.0,0.0,0.0,0.0,-2.4694,-2.4789,-2.5485,-2.5792,-2.5683,-2.5741,-2.5987,-2.6393,-2.544,-2.4937,0.0,0.0,0.0,0.0,0.0,0.0,0.0,0.0,0.0,0.0,0.0,0.0,0.0,0.0,0.0,0.0,0.0,0.0,0.0,0.0,0.0,0.0,0.0,0.0,0.0,0.0,0.0,0.0,0.0,0.0,0.0,0.0,0.0,0.0,0.0,0.0,0.0,0.0,0.0,0.0,0.0,0.0,-2.2567,-2.2462,0.0,0.0,0.0,-2.2887,-2.2581,0.0,0.0,0.0,0.0,0.0,0.0,0.0,0.0,0.0,0.0,0.0,0.0,0.0,0.0,0.0,0.0,0.0,0.0,0.0,0.0,0.0,0.0,0.0,0.0,0.0,0.0,0.0,0.0,0.0,0.0,0.0,0.0,0.0,0.0,0.0,0.0,0.0,0.0,0.0,0.0,0.0,0.0,0.0,0.0,0.0,0.0,0.0,0.0,0.0,0.0,0.0,0.0,0.0,0.0,0.0,0.0,0.0,-2.3804,-2.5019,-2.5482,-2.5077,-2.5061,-2.5222,-2.5528,-2.4478,0.0,0.0,0.0,0.0,0.0,0.0,0.0,0.0,0.0,0.0,0.0,0.0,0.0,0.0,0.0,0.0,0.0,0.0,0.0,0.0,0.0,0.0,0.0,0.0,0.0,0.0,0.0,-1.666,0.0,0.0,0.0,0.0,0.0,0.0,0.0,0.0,0.0,0.0,0.0,0.0,0.0,0.0,-2.2252,-2.2171,-2.2453,-2.2629,0.0,0.0,-2.3053,-2.2446,-2.2908,-2.295,0.0,0.0,0.0,0.0,0.0,0.0,0.0,0.0,0.0,0.0,0.0,0.0,0.0,0.0,0.0,0.0,0.0,0.0,0.0,0.0,0.0,0.0,0.0,0.0,0.0,0.0,0.0,0.0,0.0,0.0,0.0,0.0,0.0,0.0,0.0,0.0,0.0,0.0,0.0,0.0,0.0,0.0,0.0,0.0,0.0,0.0,0.0,0.0,0.0,0.0,0.0,0.0,0.0,0.0,0.0,-2.2906,-2.3475,-2.3638,-2.3296,-2.325,-2.3296,-2.3296,-2.2393,-2.1904,0.0,0.0,0.0,0.0,0.0,0.0,0.0,0.0,0.0,0.0,0.0,0.0,0.0,0.0,0.0,0.0,0.0,0.0,0.0,0.0,0.0,0.0,0.0,0.0,0.0,0.0,0.0,0.0,0.0,0.0,0.0,0.0,0.0,0.0,0.0,0.0,0.0,0.0,0.0,0.0,0.0,-2.2808,-2.2199,-2.2632,-2.3063,0.0,0.0,-2.2632,-2.2613,-2.2861,-2.2689,-2.1376,0.0,0.0,0.0,0.0,0.0,0.0,0.0,0.0,0.0,0.0,0.0,0.0,0.0,0.0,0.0,0.0,0.0,0.0,0.0,0.0,0.0,0.0,0.0,0.0,0.0,0.0,0.0,0.0,0.0,0.0,0.0,0.0,0.0,0.0,0.0,0.0,0.0,0.0,0.0,0.0,0.0,0.0,0.0,0.0,0.0,0.0,0.0,0.0,0.0,0.0,0.0,0.0,0.0,-2.1156,-2.2104,-2.2917,-2.3441,-2.3706,-2.3706,-2.3522,-2.3096,-2.2764,-2.2009,0.0,0.0,0.0,0.0,0.0,0.0,0.0,0.0,0.0,0.0,0.0,0.0,0.0,0.0,0.0,0.0,0.0,0.0,0.0,0.0,0.0,0.0,0.0,0.0,0.0,0.0,0.0,0.0,-1.8071,-1.8074,-1.8264,0.0,0.0,0.0,0.0,0.0,0.0,0.0,0.0,0.0,0.0,-2.2335,-2.2673,-2.3285,0.0,0.0,-2.3754,-2.3656,-2.3254,-2.3164,-2.2668,-2.1362,-2.0676,0.0,0.0,0.0,0.0,0.0,0.0,0.0,0.0,0.0,0.0,0.0,0.0,0.0,0.0,0.0,0.0,0.0,0.0,0.0,0.0,0.0,0.0,0.0,0.0,0.0,0.0,0.0,0.0,0.0,0.0,0.0,0.0,0.0,0.0,0.0,0.0,0.0,0.0,0.0,0.0,0.0,0.0,0.0,0.0,0.0,0.0,0.0,0.0,0.0,0.0,0.0,0.0,-2.033,-2.151,-2.2548,-2.3303,-2.3746,-2.388,-2.3648,-2.3107,-2.2884,-2.2022,0.0,0.0,0.0,0.0,0.0,0.0,0.0,0.0,0.0,0.0,0.0,0.0,0.0,0.0,0.0,0.0,0.0,0.0,0.0,0.0,0.0,0.0,0.0,0.0,0.0,0.0,0.0,0.0,-1.8527,-1.8402,-1.8724,0.0,0.0,0.0,0.0,0.0,0.0,0.0,0.0,0.0,0.0,-2.2389,-2.3149,-2.372,-2.405,-2.3957,-2.3956,-2.3782,-2.3371,-2.312,-2.2563,-2.1525,0.0,0.0,0.0,0.0,0.0,0.0,0.0,0.0,0.0,0.0,0.0,0.0,0.0,0.0,0.0,0.0,0.0,0.0,0.0,0.0,0.0,0.0,0.0,0.0,0.0,0.0,0.0,-2.0879,0.0,0.0,-2.0443,0.0,0.0,0.0,0.0,0.0,0.0,0.0,0.0,0.0,0.0,0.0,0.0,0.0,0.0,0.0,0.0,0.0,0.0,0.0,0.0,0.0,0.0,-2.023,-2.1143,-2.237,-2.3028,-2.3042,-2.3369,-2.3369,-2.3028,-2.244,-2.167,-2.0718,0.0,0.0,0.0,0.0,0.0,0.0,0.0,0.0,0.0,0.0,0.0,0.0,0.0,0.0,0.0,0.0,0.0,0.0,0.0,0.0,0.0,0.0,0.0,0.0,0.0,0.0,-1.7979,-1.7988,-1.8089,0.0,0.0,0.0,0.0,0.0,0.0,0.0,0.0,0.0,0.0,-2.2051,-2.3193,-2.353,-2.3852,-2.3987,-2.3676,-2.306,-2.2651,-2.2665,-2.2621,-2.2418,0.0,0.0,0.0,0.0,0.0,0.0,0.0,0.0,0.0,0.0,0.0,0.0,0.0,0.0,0.0,0.0,0.0,0.0,0.0,0.0,0.0,0.0,0.0,0.0,0.0,0.0,0.0,-2.1392,-2.0997,0.0,0.0,0.0,0.0,0.0,0.0,0.0,0.0,0.0,0.0,0.0,-2.114,-2.1299,0.0,0.0,0.0,0.0,0.0,0.0,0.0,0.0,0.0,0.0,0.0,0.0,-2.0304,-2.1423,-2.2457,-2.3234,-2.3644,-2.379,-2.3591,-2.3018,-2.3008,-2.2314,-2.0745,0.0,0.0,0.0,0.0,0.0,0.0,0.0,0.0,0.0,0.0,0.0,0.0,0.0,0.0,0.0,0.0,0.0,0.0,0.0,0.0,0.0,0.0,0.0,0.0,0.0,-1.8274,0.0,0.0,0.0,0.0,0.0,0.0,0.0,0.0,0.0,0.0,0.0,-2.0118,-2.0643,-2.1708,-2.264,-2.3163,-2.3558,-2.3887,0.0,0.0,0.0,0.0,0.0,0.0,0.0,0.0,0.0,0.0,0.0,0.0,0.0,0.0,-1.8035,-1.7264,-1.7147,-1.7187,-1.7334,0.0,0.0,0.0,0.0,0.0,0.0,0.0,0.0,0.0,0.0,0.0,0.0,0.0,0.0,-2.1854,0.0,-2.1271,0.0,0.0,0.0,0.0,0.0,0.0,0.0,0.0,-2.227,-2.2398,-2.2211,-2.2505,-2.2238,0.0,-2.1349,-2.0719,0.0,0.0,0.0,0.0,0.0,0.0,0.0,0.0,-2.0416,-2.1562,-2.2504,-2.3277,-2.3894,-2.3942,-2.3742,-2.3263,-2.3167,-2.2364,-2.078,-1.9703,-1.8755,0.0,0.0,0.0,0.0,0.0,0.0,0.0,0.0,0.0,0.0,0.0,0.0,0.0,0.0,0.0,0.0,0.0,0.0,0.0,0.0,0.0,0.0,0.0,-1.7129,0.0,0.0,0.0,0.0,0.0,0.0,0.0,0.0,0.0,-1.7978,-1.8573,-1.9073,-1.9676,-2.0446,-2.1089,-2.15,0.0,0.0,0.0,0.0,0.0,0.0,0.0,-2.0519,-1.9668,-1.9827,-1.9859,-1.9084,-1.8721,-1.8545,-1.8665,0.0,0.0,-1.7121,-1.6912,-1.6867,-1.7129,-1.7269,-1.7415,-1.7629,-1.6968,-1.6307,0.0,0.0,0.0,0.0,0.0,0.0,0.0,0.0,-2.2987,-2.2827,0.0,-2.2205,0.0,0.0,0.0,0.0,0.0,-2.1924,0.0,0.0,-2.3527,-2.3928,-2.3399,-2.3688,-2.3549,-2.3,-2.3207,-2.2558,-2.1194,-2.0012,0.0,0.0,0.0,0.0,0.0,0.0,-2.064,-2.1543,-2.2479,-2.3215,-2.3763,-2.3803,-2.379,-2.3763,-2.2913,-2.1957,-2.082,-2.0174,-1.9452,-1.8625,-1.7983,0.0,0.0,0.0,0.0,0.0,0.0,0.0,0.0,0.0,0.0,0.0,0.0,0.0,0.0,0.0,0.0,0.0,0.0,0.0,0.0,-1.5763,0.0,0.0,0.0,0.0,0.0,0.0,0.0,0.0,0.0,0.0,-1.602,-1.6615,-1.7238,-1.7913,0.0,0.0,0.0,0.0,-1.8873,-1.9388,-1.9124,-1.9225,-2.0135,-2.0246,-2.0188,-2.0155,0.0,0.0,-1.9824,-1.8272,-1.7248,-1.7575,-1.7369,-1.7237,-1.7935,-1.6977,-1.634,-1.6959,-1.6242,-1.5631,-1.6252,-1.5986,-1.5376,-2.5358,0.0,0.0,0.0,0.0,-2.4035,-2.4369,-2.4756,-2.4756,-2.4476,-2.3945,-2.3688,0.0,0.0,0.0,0.0,0.0,0.0,-2.3354,-2.3852,-2.4279,-2.4599,-2.489,-2.497,-2.4823,-2.4486,-2.4315,-2.3834,-2.2993,-2.2251,-2.1007,-1.9396,0.0,0.0,0.0,0.0,-2.1274,-2.2143,-2.3075,-2.3629,-2.3803,-2.3817,-2.3817,-2.3803,-2.3313,-2.2678,-2.1937,-2.1395,-2.0779,-2.0097,-1.9078,0.0,0.0,0.0,0.0,0.0,0.0,0.0,0.0,0.0,0.0,0.0,0.0,0.0,0.0,0.0,0.0,0.0,0.0,0.0,-1.5371,-1.5192,-1.4909,0.0,0.0,0.0,0.0,0.0,0.0,0.0,0.0,0.0,-1.4173,-1.5724,-1.699,0.0,0.0,-1.7883,-1.7973,-1.825,-1.8642,-1.9255,-1.8766,0.0,0.0,-1.8778,-1.8262,-1.8305,-1.8404,-1.8461,-1.8575,-1.8257,-1.8049,-1.8124,-1.7815,-1.7585,-1.773,-1.7118,-1.6556,-1.6525,-1.638,-1.6255,-1.6317,-1.6132,-1.5946,-2.7068,-2.5892,-2.5213,-2.4957,-2.493,-2.5211,-2.5665,-2.6199,-2.6079,-2.5892,-2.5638,-2.513,-2.4302,-2.3204,-2.1872,0.0,0.0,0.0,-2.2103,-2.2922,-2.318,-2.3487,-2.382,-2.3884,-2.414,-2.4495,-2.4239,-2.4203,-2.4312,-2.3688,-2.2599,-2.0962,0.0,0.0,-2.0539,-2.1256,-2.1918,-2.2592,-2.3402,-2.3817,-2.3817,-2.3924,-2.3941,-2.3941,-2.3768,-2.3359,-2.2772,-2.2445,-2.1977,-2.139,-2.0468,-1.9562,0.0,0.0,0.0,0.0,0.0,0.0,0.0,0.0,0.0,0.0,0.0,-1.6368,0.0,0.0,0.0,0.0,-1.5456,-1.4882,-1.3722,-1.376,0.0,0.0,0.0,0.0,0.0,0.0,0.0,-1.258,-1.2873,-1.3181,-1.3565,-1.4843,-1.5831,-1.6086,-1.6144,-1.6229,-1.6309,0.0,-1.6932,-1.7627,-1.7293,-1.7277,-1.8063,-1.7597,-1.7107,-1.7042,-1.7017,-1.7047,-1.7291,-1.7438,-1.7479,-1.7401,-1.7217,-1.7084,-1.7091,-1.6825,-1.6637,-1.6582,-1.6656,-1.6613,-1.6366,-1.6312,-1.6247,-2.8698,-2.8511,-2.66,-2.5945,-2.6225,-2.6493,-2.6921,-2.7375,-2.7121,-2.7121,-2.7268,-2.6334,-2.5291,-2.4086,-2.1341,0.0,-2.1665,-1.9964,-1.9641,-2.0405,-2.0946,-2.1229,-2.1229,-2.1404,-2.2144,-2.3411,-2.3309,-2.3757,-2.468,-2.4166,-2.3625,-2.2986,-2.1956,-2.1509,-2.1689,-2.2151,-2.2579,-2.2934,-2.3509,-2.3817,-2.3817,-2.4035,-2.4182,-2.4195,-2.4209,-2.3941,-2.3434,-2.3359,-2.3022,-2.2336,-2.1773,-2.0483,-1.8365,0.0,0.0,0.0,0.0,0.0,0.0,0.0,0.0,0.0,0.0,0.0,0.0,0.0,0.0,0.0,-1.3898,0.0,-1.2139,-1.2062,0.0,0.0,0.0,-1.2247,-1.2621,-1.2686,-1.2824,-1.31,0.0,0.0,-1.3904,-1.4143,-1.4286,-1.4456,-1.431,-1.4233,-1.418,-1.4334,-1.4476,-1.5314,-1.5359,-1.5648,-1.6637,-1.671,-1.6578,-1.6363,-1.6204,-1.6214,-1.6275,-1.6285,-1.6129,-1.5977,-1.5971,-1.6108,-1.6135,-1.6277,-1.6526,-1.6786,-1.6808,-1.6667,-1.642,-1.6355,-1.628,-2.9472,-2.9219,-2.8454,-2.8068,-2.7976,-2.8043,-2.8283,-2.8604,-2.8537,-2.8297,-2.7867,-2.6052,-2.376,-2.1213,-2.0487,-2.0247,-2.033,-1.9937,-1.9946,-2.0331,-2.0474,-2.0525,-2.0577,-2.0952,-2.1295,-2.1615,-2.1851,-2.1941,-2.1947,-2.1732,-2.1234,-2.0503,-2.0207,-2.0792,-2.2158,-2.2352,-2.2652,-2.322,-2.3581,-2.3817,-2.3817,-2.387,-2.3981,-2.4195,-2.4209,-2.4142,-2.3995,-2.3995,-2.3236,-2.1645,-2.0928,-1.9602,-1.7653,-1.6357,0.0,0.0,0.0,0.0,0.0,0.0,0.0,0.0,0.0,-1.4308,-1.4408,0.0,-1.3587,0.0,-1.319,-1.2761,-1.2629,-1.2613,0.0,0.0,-1.2865,-1.2929,-1.3191,-1.3451,-1.3563,-1.348,-1.3868,-1.4176,-1.4257,-1.4464,-1.4643,-1.4844,-1.457,-1.4326,-1.4205,-1.4416,-1.4653,-1.4848,-1.524,-1.5699,-1.6199,-1.6321,-1.6131,-1.5641,-1.5668,-1.586,-1.6153,-1.6223,-1.616,-1.6093,-1.5835,-1.5691,-1.5658,-1.5717,-1.5864,-1.6201,-1.6603,-1.685,-1.6667,-1.6613,-1.6494,-2.956,-2.8325,-2.8092,-2.7209,-2.6136,-2.7982,-2.8921,-2.9219,-2.9055,-2.8925,-2.8612,-2.5981,-2.3131,-2.021,-1.9253,-1.8911,-1.8983,-1.8066,-1.7834,-1.8265,-1.8186,-1.8141,-1.8184,-1.8259,-1.8722,-1.9465,-1.9592,-1.9957,-2.0463,-2.022,-1.9837,-1.9413,-1.9111,-1.9562,-2.0697,-2.088,-2.1697,-2.3244,-2.3487,-2.3701,-2.3941,-2.32,-2.2906,-2.3175,-2.2443,-2.1957,-2.1883,-2.187,-2.1341,-2.0213,-1.9623,-1.8496,-1.6593,-1.557,-1.4517,0.0,0.0,0.0,0.0,0.0,0.0,0.0,0.0,0.0,0.0,0.0,-1.2504,-1.2636,-1.2451,-1.2383,-1.259,-1.2647,-1.2817,-1.3269,-1.3327,-1.3469,-1.3823,-1.3982,-1.4131,-1.4087,-1.4338,-1.4586,-1.4659,-1.4757,-1.4854,-1.499,-1.4797,-1.4635,-1.4562,-1.47,-1.486,-1.4868,-1.5094,-1.539,-1.565,-1.5532,-1.5285,-1.4981,-1.486,-1.4928,-1.515,-1.5186,-1.5186,-1.5159,-1.5042,-1.4974,-1.5128,-1.528,-1.5491,-1.6007,-1.6469,-1.6743,-1.671,-1.6699,-1.658,-2.8483,-2.6398,-2.6237,-2.4875,-2.3077,-2.6649,-2.8331,-2.8569,-2.8266,-2.8191,-2.8023,-2.5153,-2.2342,-1.9556,-1.7681,-1.7083,-1.7406,-1.5568,-1.5002,-1.5521,-1.5402,-1.5328,-1.5314,-1.506,-1.5745,-1.7186,-1.708,-1.7814,-1.9245,-1.8826,-1.8602,-1.8592,-1.795,-1.7844,-1.8286,-1.8361,-1.9809,-2.2661,-2.2719,-2.2966,-2.3484,-2.1931,-2.1258,-2.1509,-2.0064,-1.913,-1.8935,-1.8995,-1.879,-1.8398,-1.8125,-1.7176,-1.5375,-1.4763,-1.3587,0.0,-1.2339,0.0,0.0,0.0,0.0,0.0,0.0,0.0,0.0,-1.1649,-1.1643,-1.1725,-1.1917,-1.2138,-1.2476,-1.2505,-1.2802,-1.3467,-1.3579,-1.3796,-1.4258,-1.4311,-1.4375,-1.4573,-1.4627,-1.473,-1.4891,-1.4984,-1.5006,-1.5,-1.5006,-1.4966,-1.499,-1.499,-1.499,-1.5006,-1.5006,-1.5083,-1.505,-1.473,-1.4502,-1.4408,-1.4237,-1.3937,-1.3975,-1.3975,-1.394,-1.3959,-1.4102,-1.4222,-1.451,-1.4787,-1.5214,-1.5748,-1.6087,-1.6396,-1.6658,-1.6764,-1.6656,-2.4228,-2.3546,-2.3551,-2.3149,-2.2662,-2.3588,-2.3903,-2.382,-2.3777,-2.2808,-2.1196,-2.0264,-1.8487,-1.6185,-1.5616,-1.5228,-1.5,-1.4567,-1.4448,-1.4557,-1.4405,-1.4373,-1.4366,-1.4579,-1.487,-1.5153,-1.5333,-1.5653,-1.6082,-1.5725,-1.5479,-1.5384,-1.5098,-1.5386,-1.6159,0.0,0.0,0.0,-1.9564,-1.9656,-1.9746,-1.9415,-1.9297,-1.9401,-1.9071,0.0,-1.8592,-1.8852,-1.826,-1.6683,-1.6492,0.0,0.0,0.0,0.0,0.0,0.0,0.0,0.0,0.0,0.0,0.0,-1.2225,-1.2125,-1.1677,-1.1989,-1.2293,-1.2489,-1.2616,-1.2793,-1.3022,-1.3044,-1.3193,-1.3484,-1.3514,-1.3612,-1.3816,-1.3839,-1.3854,-1.3876,-1.4237,-1.453,-1.468,-1.4864,-1.5033,-1.5116,-1.5065,-1.5015,-1.5006,-1.5015,-1.5006,-1.5006,-1.5006,-1.5006,-1.5006,-1.4789,-1.4586,-1.4411,-1.427,-1.4083,-1.3945,-1.3912,-1.3904,-1.3904,-1.3793,-1.3749,-1.3819,-1.4018,-1.4334,-1.4674,-1.5151,-1.5771,-1.6699,-1.6937,-1.6872,-2.271,0.0,-2.1243,-2.0359,0.0,-1.9057,-1.8955,-1.9056,-2.1452,-2.1153,-1.8949,-1.8723,-1.7296,-1.4941,-1.4903,-1.474,-1.4516,-1.4471,-1.4475,-1.4401,-1.4326,-1.4211,-1.4112,-1.417,-1.4145,-1.4118,-1.4252,-1.4301,-1.4294,-1.4137,-1.3981,-1.3865,-1.3715,-1.3983,-1.4625,-1.412,-1.5015,-1.7304,-1.8024,-1.8487,-1.8591,-1.7756,-1.7331,-1.7358,0.0,0.0,0.0,0.0,0.0,0.0,0.0,0.0,0.0,0.0,0.0,-1.2047,-1.1853,-1.1727,-1.1627,-1.1635,-1.1818,-1.2123,-1.2243,-1.2208,-1.1957,-1.2187,-1.2412,-1.2561,-1.2717,-1.2837,-1.296,-1.3038,-1.3225,-1.3499,-1.3545,-1.3659,-1.3889,-1.3943,-1.3943,-1.3983,-1.414,-1.4413,-1.4687,-1.4822,-1.5033,-1.5318,-1.5301,-1.5195,-1.5106,-1.5017,-1.5006,-1.5006,-1.5006,-1.5006,-1.499,-1.486,-1.4684,-1.457,-1.4424,-1.4245,-1.4111,-1.4042,-1.401,-1.392,-1.3823,-1.3731,-1.3758,-1.3899,-1.4155,-1.4475,-1.4812,-1.5299,-1.6108,-1.6519,-1.6786,-2.1191,-1.9273,-1.8979,-1.7606,-1.5573,-1.5371,-1.5235,-1.5462,0.0,0.0,0.0,-1.7951,-1.6712,-1.474,-1.464,-1.4613,-1.462,-1.4613,-1.4545,-1.4475,-1.4441,-1.4306,-1.4068,-1.3912,-1.3741,-1.3626,-1.3599,-1.3538,-1.3478,-1.3431,-1.3336,-1.3248,-1.3111,-1.3184,-1.3509,-1.3829,-1.4452,-1.54,-1.67,-1.751,-1.7711,-1.6311,-1.5525,-1.5457,-1.4023,-1.3067,-1.2661,-1.269,-1.2564,-1.2236,-1.2243,-1.2324,-1.2421,-1.2393,-1.228,-1.2121,-1.212,-1.2044,-1.1904,-1.1928,-1.2054,-1.2247,-1.2447,-1.2528,-1.2391,-1.2395,-1.2454,-1.2569,-1.2698,-1.2766,-1.2733,-1.2881,-1.3116,-1.3469,-1.3509,-1.3622,-1.3909,-1.3989,-1.3934,-1.3989,-1.4014,-1.4236,-1.4546,-1.4715,-1.4962,-1.5313,-1.5433,-1.5424,-1.5262,-1.5098,-1.5006,-1.5006,-1.5006,-1.5006,-1.4982,-1.4862,-1.4749,-1.47,-1.457,-1.4424,-1.4278,-1.4221,-1.4164,-1.405,-1.3977,-1.3953,-1.3972,-1.4054,-1.4246,-1.4483,-1.4674,-1.4884,-1.5301,-1.5811,-1.6302,-1.6861,-1.6461,-1.6419,-1.6084,-1.5587,-1.5546,-1.5425,-1.5234,-1.5971,-1.6004,-1.5641,-1.5381,-1.5073,-1.4681,-1.4475,-1.436,-1.436,-1.4367,-1.4346,-1.4326,-1.4197,-1.4159,-1.4061,-1.3912,-1.3788,-1.3761,-1.3646,-1.3639,-1.37,-1.3484,-1.339,-1.3356,-1.3214,-1.3166,-1.309,-1.3116,-1.3248,-1.3417,-1.414,-1.4509,-1.4571,-1.4314,-1.4044,-1.3763,-1.3506,-1.308,-1.2474,-1.2714,-1.2729,-1.2395,-1.2487,-1.2573,-1.2557,-1.2298,-1.212,-1.2118,-1.2196,-1.2241,-1.223,-1.2422,-1.2671,-1.286,-1.2914,-1.2853,-1.2669,-1.2805,-1.2914,-1.2935,-1.2955,-1.2969,-1.2975,-1.2996,-1.3023,-1.309,-1.3083,-1.3123,-1.3217,-1.3257,-1.3217,-1.3264,-1.3469,-1.3774,-1.4003,-1.4454,-1.4832,-1.5119,-1.5313,-1.5472,-1.5439,-1.5179,-1.5031,-1.5006,-1.5006,-1.5006,-1.5023,-1.499,-1.4879,-1.4732,-1.4692,-1.4611,-1.4395,-1.4399,-1.4338,-1.4314,-1.4221,-1.4148,-1.4168,-1.4029,-1.4039,-1.4112,-1.4253,-1.4449,-1.4788,-1.503,-1.5327,-1.6103,-1.6076,-1.5976,-1.5867,-1.5744,-1.5581,-1.5438,-1.5303,-1.5215,-1.5181,-1.5221,-1.5038,-1.4977,-1.497,-1.4841,-1.4733,-1.4665,-1.4665,-1.4577,-1.4421,-1.4428,-1.4346,-1.4197,-1.4122,-1.4048,-1.3966,-1.3899,-1.3865,-1.3795,-1.3783,-1.3682,-1.3526,-1.337,-1.3261,-1.3132,-1.3159,-1.3159,-1.3111,-1.3328,-1.341,-1.341,-1.341,-1.3339,-1.3159,-1.3198,-1.2976,-1.2592,-1.2699,-1.2695,-1.246,-1.2529,-1.2567,-1.265,-1.2504,-1.2461,-1.2581,-1.2656,-1.2696,-1.269,-1.2779,-1.2922,-1.3098,-1.3118,-1.3085,-1.3091,-1.3085,-1.3111,-1.3118,-1.3186,-1.3166,-1.3132,-1.3193,-1.32,-1.32,-1.32,-1.32,-1.32,-1.3241,-1.32,-1.3241,-1.3397,-1.3629,-1.3904,-1.4222,-1.456,-1.4832,-1.5124,-1.5345,-1.561,-1.5439,-1.526,-1.526,-1.5268,-1.522,-1.5139,-1.5114,-1.5041,-1.4879,-1.4846,-1.4773,-1.4619,-1.4549,-1.4546,-1.4411,-1.4359,-1.4326,-1.4318,-1.4253,-1.4164,-1.4094,-1.4145,-1.4261,-1.4294,-1.4405,-1.4767,-1.6286,-1.6232,-1.6051,-1.5935,-1.5881,-1.5608,-1.5493,-1.5445,-1.5303,-1.5235,-1.5228,-1.5167,-1.518,-1.5133,-1.5099,-1.5018,-1.4923,-1.4882,-1.474,-1.4536,-1.4604,-1.4516,-1.4319,-1.4299,-1.4238,-1.4129,-1.4132,-1.4007,-1.3919,-1.398,-1.3905,-1.3646,-1.3559,-1.3437,-1.3329,-1.3437,-1.3437,-1.3322,-1.3254,-1.3125,-1.3105,-1.3098,-1.3084,-1.305,-1.3043,-1.2935,-1.2793,-1.2779,-1.2725,-1.2617,-1.2603,-1.2657,-1.2773,-1.2779,-1.2834,-1.2989,-1.3037,-1.3064,-1.3098,-1.3057,-1.3166,-1.3261,-1.3275,-1.3342,-1.3471,-1.339,-1.3308,-1.3302,-1.3417,-1.3437,-1.3322,-1.3376,-1.3437,-1.341,-1.3397,-1.3383,-1.3397,-1.3397,-1.3397,-1.3397,-1.3397,-1.3562,-1.3859,-1.4025,-1.4259,-1.4642,-1.4896,-1.5194,-1.5569,-1.5586,-1.5481,-1.5578,-1.5529,-1.5416,-1.5286,-1.5262,-1.5244,-1.5145,-1.5049,-1.4984,-1.4862,-1.4806,-1.4724,-1.4603,-1.4492,-1.446,-1.446,-1.4403,-1.433,-1.4253,-1.4217,-1.4135,-1.3992,-1.4038,-1.437,-1.6232,-1.616,-1.6076,-1.603,-1.5908,-1.5867,-1.573,-1.5608,-1.5459,-1.5391,-1.5357,-1.5113,-1.5051,-1.5017,-1.4862,-1.4755,-1.4767,-1.4618,-1.455,-1.4509,-1.4394,-1.4326,-1.4319,-1.4306,-1.4292,-1.4265,-1.4187,-1.4075,-1.4048,-1.3933,-1.3808,-1.3781,-1.3761,-1.3741,-1.3727,-1.3741,-1.3747,-1.3734,-1.372,-1.3627,-1.3376,-1.3363,-1.3295,-1.32,-1.3193,-1.3125,-1.3016,-1.2982,-1.2975,-1.2962,-1.2969,-1.2975,-1.2989,-1.2989,-1.2989,-1.3023,-1.3132,-1.3214,-1.3342,-1.3356,-1.3424,-1.3566,-1.3538,-1.3592,-1.3727,-1.3734,-1.368,-1.3641,-1.3673,-1.3673,-1.3565,-1.3558,-1.3559,-1.3458,-1.3431,-1.3397,-1.3417,-1.3397,-1.3397,-1.3397,-1.3424,-1.3403,-1.3555,-1.3846,-1.4246,-1.4607,-1.4687,-1.4946,-1.5399,-1.5499,-1.5541,-1.5796,-1.574,-1.5545,-1.5456,-1.5456,-1.5463,-1.5431,-1.5278,-1.5173,-1.5108,-1.5041,-1.4966,-1.4879,-1.4765,-1.4684,-1.4643,-1.4562,-1.4411,-1.4408,-1.4302,-1.4131,-1.3961,-1.3967,-1.4231,-1.6483,-1.6334,-1.6252,-1.613,-1.5988,-1.5942,-1.5867,-1.575,-1.5608,-1.5499,-1.5404,-1.5282,-1.5181,-1.5092,-1.5025,-1.4957,-1.4875,-1.4808,-1.4733,-1.4599,-1.4539,-1.4512,-1.455,-1.4462,-1.4428,-1.4414,-1.4278,-1.4204,-1.4183,-1.4055,-1.3973,-1.3966,-1.3849,-1.3795,-1.3795,-1.3795,-1.3795,-1.3795,-1.3795,-1.3734,-1.3632,-1.3661,-1.3592,-1.3566,-1.3485,-1.3464,-1.3471,-1.3403,-1.3397,-1.3471,-1.3478,-1.3478,-1.3478,-1.3478,-1.3478,-1.3443,-1.3532,-1.3593,-1.3612,-1.3661,-1.3646,-1.3707,-1.3714,-1.3741,-1.3795,-1.3919,-1.3946,-1.3905,-1.3822,-1.3768,-1.372,-1.3707,-1.368,-1.3668,-1.3661,-1.3612,-1.3619,-1.3619,-1.3619,-1.3612,-1.3545,-1.3573,-1.3627,-1.3713,-1.4042,-1.4413,-1.4517,-1.4695,-1.537,-1.5537,-1.5656,-1.5891,-1.5869,-1.5796,-1.5699,-1.5666,-1.5626,-1.5536,-1.5455,-1.5367,-1.5343,-1.5244,-1.513,-1.5122,-1.4976,-1.4871,-1.4901,-1.4852,-1.4724,-1.4619,-1.4448,-1.4278,-1.4099,-1.4066,-1.4165,-1.6547,-1.6456,-1.6307,-1.6185,-1.6126,-1.601,-1.5962,-1.5949,-1.5764,-1.5635,-1.5527,-1.5452,-1.535,-1.5248,-1.5201,-1.5126,-1.5078,-1.5037,-1.4909,-1.4755,-1.4714,-1.4694,-1.4681,-1.4631,-1.4577,-1.4557,-1.4475,-1.4401,-1.4346,-1.4211,-1.4136,-1.4116,-1.4021,-1.3966,-1.3923,-1.3966,-1.3923,-1.393,-1.3923,-1.3923,-1.3923,-1.3923,-1.3883,-1.3802,-1.37,-1.3693,-1.3788,-1.37,-1.3687,-1.3788,-1.3795,-1.3795,-1.3795,-1.3795,-1.3795,-1.3795,-1.3795,-1.3795,-1.3795,-1.3795,-1.3815,-1.3856,-1.3862,-1.3876,-1.3973,-1.4068,-1.4129,-1.4166,-1.4027,-1.3923,-1.3862,-1.3905,-1.3849,-1.3808,-1.3795,-1.3795,-1.3788,-1.3795,-1.3788,-1.3788,-1.3693,-1.368,-1.3754,-1.3749,-1.385,-1.4174,-1.421,-1.4372,-1.5066,-1.5211,-1.5325,-1.575,-1.5834,-1.5827,-1.5837,-1.5845,-1.578,-1.5707,-1.5642,-1.5585,-1.5577,-1.5431,-1.5221,-1.5212,-1.5106,-1.5017,-1.4982,-1.4974,-1.4941,-1.4749,-1.4557,-1.4448,-1.4278,-1.4229,-1.4168,-1.6449,-1.6307,-1.6157,-1.609,-1.6126,-1.6069,-1.6112,-1.6049,-1.5962,-1.5888,-1.5826,-1.554,-1.5411,-1.5384,-1.5242,-1.5174,-1.52,-1.5038,-1.5023,-1.495,-1.4821,-1.4701,-1.4694,-1.4687,-1.4681,-1.4681,-1.4647,-1.4579,-1.4496,-1.4367,-1.4292,-1.4292,-1.4285,-1.4278,-1.4278,-1.4278,-1.4278,-1.4265,-1.4272,-1.4272,-1.4272,-1.4272,-1.4143,-1.3862,-1.3795,-1.3802,-1.3815,-1.3795,-1.3802,-1.3802,-1.3822,-1.3808,-1.3808,-1.3815,-1.3815,-1.3815,-1.3808,-1.3808,-1.3815,-1.3822,-1.3919,-1.4034,-1.4061,-1.4159,-1.4217,-1.4251,-1.4265,-1.4278,-1.4251,-1.4197,-1.4082,-1.4105,-1.4007,-1.3849,-1.3815,-1.3822,-1.3815,-1.3849,-1.3802,-1.3815,-1.3822,-1.3815,-1.3815,-1.3795,-1.3802,-1.3908,-1.3844,-1.4053,-1.4408,-1.4491,-1.4789,-1.5308,-1.5536,-1.5546,-1.5908,-1.595,-1.5958,-1.5902,-1.5821,-1.5764,-1.5707,-1.5618,-1.5455,-1.527,-1.5189,-1.5139,-1.5055,-1.4974,-1.4887,-1.4797,-1.4749,-1.4619,-1.4427,-1.4294,-1.4225,-1.6524,-1.63,-1.6144,-1.6133,-1.6133,-1.6133,-1.6133,-1.6076,-1.6071,-1.5996,-1.5881,-1.5642,-1.5451,-1.5404,-1.5248,-1.5181,-1.5174,-1.5173,-1.5106,-1.5099,-1.5045,-1.5025,-1.5018,-1.4936,-1.4889,-1.4875,-1.4787,-1.4667,-1.462,-1.4559,-1.4539,-1.4584,-1.4532,-1.4539,-1.4584,-1.4532,-1.4491,-1.4455,-1.4529,-1.4496,-1.434,-1.4482,-1.4475,-1.4228,-1.4082,-1.4082,-1.4221,-1.4089,-1.4075,-1.4214,-1.4183,-1.4136,-1.4136,-1.4136,-1.4136,-1.4136,-1.4136,-1.4136,-1.4136,-1.4092,-1.4156,-1.4204,-1.4217,-1.4231,-1.4285,-1.4299,-1.4299,-1.4299,-1.4299,-1.4265,-1.4238,-1.4217,-1.4197,-1.415,-1.4129,-1.4122,-1.4136,-1.4136,-1.4136,-1.4092,-1.4136,-1.4102,-1.4014,-1.3987,-1.4027,-1.4102,-1.4055,-1.4182,-1.4428,-1.4472,-1.4712,-1.5455,-1.5664,-1.5761,-1.6127,-1.6064,-1.5999,-1.5991,-1.5934,-1.591,-1.5861,-1.5788,-1.5634,-1.5463,-1.5335,-1.5181,-1.5129,-1.5006,-1.4911,-1.4933,-1.4892,-1.4773,-1.4606,-1.4505,-1.4367,-1.6503,-1.6239,-1.6123,-1.6133,-1.6133,-1.6133,-1.6133,-1.6133,-1.6126,-1.6022,-1.5913,-1.5771,-1.5649,-1.554,-1.5398,-1.533,-1.5316,-1.5235,-1.5208,-1.5248,-1.5208,-1.5255,-1.5228,-1.5153,-1.5038,-1.5018,-1.4889,-1.4769,-1.4808,-1.4721,-1.4694,-1.4687,-1.4694,-1.4694,-1.4694,-1.4694,-1.4633,-1.4579,-1.4647,-1.4631,-1.4489,-1.4593,-1.4647,-1.4532,-1.4387,-1.4373,-1.4577,-1.4387,-1.4373,-1.4536,-1.4444,-1.4441,-1.4397,-1.4441,-1.4414,-1.438,-1.4367,-1.4346,-1.4306,-1.4299,-1.4299,-1.4299,-1.4299,-1.4299,-1.4299,-1.4299,-1.4299,-1.4299,-1.4299,-1.4299,-1.4299,-1.4299,-1.4299,-1.4299,-1.4299,-1.4299,-1.4299,-1.4292,-1.4292,-1.4278,-1.4278,-1.4238,-1.417,-1.415,-1.419,-1.4292,-1.4204,-1.4267,-1.4416,-1.4469,-1.4579,-1.5298,-1.5285,-1.5436,-1.5742,-1.5766,-1.5898,-1.5949,-1.5999,-1.5999,-1.5983,-1.591,-1.5788,-1.5626,-1.5463,-1.5301,-1.5155,-1.5072,-1.5023,-1.5015,-1.4982,-1.4879,-1.4789,-1.4732,-1.4586,-1.6347,-1.611,-1.6133,-1.6133,-1.6133,-1.6133,-1.6133,-1.6133,-1.6133,-1.6119,-1.6078,-1.5956,-1.5867,-1.5847,-1.5649,-1.5566,-1.5506,-1.5343,-1.5296,-1.5391,-1.5282,-1.5296,-1.5398,-1.5276,-1.5201,-1.5181,-1.5085,-1.5023,-1.4964,-1.4855,-1.4741,-1.4728,-1.4741,-1.4775,-1.4728,-1.4762,-1.4721,-1.4721,-1.4741,-1.4708,-1.4694,-1.4714,-1.4728,-1.4701,-1.4681,-1.4687,-1.4708,-1.4674,-1.4654,-1.4687,-1.4674,-1.4687,-1.466,-1.4654,-1.4613,-1.4536,-1.4516,-1.4448,-1.434,-1.4333,-1.4353,-1.4353,-1.4326,-1.4346,-1.436,-1.4346,-1.4346,-1.4353,-1.4346,-1.4333,-1.434,-1.4346,-1.4326,-1.4299,-1.4299,-1.4299,-1.4299,-1.4299,-1.4299,-1.4299,-1.4299,-1.4299,-1.4292,-1.4272,-1.4278,-1.4285,-1.4278,-1.4231,-1.4217,-1.4199,-1.426,-1.4521,-1.4814,-1.5049,-1.5245,-1.5424,-1.5675,-1.5865,-1.5949,-1.6007,-1.6007,-1.5934,-1.5886,-1.574,-1.561,-1.5447,-1.522,-1.5098,-1.5055,-1.5031,-1.5015,-1.5006,-1.4903,-1.483,-1.4757,-1.6259,-1.609,-1.6133,-1.6133,-1.6133,-1.6133,-1.6133,-1.6133,-1.6133,-1.6133,-1.6105,-1.5969,-1.5901,-1.5874,-1.5703,-1.5593,-1.558,-1.5533,-1.5527,-1.5506,-1.5472,-1.5513,-1.5499,-1.5472,-1.5438,-1.533,-1.5234,-1.512,-1.5113,-1.5072,-1.5092,-1.5167,-1.5092,-1.516,-1.5269,-1.516,-1.5045,-1.5045,-1.5045,-1.495,-1.4741,-1.4943,-1.4997,-1.4923,-1.4991,-1.5045,-1.5031,-1.4802,-1.4801,-1.4889,-1.4794,-1.4694,-1.4694,-1.4694,-1.4674,-1.4633,-1.4626,-1.4606,-1.4611,-1.4597,-1.4545,-1.4552,-1.4597,-1.4559,-1.4559,-1.4545,-1.459,-1.4545,-1.4559,-1.4559,-1.4604,-1.4604,-1.4516,-1.4319,-1.4299,-1.4312,-1.4326,-1.4306,-1.4299,-1.4299,-1.4299,-1.4299,-1.4299,-1.4299,-1.4299,-1.4299,-1.4299,-1.4265,-1.4224,-1.4136,-1.4341,-1.4741,-1.4771,-1.4736,-1.5002,-1.5194,-1.5358,-1.5588,-1.5729,-1.5866,-1.5891,-1.5991,-1.591,-1.5853,-1.5731,-1.5569,-1.5342,-1.5204,-1.513,-1.5072,-1.5047,-1.5031,-1.5006,-1.4949,-1.483,-1.63,-1.6164,-1.6103,-1.6151,-1.6218,-1.6137,-1.6117,-1.6151,-1.6153,-1.6133,-1.6105,-1.5981,-1.599,-1.592,-1.5839,-1.5805,-1.5805,-1.5805,-1.5756,-1.5778,-1.5621,-1.5669,-1.5696,-1.5655,-1.5546,-1.5451,-1.5398,-1.535,-1.535,-1.5357,-1.5404,-1.5459,-1.5398,-1.5432,-1.5566,-1.5459,-1.533,-1.5282,-1.5262,-1.5147,-1.4991,-1.5086,-1.514,-1.5072,-1.5133,-1.5174,-1.5167,-1.4997,-1.495,-1.5018,-1.495,-1.4863,-1.4903,-1.4909,-1.4882,-1.4835,-1.4821,-1.4801,-1.4753,-1.4674,-1.4694,-1.4694,-1.4694,-1.4687,-1.4694,-1.4694,-1.4694,-1.4694,-1.4687,-1.4694,-1.4687,-1.4687,-1.4599,-1.4489,-1.4475,-1.4462,-1.4455,-1.4407,-1.438,-1.4373,-1.4333,-1.4306,-1.4299,-1.4299,-1.4299,-1.4299,-1.4299,-1.4299,-1.4278,-1.4217,-1.4465,-1.4655,-1.4606,-1.4689,-1.4886,-1.4988,-1.5024,-1.5218,-1.5409,-1.5596,-1.5701,-1.5891,-1.5958,-1.5918,-1.5813,-1.5755,-1.552,-1.5407,-1.5317,-1.5204,-1.5098,-1.509,-1.509,-1.5031,-1.4949,-1.6422,-1.6293,-1.6151,-1.6225,-1.6408,-1.6205,-1.6164,-1.6246,-1.6164,-1.6146,-1.6083,-1.6112,-1.6119,-1.6126,-1.6085,-1.6029,-1.6126,-1.6076,-1.6049,-1.5995,-1.5866,-1.5818,-1.5852,-1.5737,-1.5621,-1.56,-1.5573,-1.556,-1.5533,-1.5539,-1.5593,-1.5642,-1.5615,-1.56,-1.5634,-1.5607,-1.5554,-1.5472,-1.5438,-1.5343,-1.5215,-1.5221,-1.5215,-1.5201,-1.5201,-1.5215,-1.5208,-1.5208,-1.5194,-1.5187,-1.5147,-1.5133,-1.5167,-1.5181,-1.5092,-1.4984,-1.4977,-1.4916,-1.4762,-1.4769,-1.4808,-1.4769,-1.4769,-1.4714,-1.4762,-1.4775,-1.4775,-1.4769,-1.4762,-1.4748,-1.4794,-1.4755,-1.4741,-1.4721,-1.4667,-1.4654,-1.4667,-1.4552,-1.4491,-1.4509,-1.4414,-1.4333,-1.4367,-1.436,-1.4353,-1.4326,-1.4333,-1.4333,-1.4299,-1.4272,-1.4292,-1.4374,-1.4404,-1.4479,-1.4657,-1.4673,-1.4705,-1.4779,-1.5033,-1.5348,-1.5573,-1.5808,-1.6007,-1.5934,-1.5885,-1.5829,-1.5755,-1.5585,-1.5496,-1.5407,-1.5325,-1.5237,-1.5173,-1.513,-1.5041,-1.6246,-1.6286,-1.6144,-1.6123,-1.6205,-1.6218,-1.6205,-1.6157,-1.6225,-1.6178,-1.6103,-1.6133,-1.6133,-1.6133,-1.6133,-1.6133,-1.6173,-1.6205,-1.6178,-1.6123,-1.6252,-1.6157,-1.6071,-1.5922,-1.5798,-1.5791,-1.5668,-1.5587,-1.5587,-1.5621,-1.5668,-1.5791,-1.5675,-1.5722,-1.5906,-1.5708,-1.5689,-1.5758,-1.5622,-1.5512,-1.5472,-1.5458,-1.5459,-1.5357,-1.535,-1.535,-1.5364,-1.5411,-1.5398,-1.5201,-1.5181,-1.5181,-1.5187,-1.5194,-1.5174,-1.514,-1.5173,-1.5113,-1.5079,-1.5052,-1.5059,-1.5065,-1.5038,-1.5065,-1.5065,-1.5065,-1.5065,-1.5065,-1.5065,-1.5052,-1.5059,-1.5052,-1.5059,-1.5038,-1.4843,-1.4721,-1.4708,-1.4667,-1.4633,-1.4626,-1.4593,-1.4559,-1.4552,-1.4545,-1.4563,-1.4482,-1.4448,-1.4428,-1.4387,-1.4326,-1.4333,-1.4306,-1.4336,-1.4336,-1.4374,-1.4397,-1.4373,-1.4343,-1.465,-1.5099,-1.5432,-1.5755,-1.589,-1.5983,-1.5875,-1.5811,-1.5804,-1.5715,-1.565,-1.5561,-1.5512,-1.5399,-1.5351,-1.5317,-1.5228,-1.6266,-1.6381,-1.6171,-1.6151,-1.6259,-1.63,-1.6259,-1.6205,-1.6266,-1.6225,-1.6103,-1.6133,-1.6117,-1.6178,-1.6178,-1.6218,-1.6273,-1.6361,-1.6347,-1.6313,-1.6429,-1.6408,-1.6246,-1.6069,-1.603,-1.6029,-1.5893,-1.5839,-1.5845,-1.5837,-1.5967,-1.6029,-1.5961,-1.6015,-1.6137,-1.5961,-1.5825,-1.5888,-1.5764,-1.5661,-1.5593,-1.5587,-1.5553,-1.552,-1.5506,-1.5506,-1.5472,-1.5546,-1.5499,-1.5398,-1.5323,-1.5276,-1.5276,-1.5276,-1.5282,-1.5276,-1.5276,-1.5303,-1.5337,-1.5269,-1.5215,-1.5248,-1.5235,-1.5187,-1.5174,-1.5181,-1.5181,-1.5167,-1.5181,-1.5181,-1.5181,-1.5181,-1.5181,-1.5147,-1.5025,-1.4923,-1.4923,-1.4875,-1.4841,-1.4821,-1.4735,-1.4694,-1.4694,-1.4701,-1.4654,-1.4593,-1.4566,-1.4525,-1.4516,-1.4441,-1.4387,-1.4387,-1.4333,-1.4319,-1.4312,-1.4336,-1.4367,-1.4301,-1.443,-1.4851,-1.517,-1.5577,-1.579,-1.5868,-1.582,-1.5881,-1.595,-1.5934,-1.5861,-1.5764,-1.5691,-1.5618,-1.5577,-1.548,-1.5351,-1.6368,-1.6425,-1.6198,-1.6246,-1.6442,-1.6381,-1.6341,-1.6334,-1.6374,-1.63,-1.6178,-1.6137,-1.6232,-1.6334,-1.6334,-1.6395,-1.6503,-1.6524,-1.6513,-1.6551,-1.6564,-1.6517,-1.6544,-1.6246,-1.6191,-1.6259,-1.6178,-1.6123,-1.6137,-1.6252,-1.6313,-1.63,-1.6307,-1.632,-1.63,-1.6171,-1.6092,-1.603,-1.5962,-1.5859,-1.5791,-1.5708,-1.5716,-1.5669,-1.5655,-1.5655,-1.5669,-1.5696,-1.5648,-1.5641,-1.5527,-1.5445,-1.5432,-1.5432,-1.5432,-1.5432,-1.5438,-1.5438,-1.5519,-1.5384,-1.5303,-1.5391,-1.5316,-1.5228,-1.5262,-1.5282,-1.5282,-1.5289,-1.5235,-1.5269,-1.5262,-1.5235,-1.5248,-1.5255,-1.5228,-1.5201,-1.5181,-1.5079,-1.5044,-1.5037,-1.4869,-1.4755,-1.4741,-1.4735,-1.4787,-1.478,-1.476,-1.4674,-1.4613,-1.4539,-1.4543,-1.4536,-1.4455,-1.434,-1.4326,-1.4312,-1.4299,-1.4302,-1.4447,-1.4705,-1.4866,-1.52,-1.5504,-1.5663,-1.58,-1.6047,-1.6266,-1.6219,-1.6047,-1.5966,-1.591,-1.5845,-1.5788,-1.565,-1.5536,-1.6218,-1.6341,-1.6157,-1.6185,-1.6354,-1.6442,-1.6476,-1.6476,-1.6547,-1.6544,-1.6449,-1.6422,-1.6435,-1.6476,-1.6476,-1.6497,-1.6564,-1.6653,-1.6709,-1.6849,-1.6612,-1.6686,-1.6734,-1.6463,-1.6354,-1.6408,-1.6327,-1.6313,-1.6402,-1.6429,-1.6476,-1.6476,-1.6425,-1.6425,-1.6456,-1.6341,-1.6313,-1.632,-1.6157,-1.6083,-1.6103,-1.6015,-1.592,-1.5874,-1.586,-1.5805,-1.5888,-1.5927,-1.5981,-1.5927,-1.575,-1.5608,-1.5594,-1.5539,-1.5539,-1.5539,-1.5588,-1.556,-1.5573,-1.5533,-1.5499,-1.5519,-1.554,-1.5492,-1.5492,-1.5472,-1.5527,-1.5492,-1.554,-1.5506,-1.5499,-1.5418,-1.5418,-1.5459,-1.537,-1.5364,-1.5337,-1.5228,-1.518,-1.512,-1.5092,-1.5079,-1.5079,-1.5052,-1.5018,-1.495,-1.4896,-1.4862,-1.4755,-1.4687,-1.4706,-1.4685,-1.4577,-1.4462,-1.4394,-1.436,-1.4306,-1.4299,-1.4421,-1.4467,-1.4683,-1.4858,-1.5182,-1.5537,-1.5872,-1.6095,-1.6214,-1.6273,-1.6078,-1.6079,-1.6105,-1.6008,-1.5902,-1.578,-1.5715,-1.6273,-1.6388,-1.6252,-1.6239,-1.6341,-1.6537,-1.6533,-1.6558,-1.6635,-1.6615,-1.6544,-1.6517,-1.6558,-1.6574,-1.6581,-1.6608,-1.6741,-1.6815,-1.6897,-1.6931,-1.6802,-1.6836,-1.6883,-1.6693,-1.6479,-1.651,-1.6374,-1.6368,-1.6429,-1.6564,-1.6581,-1.6574,-1.6574,-1.6574,-1.6554,-1.6432,-1.6449,-1.6469,-1.6381,-1.6307,-1.6286,-1.6232,-1.6117,-1.6044,-1.601,-1.601,-1.5974,-1.6078,-1.6119,-1.6042,-1.5934,-1.5805,-1.575,-1.5744,-1.5744,-1.5737,-1.5737,-1.5784,-1.5811,-1.5675,-1.5662,-1.5737,-1.5634,-1.5593,-1.5587,-1.5587,-1.5587,-1.5587,-1.558,-1.5587,-1.5587,-1.5533,-1.5533,-1.5553,-1.5526,-1.5472,-1.5486,-1.5323,-1.5181,-1.5181,-1.5167,-1.5167,-1.5181,-1.5181,-1.5167,-1.5059,-1.5059,-1.5025,-1.5004,-1.4936,-1.4869,-1.4814,-1.4654,-1.4545,-1.4496,-1.4407,-1.4312,-1.4299,-1.4329,-1.4353,-1.4451,-1.4682,-1.4916,-1.5241,-1.5585,-1.5805,-1.5945,-1.5987,-1.6107,-1.616,-1.6128,-1.6056,-1.5975,-1.5877,-1.5853,-1.6408,-1.651,-1.6395,-1.6354,-1.6415,-1.6588,-1.6642,-1.6632,-1.6675,-1.6741,-1.6612,-1.6592,-1.6693,-1.6709,-1.673,-1.687,-1.6937,-1.6965,-1.6971,-1.6958,-1.6951,-1.6944,-1.6931,-1.6795,-1.6608,-1.6551,-1.6463,-1.6429,-1.6524,-1.6646,-1.6781,-1.673,-1.673,-1.673,-1.6702,-1.6588,-1.654,-1.6619,-1.653,-1.6442,-1.6361,-1.6313,-1.6212,-1.609,-1.6056,-1.6105,-1.6105,-1.6126,-1.6133,-1.6133,-1.6133,-1.6058,-1.5976,-1.5935,-1.5935,-1.5935,-1.5935,-1.5983,-1.5974,-1.5866,-1.5784,-1.5928,-1.5791,-1.573,-1.5681,-1.5695,-1.575,-1.5675,-1.5675,-1.571,-1.5654,-1.5683,-1.5689,-1.5661,-1.5703,-1.5669,-1.5622,-1.5418,-1.5303,-1.5228,-1.5208,-1.5181,-1.5181,-1.5181,-1.5181,-1.5181,-1.5181,-1.5174,-1.514,-1.5106,-1.5025,-1.4964,-1.4855,-1.4674,-1.4618,-1.4557,-1.4448,-1.4373,-1.4353,-1.434,-1.4326,-1.4472,-1.4673,-1.4906,-1.5184,-1.5431,-1.5607,-1.5682,-1.5839,-1.6073,-1.6028,-1.5825,-1.5834,-1.5925,-1.5958,-1.6497,-1.6517,-1.6497,-1.6506,-1.6621,-1.6682,-1.6809,-1.6897,-1.6917,-1.6924,-1.6897,-1.6897,-1.6897,-1.6931,-1.6937,-1.6958,-1.6971,-1.6978,-1.6978,-1.6978,-1.6978,-1.6978,-1.6951,-1.6849,-1.6696,-1.6669,-1.6621,-1.6714,-1.6795,-1.6924,-1.6917,-1.6931,-1.6924,-1.6924,-1.6883,-1.6809,-1.6768,-1.6802,-1.6673,-1.6544,-1.6483,-1.6381,-1.6273,-1.6144,-1.6137,-1.6123,-1.6153,-1.6139,-1.6133,-1.6133,-1.6133,-1.6119,-1.6049,-1.6042,-1.6085,-1.6071,-1.6071,-1.6092,-1.6049,-1.6035,-1.6008,-1.6085,-1.5995,-1.5988,-1.5988,-1.5988,-1.5954,-1.594,-1.5886,-1.5866,-1.5995,-1.5886,-1.5893,-1.592,-1.5886,-1.5818,-1.5784,-1.5662,-1.5506,-1.5418,-1.5309,-1.5215,-1.5255,-1.5255,-1.5235,-1.5221,-1.5201,-1.5187,-1.5167,-1.516,-1.514,-1.5079,-1.5064,-1.4875,-1.4694,-1.4654,-1.4579,-1.4523,-1.4475,-1.4434,-1.4401,-1.4326,-1.4469,-1.4746,-1.4962,-1.5126,-1.5285,-1.5345,-1.5438,-1.5559,-1.5549,-1.5528,-1.5575,-1.5672,-1.58,-1.6588,-1.6588,-1.6588,-1.6628,-1.6702,-1.6836,-1.691,-1.6971,-1.6978,-1.6978,-1.6978,-1.6978,-1.6978,-1.6978,-1.6978,-1.6978,-1.6978,-1.6978,-1.6978,-1.6978,-1.6978,-1.6978,-1.6978,-1.689,-1.6876,-1.687,-1.687,-1.6849,-1.687,-1.6944,-1.6978,-1.6978,-1.6978,-1.6978,-1.6971,-1.691,-1.691,-1.6924,-1.6829,-1.6707,-1.6581,-1.6497,-1.6374,-1.6327,-1.6307,-1.6313,-1.6293,-1.6225,-1.6205,-1.6185,-1.6123,-1.6137,-1.6171,-1.6191,-1.6164,-1.616,-1.6139,-1.6139,-1.6133,-1.6133,-1.6126,-1.6126,-1.6133,-1.6133,-1.6133,-1.6119,-1.6133,-1.6112,-1.6092,-1.6044,-1.6062,-1.6051,-1.6022,-1.6042,-1.6058,-1.6024,-1.5983,-1.5832,-1.573,-1.5628,-1.554,-1.5472,-1.5432,-1.5404,-1.5323,-1.5276,-1.5228,-1.5208,-1.5201,-1.5181,-1.5181,-1.514,-1.5126,-1.4991,-1.4869,-1.4782,-1.4735,-1.4685,-1.4618,-1.4577,-1.4471,-1.4462,-1.4534,-1.473,-1.4857,-1.4911,-1.4987,-1.5075,-1.5081,-1.5135,-1.522,-1.5283,-1.5295,-1.5356,-1.5503,-1.6743,-1.6743,-1.6743,-1.6743,-1.6763,-1.6924,-1.6978,-1.6978,-1.6978,-1.6978,-1.6978,-1.6978,-1.6978,-1.6978,-1.6978,-1.6978,-1.6978,-1.6978,-1.6978,-1.6978,-1.6978,-1.6978,-1.6978,-1.6978,-1.6965,-1.6951,-1.6958,-1.6917,-1.6876,-1.6931,-1.6992,-1.7019,-1.7012,-1.7005,-1.7019,-1.6985,-1.6992,-1.6978,-1.6971,-1.6904,-1.6702,-1.6554,-1.6517,-1.6517,-1.6517,-1.6503,-1.6476,-1.6402,-1.6354,-1.632,-1.6273,-1.6232,-1.6327,-1.6354,-1.6293,-1.6198,-1.6171,-1.6171,-1.6178,-1.6191,-1.6218,-1.6225,-1.6157,-1.6137,-1.6117,-1.6117,-1.6133,-1.6133,-1.6126,-1.6112,-1.6126,-1.6126,-1.6076,-1.6126,-1.6126,-1.6119,-1.6035,-1.5974,-1.5969,-1.5839,-1.5771,-1.5683,-1.5601,-1.5492,-1.5466,-1.5411,-1.5364,-1.5296,-1.5276,-1.5194,-1.5174,-1.5153,-1.516,-1.5112,-1.4991,-1.495,-1.4896,-1.4821,-1.4774,-1.4746,-1.464,-1.4572,-1.4665,-1.4724,-1.4606,-1.4626,-1.4734,-1.4796,-1.4705,-1.4772,-1.4951,-1.5034,-1.4988,-1.5071,-1.5287,-1.6958,-1.6951,-1.6951,-1.6951,-1.6951,-1.6971,-1.6978,-1.6978,-1.6978,-1.6978,-1.6978,-1.6978,-1.6978,-1.6978,-1.6978,-1.6978,-1.6978,-1.6978,-1.6992,-1.7005,-1.6992,-1.6985,-1.6985,-1.6978,-1.6978,-1.6978,-1.6978,-1.6971,-1.6958,-1.6978,-1.7046,-1.7107,-1.706,-1.7039,-1.7121,-1.706,-1.6978,-1.6978,-1.6978,-1.691,-1.6716,-1.6625,-1.6564,-1.6551,-1.6551,-1.6564,-1.6571,-1.653,-1.6497,-1.6446,-1.6476,-1.6469,-1.6497,-1.6446,-1.6446,-1.6476,-1.6469,-1.6463,-1.6442,-1.6415,-1.6415,-1.6388,-1.6341,-1.6293,-1.6239,-1.6157,-1.6153,-1.6133,-1.6133,-1.6133,-1.6133,-1.6133,-1.6133,-1.6133,-1.6133,-1.6133,-1.6119,-1.6056,-1.6058,-1.6051,-1.5927,-1.5811,-1.571,-1.5655,-1.5601,-1.5554,-1.5499,-1.5425,-1.5371,-1.5316,-1.5235,-1.5228,-1.5208,-1.516,-1.5092,-1.5052,-1.5018,-1.495,-1.4936,-1.4909,-1.4848,-1.4748,-1.4708,-1.4726,-1.4584,-1.4543,-1.473,-1.4678,-1.4441,-1.4456,-1.4698,-1.4664,-1.4572,-1.4764,-1.4977,-1.6978,-1.6978,-1.6978,-1.6978,-1.6978,-1.6978,-1.6978,-1.6978,-1.6978,-1.6978,-1.6978,-1.6978,-1.6978,-1.6978,-1.6978,-1.6978,-1.6978,-1.6992,-1.7032,-1.7066,-1.7039,-1.7032,-1.7066,-1.7019,-1.6978,-1.6978,-1.6992,-1.7046,-1.7099,-1.7032,-1.7053,-1.7175,-1.7134,-1.7121,-1.7202,-1.7134,-1.7053,-1.7005,-1.6971,-1.6951,-1.6883,-1.6815,-1.6781,-1.6775,-1.6775,-1.6768,-1.6754,-1.6635,-1.6601,-1.6581,-1.6533,-1.6571,-1.6625,-1.6608,-1.6628,-1.6781,-1.6781,-1.67,-1.6551,-1.653,-1.6537,-1.6524,-1.6463,-1.6395,-1.6327,-1.6252,-1.6164,-1.6133,-1.6133,-1.6139,-1.6146,-1.6133,-1.6133,-1.6133,-1.6167,-1.6146,-1.6146,-1.6133,-1.6112,-1.6126,-1.6119,-1.5947,-1.5845,-1.5798,-1.5764,-1.5723,-1.5649,-1.5512,-1.5485,-1.552,-1.5425,-1.533,-1.5309,-1.5282,-1.5201,-1.514,-1.5147,-1.5106,-1.5099,-1.5072,-1.5018,-1.497,-1.4936,-1.4916,-1.4862,-1.4835,-1.4835,-1.4704,-1.4524,-1.4479,-1.4448,-1.444,-1.4481,-1.4326,-1.4521,-1.6978,-1.6978,-1.6978,-1.6978,-1.6978,-1.6978,-1.6978,-1.6978,-1.6978,-1.6978,-1.6978,-1.6978,-1.6978,-1.6992,-1.7019,-1.7046,-1.7046,-1.7073,-1.7148,-1.7175,-1.7161,-1.7141,-1.7141,-1.708,-1.7019,-1.6978,-1.6978,-1.7053,-1.7114,-1.7121,-1.7141,-1.7283,-1.7216,-1.7222,-1.7229,-1.7195,-1.7114,-1.6992,-1.6978,-1.6971,-1.6965,-1.6965,-1.6958,-1.6965,-1.6978,-1.6978,-1.6958,-1.6883,-1.6809,-1.6736,-1.6727,-1.6727,-1.6743,-1.6815,-1.6842,-1.6917,-1.6931,-1.6863,-1.6734,-1.6673,-1.6639,-1.6625,-1.652,-1.6524,-1.6395,-1.6361,-1.6341,-1.6232,-1.6225,-1.6218,-1.6191,-1.6205,-1.6232,-1.6218,-1.6191,-1.6157,-1.613,-1.6117,-1.6146,-1.6133,-1.6133,-1.6133,-1.6044,-1.5996,-1.5962,-1.5942,-1.5811,-1.5648,-1.5621,-1.5614,-1.5539,-1.5472,-1.5459,-1.5438,-1.5384,-1.5316,-1.5296,-1.5269,-1.5269,-1.5242,-1.5201,-1.516,-1.5126,-1.5113,-1.5132,-1.5038,-1.4984,-1.4794,-1.4624,-1.4642,-1.4647,-1.4506,-1.4404,-1.4231,-1.4244,-1.6978,-1.6978,-1.6978,-1.6978,-1.6978,-1.6978,-1.6978,-1.6978,-1.6978,-1.6978,-1.6978,-1.6978,-1.6978,-1.7005,-1.71,-1.7154,-1.7175,-1.7324,-1.7372,-1.7385,-1.7385,-1.7304,-1.7263,-1.7202,-1.7114,-1.7012,-1.7012,-1.7087,-1.7161,-1.7182,-1.7338,-1.7494,-1.7372,-1.7338,-1.7297,-1.7222,-1.7107,-1.6998,-1.6978,-1.6978,-1.6978,-1.6978,-1.6978,-1.6985,-1.6985,-1.6985,-1.6978,-1.6965,-1.6944,-1.6937,-1.6897,-1.6883,-1.6917,-1.6924,-1.6951,-1.6965,-1.6978,-1.6931,-1.6883,-1.6876,-1.6924,-1.6897,-1.6815,-1.6615,-1.653,-1.651,-1.649,-1.6449,-1.6402,-1.6429,-1.6449,-1.6483,-1.6422,-1.6388,-1.6327,-1.63,-1.6246,-1.6151,-1.613,-1.6146,-1.6133,-1.6133,-1.6133,-1.6071,-1.6051,-1.603,-1.599,-1.5832,-1.5715,-1.5695,-1.5648,-1.558,-1.5573,-1.5566,-1.5553,-1.5499,-1.5479,-1.5466,-1.5472,-1.5438,-1.5398,-1.5357,-1.5323,-1.5248,-1.5208,-1.5167,-1.512,-1.4977,-1.4882,-1.4889,-1.4828,-1.4679,-1.455,-1.4421,-1.4407,-1.6978,-1.6978,-1.6978,-1.6978,-1.6978,-1.6978,-1.6978,-1.6978,-1.6978,-1.6978,-1.6978,-1.6978,-1.6978,-1.7019,-1.7121,-1.7195,-1.7216,-1.7351,-1.746,-1.7446,-1.7473,-1.7446,-1.7405,-1.7351,-1.7256,-1.7141,-1.7121,-1.7188,-1.7317,-1.727,-1.7467,-1.7582,-1.7541,-1.746,-1.7385,-1.7222,-1.7073,-1.7026,-1.6992,-1.6985,-1.6978,-1.6978,-1.6978,-1.6978,-1.7087,-1.7053,-1.7012,-1.7073,-1.7046,-1.7012,-1.6998,-1.7005,-1.7012,-1.7005,-1.7005,-1.7005,-1.7012,-1.7005,-1.6998,-1.6992,-1.6978,-1.6971,-1.691,-1.6822,-1.6628,-1.6608,-1.6554,-1.6564,-1.6537,-1.6564,-1.653,-1.6517,-1.6497,-1.6503,-1.6483,-1.6405,-1.6388,-1.6293,-1.6232,-1.6225,-1.6144,-1.6133,-1.6133,-1.6126,-1.6119,-1.6112,-1.6071,-1.6024,-1.59,-1.5852,-1.5818,-1.5784,-1.5778,-1.573,-1.5661,-1.5634,-1.56,-1.5614,-1.5621,-1.5566,-1.5574,-1.5506,-1.5458,-1.5418,-1.5343,-1.5323,-1.5269,-1.5181,-1.5092,-1.5011,-1.4936,-1.4835,-1.4719,-1.4566,-1.4559,-1.6951,-1.6924,-1.6958,-1.6978,-1.6978,-1.6978,-1.6978,-1.6978,-1.6978,-1.6978,-1.6978,-1.6978,-1.6978,-1.7026,-1.7182,-1.7263,-1.7331,-1.7473,-1.7609,-1.765,-1.7636,-1.7548,-1.7534,-1.748,-1.7412,-1.7297,-1.7277,-1.7338,-1.748,-1.7378,-1.7555,-1.7731,-1.7758,-1.7629,-1.7412,-1.7256,-1.7107,-1.7114,-1.7114,-1.7114,-1.7121,-1.7127,-1.7127,-1.7141,-1.7222,-1.7222,-1.7182,-1.7222,-1.7216,-1.7168,-1.7134,-1.7127,-1.7121,-1.7114,-1.7114,-1.7107,-1.7107,-1.7107,-1.71,-1.7019,-1.6992,-1.6978,-1.6978,-1.691,-1.6849,-1.6815,-1.6775,-1.6707,-1.6673,-1.6653,-1.6646,-1.6693,-1.6707,-1.672,-1.6581,-1.654,-1.6493,-1.6469,-1.6408,-1.6368,-1.6286,-1.6225,-1.6137,-1.6137,-1.6146,-1.6139,-1.6112,-1.6085,-1.6071,-1.5988,-1.5981,-1.6003,-1.5976,-1.5866,-1.5805,-1.5825,-1.5845,-1.5859,-1.5852,-1.5778,-1.5737,-1.5668,-1.5614,-1.5506,-1.5499,-1.5431,-1.5445,-1.5384,-1.5242,-1.5126,-1.4997,-1.4916,-1.4909,-1.4814,-1.4721,-1.6897,-1.673,-1.6917,-1.6978,-1.6978,-1.6978,-1.6978,-1.6978,-1.6978,-1.6978,-1.6978,-1.6978,-1.6992,-1.706,-1.727,-1.7385,-1.7473,-1.7738,-1.7874,-1.7861,-1.7785,-1.7751,-1.7697,-1.7629,-1.7507,-1.7399,-1.7372,-1.7433,-1.7568,-1.7521,-1.7704,-1.7861,-1.7881,-1.7751,-1.7582,-1.7433,-1.7405,-1.7399,-1.7378,-1.7365,-1.7358,-1.7344,-1.7338,-1.7344,-1.7392,-1.7392,-1.7351,-1.7385,-1.7385,-1.7338,-1.7331,-1.7331,-1.7338,-1.7344,-1.7351,-1.7358,-1.7365,-1.7378,-1.7372,-1.7127,-1.7019,-1.6985,-1.6978,-1.6958,-1.6965,-1.6958,-1.6944,-1.6856,-1.6897,-1.6917,-1.6944,-1.6944,-1.6917,-1.6876,-1.673,-1.6689,-1.6642,-1.656,-1.65,-1.6463,-1.6469,-1.6449,-1.6307,-1.6205,-1.6144,-1.616,-1.6139,-1.6133,-1.6139,-1.6126,-1.6112,-1.6092,-1.6058,-1.6037,-1.5947,-1.6008,-1.6042,-1.6056,-1.6015,-1.5927,-1.5886,-1.5866,-1.5791,-1.5641,-1.5649,-1.5628,-1.5628,-1.5566,-1.5445,-1.5269,-1.5126,-1.4997,-1.5011,-1.5011,-1.4957,-1.689,-1.6709,-1.6917,-1.6978,-1.6978,-1.6978,-1.6978,-1.6978,-1.6978,-1.6978,-1.6978,-1.6978,-1.7039,-1.7161,-1.7304,-1.7406,-1.7589,-1.7793,-1.7915,-1.7915,-1.7915,-1.784,-1.7792,-1.7758,-1.7704,-1.7554,-1.7521,-1.7534,-1.7588,-1.7609,-1.7738,-1.7826,-1.7908,-1.7785,-1.7588,-1.7453,-1.7419,-1.7412,-1.7412,-1.7412,-1.7419,-1.7433,-1.7439,-1.7446,-1.7528,-1.7534,-1.7412,-1.7528,-1.7534,-1.7473,-1.746,-1.7453,-1.7446,-1.7446,-1.7439,-1.7433,-1.7426,-1.7365,-1.7304,-1.7148,-1.708,-1.7026,-1.6978,-1.6978,-1.6978,-1.6978,-1.6978,-1.6978,-1.6978,-1.6978,-1.6971,-1.6971,-1.6951,-1.6958,-1.6904,-1.6904,-1.6863,-1.6696,-1.6601,-1.6551,-1.651,-1.6442,-1.6334,-1.6252,-1.6185,-1.6137,-1.6117,-1.6117,-1.6123,-1.6153,-1.6133,-1.6126,-1.6112,-1.6119,-1.6133,-1.6133,-1.6133,-1.6119,-1.6112,-1.6092,-1.6058,-1.603,-1.601,-1.5893,-1.5832,-1.5778,-1.5764,-1.5737,-1.5628,-1.5472,-1.5289,-1.516,-1.5167,-1.516,-1.512,-1.6809,-1.6642,-1.6836,-1.6931,-1.6971,-1.6978,-1.6978,-1.6978,-1.6978,-1.6978,-1.6978,-1.6978,-1.7019,-1.7141,-1.7277,-1.7372,-1.7521,-1.7717,-1.7902,-1.7902,-1.7915,-1.7908,-1.7908,-1.7915,-1.7799,-1.7738,-1.7717,-1.7731,-1.7738,-1.7724,-1.7779,-1.784,-1.7915,-1.7819,-1.7717,-1.7643,-1.7595,-1.7609,-1.7616,-1.7609,-1.7602,-1.7595,-1.7589,-1.7616,-1.7656,-1.7684,-1.7636,-1.7643,-1.7677,-1.7595,-1.7568,-1.7568,-1.7561,-1.7568,-1.7575,-1.7575,-1.7568,-1.7507,-1.7412,-1.7378,-1.7304,-1.7182,-1.706,-1.6985,-1.6978,-1.6978,-1.6978,-1.6978,-1.6978,-1.6978,-1.6978,-1.6978,-1.6978,-1.6978,-1.6978,-1.6971,-1.6951,-1.6836,-1.6709,-1.6653,-1.6578,-1.6483,-1.6368,-1.6293,-1.6225,-1.6185,-1.6144,-1.6178,-1.6205,-1.6185,-1.6171,-1.6164,-1.6151,-1.6151,-1.6173,-1.6133,-1.6133,-1.6133,-1.6153,-1.6173,-1.6126,-1.6085,-1.6112,-1.6133,-1.6037,-1.5969,-1.5893,-1.5845,-1.575,-1.5649,-1.5513,-1.5411,-1.535,-1.5316,-1.5296,-1.6601,-1.6558,-1.6635,-1.6842,-1.6965,-1.6978,-1.6978,-1.6978,-1.6978,-1.6985,-1.7044,-1.6992,-1.7026,-1.7053,-1.7161,-1.7324,-1.7487,-1.7629,-1.7751,-1.7895,-1.7915,-1.7915,-1.7915,-1.7915,-1.7895,-1.7908,-1.7895,-1.7812,-1.7908,-1.7881,-1.7895,-1.7915,-1.7915,-1.7895,-1.7874,-1.7861,-1.7785,-1.7827,-1.7827,-1.7772,-1.782,-1.7854,-1.7834,-1.7847,-1.7861,-1.7868,-1.7854,-1.7868,-1.7881,-1.7868,-1.7881,-1.7895,-1.7902,-1.7908,-1.7915,-1.7908,-1.7888,-1.7731,-1.7623,-1.7521,-1.7453,-1.7338,-1.7161,-1.7046,-1.7005,-1.7019,-1.7019,-1.6992,-1.6978,-1.6978,-1.6978,-1.6978,-1.6978,-1.6978,-1.6978,-1.6978,-1.6978,-1.6917,-1.6863,-1.6788,-1.6675,-1.6574,-1.6463,-1.6368,-1.6395,-1.6374,-1.6381,-1.6456,-1.6463,-1.6361,-1.6341,-1.6313,-1.6293,-1.6246,-1.6212,-1.6198,-1.6205,-1.6246,-1.6205,-1.6212,-1.6151,-1.6173,-1.6144,-1.6151,-1.6153,-1.6098,-1.6044,-1.5996,-1.5935,-1.5784,-1.5723,-1.5608,-1.5527,-1.5479,-1.5424,-1.6558,-1.6537,-1.6635,-1.6842,-1.6971,-1.6978,-1.6978,-1.6978,-1.6978,-1.7032,-1.7127,-1.7026,-1.7087,-1.729,-1.7338,-1.7439,-1.7575,-1.7724,-1.7806,-1.7908,-1.7915,-1.7915,-1.7915,-1.7915,-1.7915,-1.7915,-1.7915,-1.7915,-1.7915,-1.7915,-1.7915,-1.7915,-1.7915,-1.7915,-1.7915,-1.7915,-1.7915,-1.7915,-1.7915,-1.7915,-1.7915,-1.7915,-1.7915,-1.7915,-1.7915,-1.7915,-1.7915,-1.7915,-1.7915,-1.7915,-1.7915,-1.7915,-1.7915,-1.7915,-1.7915,-1.7915,-1.7902,-1.7792,-1.7629,-1.7595,-1.7548,-1.744,-1.7344,-1.7243,-1.7175,-1.7121,-1.7093,-1.7039,-1.7012,-1.7019,-1.7019,-1.7019,-1.7019,-1.7019,-1.7005,-1.6978,-1.6978,-1.6965,-1.6897,-1.6743,-1.6696,-1.6628,-1.6524,-1.6598,-1.6625,-1.6605,-1.6619,-1.6673,-1.6693,-1.6585,-1.6503,-1.6476,-1.6449,-1.6408,-1.6408,-1.6402,-1.6402,-1.6408,-1.6361,-1.6334,-1.6341,-1.6313,-1.6266,-1.6232,-1.6212,-1.6144,-1.6119,-1.6092,-1.6062,-1.6029,-1.5967,-1.5832,-1.5675,-1.5681,-1.5613,-1.6452,-1.6554,-1.6588,-1.6781,-1.6971,-1.7039,-1.7039,-1.6998,-1.7092,-1.7121,-1.7175,-1.7107,-1.7161,-1.7283,-1.7317,-1.7399,-1.7494,-1.7677,-1.7785,-1.7915,-1.7915,-1.7915,-1.7915,-1.7915,-1.7915,-1.7915,-1.7915,-1.7915,-1.7915,-1.7915,-1.7915,-1.7915,-1.7915,-1.7915,-1.7915,-1.7915,-1.7915,-1.7915,-1.7915,-1.7915,-1.7915,-1.7915,-1.7915,-1.7915,-1.7915,-1.7915,-1.7915,-1.7915,-1.7915,-1.7915,-1.7915,-1.7915,-1.7915,-1.7915,-1.7915,-1.7915,-1.7915,-1.7881,-1.7758,-1.7745,-1.7677,-1.7623,-1.7582,-1.7514,-1.7372,-1.727,-1.7182,-1.71,-1.708,-1.7073,-1.7066,-1.7066,-1.7066,-1.7073,-1.7026,-1.6985,-1.6978,-1.6978,-1.689,-1.6723,-1.6655,-1.6608,-1.6673,-1.6781,-1.6781,-1.6646,-1.6605,-1.6673,-1.6741,-1.6754,-1.668,-1.6625,-1.6605,-1.6585,-1.6585,-1.6564,-1.6537,-1.651,-1.6469,-1.6463,-1.6503,-1.6476,-1.6408,-1.6368,-1.6334,-1.6279,-1.6239,-1.6266,-1.6279,-1.6239,-1.6218,-1.6164,-1.6049,-1.5954,-1.5821,-1.6418,-1.6689,-1.6625,-1.6761,-1.6978,-1.7107,-1.7087,-1.7005,-1.7121,-1.7195,-1.7188,-1.7168,-1.7161,-1.7229,-1.7263,-1.7331,-1.7494,-1.7643,-1.7785,-1.7915,-1.7915,-1.7915,-1.7915,-1.7915,-1.7915,-1.7915,-1.7915,-1.7915,-1.7915,-1.7915,-1.7915,-1.7915,-1.7915,-1.7915,-1.7915,-1.7915,-1.7915,-1.7915,-1.7915,-1.7915,-1.7915,-1.7915,-1.7915,-1.7915,-1.7915,-1.7915,-1.7915,-1.7915,-1.7915,-1.7915,-1.7915,-1.7915,-1.7915,-1.7915,-1.7915,-1.7915,-1.7915,-1.7908,-1.7888,-1.7881,-1.7888,-1.7881,-1.7908,-1.7751,-1.7589,-1.7433,-1.7324,-1.7236,-1.7216,-1.7168,-1.7154,-1.7134,-1.7121,-1.708,-1.7019,-1.6985,-1.6978,-1.6971,-1.6931,-1.6836,-1.6788,-1.6741,-1.6741,-1.6829,-1.6856,-1.6673,-1.6659,-1.6734,-1.6775,-1.6856,-1.6829,-1.6768,-1.6761,-1.6734,-1.67,-1.6673,-1.6632,-1.6598,-1.6592,-1.6612,-1.668,-1.6625,-1.6486,-1.6476,-1.6422,-1.6463,-1.6456,-1.6442,-1.6429,-1.6429,-1.6429,-1.6483,-1.6395,-1.6239,-1.6121,-1.6381,-1.6716,-1.6951,-1.7019,-1.6985,-1.7019,-1.7019,-1.6992,-1.7127,-1.7188,-1.7175,-1.71,-1.71,-1.7195,-1.7304,-1.7385,-1.7453,-1.7663,-1.7806,-1.7908,-1.7915,-1.7915,-1.7915,-1.7915,-1.7915,-1.7915,-1.7915,-1.7915,-1.7915,-1.7915,-1.7915,-1.7915,-1.7915,-1.7915,-1.7915,-1.7915,-1.7915,-1.7915,-1.7915,-1.7915,-1.7915,-1.7915,-1.7915,-1.7915,-1.7915,-1.7915,-1.7915,-1.7915,-1.7915,-1.7915,-1.7915,-1.7915,-1.7915,-1.7915,-1.7915,-1.7915,-1.7915,-1.7915,-1.7915,-1.7915,-1.7915,-1.7915,-1.7915,-1.7902,-1.7765,-1.7623,-1.7507,-1.7419,-1.7344,-1.729,-1.7249,-1.7216,-1.7175,-1.71,-1.7005,-1.6992,-1.6978,-1.6971,-1.6958,-1.6924,-1.6876,-1.6856,-1.6842,-1.6849,-1.687,-1.6876,-1.6883,-1.691,-1.6897,-1.6937,-1.6931,-1.689,-1.691,-1.689,-1.6836,-1.6802,-1.6768,-1.6795,-1.6809,-1.6836,-1.6849,-1.6768,-1.6628,-1.6564,-1.651,-1.6578,-1.6598,-1.653,-1.6524,-1.6578,-1.6592,-1.6625,-1.6598,-1.6463,-1.6435,-1.6503,-1.6883,-1.7243,-1.727,-1.7093,-1.7073,-1.7073,-1.708,-1.7093,-1.71,-1.7107,-1.7087,-1.7121,-1.7209,-1.7351,-1.7419,-1.7473,-1.7731,-1.7881,-1.7915,-1.7915,-1.7915,-1.7915,-1.7915,-1.7915,-1.7915,-1.7915,-1.7915,-1.7915,-1.7915,-1.7915,-1.7915,-1.7915,-1.7915,-1.7915,-1.7915,-1.7915,-1.7915,-1.7915,-1.7915,-1.7915,-1.7915,-1.7915,-1.7915,-1.7915,-1.7915,-1.7915,-1.7915,-1.7915,-1.7915,-1.7915,-1.7915,-1.7915,-1.7915,-1.7915,-1.7915,-1.7915,-1.7915,-1.7915,-1.7915,-1.7915,-1.7915,-1.7915,-1.7902,-1.7846,-1.7717,-1.7656,-1.7575,-1.7473,-1.7419,-1.7433,-1.7399,-1.7331,-1.7256,-1.7087,-1.6985,-1.6978,-1.6971,-1.6971,-1.6958,-1.6931,-1.6931,-1.6917,-1.6917,-1.6937,-1.6937,-1.6971,-1.7024,-1.6978,-1.6978,-1.6978,-1.6978,-1.6978,-1.6978,-1.6931,-1.6917,-1.6924,-1.6958,-1.6978,-1.6951,-1.691,-1.6883,-1.6815,-1.6734,-1.67,-1.6754,-1.6748,-1.6686,-1.6714,-1.6788,-1.6775,-1.6754,-1.672,-1.6707,-1.6714,-1.6693,-1.7026,-1.7412,-1.7439,-1.7209,-1.7168,-1.7154,-1.7134,-1.7039,-1.6985,-1.7005,-1.7107,-1.7161,-1.7216,-1.7344,-1.7392,-1.7514,-1.7745,-1.7895,-1.7915,-1.7915,-1.7915,-1.7915,-1.7915,-1.7915,-1.7915,-1.7915,-1.7915,-1.7915,-1.7915,-1.7915,-1.7915,-1.7915,-1.7915,-1.7915,-1.7915,-1.7915,-1.7915,-1.7915,-1.7915,-1.7915,-1.7915,-1.7915,-1.7915,-1.7915,-1.7915,-1.7915,-1.7915,-1.7915,-1.7915,-1.7915,-1.7915,-1.7915,-1.7915,-1.7915,-1.7915,-1.7915,-1.7915,-1.7915,-1.7915,-1.7915,-1.7915,-1.7915,-1.7915,-1.7915,-1.7833,-1.7765,-1.7731,-1.7629,-1.7582,-1.7595,-1.7507,-1.7439,-1.7331,-1.7134,-1.6978,-1.6978,-1.6978,-1.6978,-1.6978,-1.6978,-1.6978,-1.6978,-1.6978,-1.6978,-1.6978,-1.6985,-1.6978,-1.6978,-1.6978,-1.6978,-1.6978,-1.6978,-1.6978,-1.6978,-1.6992,-1.6992,-1.6978,-1.6978,-1.6978,-1.6971,-1.6937,-1.6924,-1.6937,-1.6931,-1.6917,-1.6917,-1.6883,-1.6931,-1.6958,-1.6965,-1.6937,-1.6951,-1.6951,-1.6998,-1.67,-1.6998,-1.7202,-1.7243,-1.7175,-1.7073,-1.7019,-1.7019,-1.6998,-1.6978,-1.6985,-1.6998,-1.7026,-1.7092,-1.7311,-1.7419,-1.7473,-1.7724,-1.7895,-1.7915,-1.7915,-1.7915,-1.7915,-1.7915,-1.7915,-1.7915,-1.7915,-1.7915,-1.7915,-1.7915,-1.7915,-1.7915,-1.7915,-1.7915,-1.7915,-1.7915,-1.7915,-1.7915,-1.7915,-1.7915,-1.7915,-1.7915,-1.7915,-1.7915,-1.7915,-1.7915,-1.7915,-1.7915,-1.7915,-1.7915,-1.7915,-1.7915,-1.7915,-1.7915,-1.7915,-1.7915,-1.7915,-1.7915,-1.7915,-1.7915,-1.7915,-1.7915,-1.7915,-1.7915,-1.7915,-1.7915,-1.7874,-1.7874,-1.7779,-1.7731,-1.7663,-1.7507,-1.7405,-1.7256,-1.708,-1.7012,-1.6978,-1.6978,-1.6978,-1.6978,-1.6978,-1.6978,-1.6978,-1.6985,-1.7044,-1.6998,-1.7012,-1.7019,-1.7053,-1.7026,-1.6998,-1.6998,-1.7005,-1.6978,-1.6985,-1.7012,-1.7012,-1.6992,-1.6985,-1.6998,-1.6998,-1.6978,-1.6985,-1.7019,-1.7019,-1.6998,-1.7012,-1.7073,-1.7039,-1.706,-1.7121,-1.7134,-1.7148,-1.7161,-1.7182]},{"header":{"parameterUnit":"m.s-1","parameterCategory":1,"la1":31.0,"la2":29.5877,"lo1":-88.7671,"lo2":-86.6584,"dy":0.0162,"dx":0.0185,"nx":115,"ny":88,"refTime":"2026-03-27T00:00:00:Z","depth":0,"parameterNumber":3,"parameterNumberName":"V-component_of_WINDS"},"data":[0.0,0.0,0.0,0.0,0.0,0.0,0.0,0.0,0.0,0.0,0.0,0.0,0.0,0.0,0.0,0.0,0.0,0.0,0.0,0.0,0.0,0.0,0.0,0.0,0.0,0.0,0.0,0.0,0.0,0.0,0.0,0.0,0.0,0.0,0.0,0.0,0.0,0.0,0.0,0.0,0.0,0.0,0.0,0.0,0.0,0.0,0.0,0.0,0.0,0.0,0.0,0.0,0.0,0.0,0.0,0.0,0.0,0.0,0.0,0.0,0.0,0.0,0.0,0.0,0.0,0.0,0.0,0.0,0.0,0.0,0.0,0.0,0.0,0.0,0.0,0.0,0.0,0.0,0.0,0.0,0.0,0.0,0.0,0.0,0.0,0.0,0.0,0.0,0.0,0.0,0.0,0.0,0.0,0.0,0.0,0.0,0.0,0.0,0.0,0.0,0.0,0.0,0.0,0.0,0.0,0.0,0.0,0.0,0.0,0.0,0.0,0.0,0.0,0.0,0.0,0.0,0.0,0.0,0.0,0.0,0.0,0.0,0.0,0.0,0.0,0.0,0.0,0.0,0.0,0.0,0.0,0.0,0.0,0.0,0.0,0.0,0.0,0.0,0.0,0.0,0.0,0.0,0.0,0.0,0.0,0.0,0.0,0.0,0.0,0.0,0.0,0.0,0.0,0.0,0.0,0.0,0.0,0.0,0.0,0.0,0.0,0.0,0.0,0.0,0.0,0.0,0.0,0.0,0.0,0.0,0.0,0.0,0.0,0.0,0.0,0.0,0.0,0.0,0.0,0.0,0.0,0.0,0.0,0.0,0.0,0.0,0.0,0.0,0.0,0.0,0.0,0.0,0.0,0.0,0.0,0.0,0.0,0.0,0.0,0.0,0.0,0.0,0.0,0.0,0.0,0.0,0.0,0.0,0.0,0.0,0.0,0.0,0.0,0.0,0.0,0.0,0.0,0.0,0.0,0.0,0.0,0.0,0.0,0.0,0.0,0.0,0.0,0.0,0.0,0.0,0.0,0.0,0.0,0.0,0.0,0.0,0.0,0.0,0.0,0.0,0.0,0.0,0.0,0.0,0.0,0.0,0.0,0.0,0.0,0.0,0.0,0.0,0.0,0.0,0.0,0.0,0.0,0.0,0.0,0.0,0.0,0.0,0.0,0.0,0.0,0.0,0.0,0.0,0.0,0.0,0.0,0.0,0.0,0.0,0.0,0.0,0.0,0.0,0.0,0.0,0.0,0.0,0.0,0.0,0.0,0.0,0.0,0.0,0.0,0.0,0.0,0.0,0.0,0.0,0.0,0.0,0.0,0.0,0.0,0.0,0.0,0.0,0.0,0.0,0.0,0.0,0.0,0.0,0.0,0.0,0.0,0.0,0.0,0.0,0.0,0.0,0.0,0.0,0.0,0.0,0.0,0.0,0.0,0.0,0.0,0.0,0.0,0.0,0.0,0.0,0.0,0.0,0.0,0.0,0.0,0.0,0.0,0.0,0.0,0.0,0.0,0.0,0.0,0.0,0.0,0.0,0.0,0.0,0.0,0.0,0.0,0.0,0.0,0.0,0.0,0.0,0.0,0.0,0.0,0.0,0.0,0.0,0.0,0.0,0.0,0.0,0.0,0.0,0.0,0.0,0.0,0.0,0.0,0.0,0.0,0.0,0.0,0.0,0.0,0.0,0.0,0.0,0.0,0.0,0.0,0.0,0.0,0.0,0.0,0.0,0.0,0.0,0.0,0.0,0.0,0.0,0.0,0.0,0.0,0.0,0.0,0.0,0.0,0.0,0.0,0.0,0.0,0.0,0.0,0.0,0.0,0.0,0.0,0.0,0.0,0.0,0.0,0.0,0.0,0.0,0.0,0.0,0.0,0.0,0.0,0.0,0.0,0.0,0.0,0.0,0.0,0.0,0.0,0.0,0.0,0.0,0.0,0.0,0.0,0.0,0.0,0.0,0.0,0.0,0.0,0.0,0.0,0.0,0.0,0.0,0.0,0.0,0.0,0.0,0.0,0.0,0.0,0.0,0.0,0.0,0.0,0.0,0.0,0.0,0.0,0.0,0.0,0.0,0.0,0.0,0.0,0.0,0.0,0.0,0.0,0.0,0.0,0.0,0.0,0.0,0.0,0.0,0.0,0.0,0.0,0.0,0.0,0.0,0.0,0.0,0.0,0.0,0.0,0.0,0.0,0.0,0.0,0.0,0.0,0.0,0.0,0.0,0.0,0.0,0.0,0.0,0.0,0.0,0.0,0.0,0.0,0.0,0.0,0.0,0.0,0.0,0.0,0.0,0.0,0.0,0.0,0.0,0.0,0.0,0.0,0.0,0.0,0.0,0.0,0.0,0.0,0.0,0.0,0.0,0.0,0.0,0.0,0.0,0.0,0.0,0.0,0.0,0.0,0.0,0.0,0.0,0.0,0.0,0.0,0.0,0.0,0.0,0.0,0.0,0.0,0.0,0.0,0.0,0.0,0.0,0.0,0.0,0.0,0.0,0.0,0.0,0.0,0.0,0.0,0.0,0.0,0.0,0.0,0.0,0.0,0.0,0.0,0.0,0.0,0.0,0.0,0.0,0.0,0.0,0.0,0.0,0.0,0.0,0.0,0.0,0.0,0.0,0.0,0.0,0.0,0.0,0.0,0.0,0.0,0.0,0.0,0.0,0.0,0.0,0.0,0.0,0.0,0.0,0.0,0.0,0.0,0.0,0.0,0.0,0.0,0.0,0.0,0.0,0.0,0.0,0.0,0.0,0.0,0.0,0.0,0.0,0.0,0.0,0.0,0.0,0.0,0.0,0.0,0.0,0.0,0.0,0.0,0.0,0.0,0.0,0.0,0.0,0.0,0.0,0.0,0.0,0.0,0.0,0.0,0.0,0.0,0.0,0.0,0.0,0.0,0.0,0.0,0.0,0.0,0.0,0.0,0.0,0.0,0.0,0.0,0.0,0.0,0.0,0.0,0.0,0.0,0.0,0.0,0.0,0.0,0.0,0.0,0.0,0.0,0.0,0.0,0.0,0.0,0.0,0.0,0.0,0.0,0.0,0.0,0.0,0.0,0.0,0.0,0.0,0.0,0.0,0.0,0.0,0.0,0.0,0.0,0.0,0.0,0.0,0.0,0.0,0.0,0.0,0.0,0.0,0.0,0.0,0.0,0.0,0.0,0.0,0.0,0.0,0.0,0.0,0.0,0.0,0.0,0.0,0.0,0.0,0.0,0.0,0.0,0.0,0.0,0.0,0.0,0.0,0.0,0.0,0.0,0.0,0.0,0.0,0.0,0.0,0.0,0.0,0.0,0.0,0.0,0.0,0.0,0.0,0.0,0.0,0.0,0.0,0.0,0.0,0.0,0.0,0.0,0.0,0.0,0.0,0.0,0.0,0.0,0.0,0.0,0.0,0.0,0.0,0.0,0.0,0.0,0.0,0.0,0.0,0.0,0.0,0.0,0.0,0.0,0.0,0.0,0.0,0.0,0.0,0.0,0.0,0.0,0.0,0.0,0.0,0.0,0.0,0.0,0.0,0.0,0.0,0.0,0.0,0.0,0.0,0.0,0.0,0.0,0.0,0.0,0.0,0.0,0.0,0.0,0.0,0.0,0.0,0.0,0.0,0.0,0.0,0.0,0.0,0.0,0.0,0.0,0.0,0.0,0.0,0.0,0.0,0.0,0.0,0.0,0.0,0.0,0.0,0.0,0.0,0.0,0.0,0.0,0.0,0.0,0.0,0.0,0.0,0.0,0.0,0.0,0.0,0.0,0.0,0.0,0.0,0.0,0.0,0.0,0.0,0.0,0.0,0.0,0.0,0.0,0.0,0.0,0.0,0.0,0.0,0.0,0.0,0.0,0.0,0.0,0.0,0.0,0.0,0.0,0.0,0.0,0.0,0.0,0.0,0.0,0.0,0.0,0.0,0.0,0.0,0.0,0.0,0.0,0.0,0.0,0.0,0.0,0.0,0.0,0.0,0.0,0.0,0.0,0.0,0.0,0.0,0.0,0.0,0.0,0.0,0.0,0.0,0.0,0.0,0.0,0.0,0.0,0.0,0.0,0.0,0.0,0.0,0.0,0.0,0.0,0.0,0.0,0.0,0.0,0.0,0.0,0.0,0.0,0.0,0.0,0.0,0.0,0.0,0.0,0.0,0.0,0.0,0.0,0.0,0.0,0.0,0.0,0.0,0.0,0.0,0.0,0.0,0.0,0.0,0.0,0.0,0.0,0.0,0.0,0.0,0.0,0.0,0.0,0.0,0.0,0.0,0.0,0.0,0.0,0.0,3.7688,0.0,0.0,0.0,0.0,0.0,0.0,0.0,0.0,0.0,0.0,0.0,0.0,0.0,0.0,0.0,0.0,0.0,0.0,0.0,0.0,0.0,0.0,0.0,0.0,0.0,0.0,0.0,0.0,0.0,0.0,0.0,0.0,0.0,0.0,0.0,0.0,0.0,0.0,0.0,0.0,0.0,0.0,0.0,0.0,0.0,0.0,0.0,0.0,0.0,0.0,0.0,0.0,0.0,0.0,0.0,0.0,0.0,0.0,0.0,0.0,0.0,0.0,0.0,0.0,0.0,0.0,0.0,0.0,0.0,0.0,0.0,0.0,0.0,0.0,0.0,0.0,0.0,0.0,0.0,0.0,0.0,0.0,0.0,0.0,0.0,0.0,0.0,0.0,0.0,0.0,0.0,0.0,0.0,0.0,0.0,0.0,0.0,0.0,0.0,0.0,0.0,0.0,0.0,0.0,0.0,0.0,0.0,0.0,0.0,0.0,3.9037,3.9935,3.9683,3.8948,3.7752,0.0,0.0,0.0,0.0,0.0,0.0,0.0,0.0,0.0,0.0,0.0,0.0,0.0,0.0,0.0,0.0,0.0,0.0,0.0,0.0,0.0,0.0,0.0,0.0,0.0,0.0,0.0,0.0,0.0,0.0,0.0,0.0,0.0,0.0,0.0,0.0,0.0,0.0,0.0,0.0,0.0,0.0,0.0,0.0,0.0,0.0,0.0,0.0,0.0,0.0,0.0,0.0,0.0,0.0,0.0,0.0,0.0,0.0,0.0,0.0,0.0,0.0,0.0,0.0,0.0,0.0,0.0,0.0,0.0,0.0,0.0,0.0,0.0,0.0,0.0,0.0,0.0,0.0,0.0,0.0,0.0,0.0,0.0,0.0,0.0,0.0,0.0,0.0,0.0,0.0,0.0,0.0,0.0,0.0,0.0,0.0,0.0,0.0,0.0,0.0,0.0,0.0,0.0,0.0,0.0,0.0,0.0,0.0,0.0,0.0,0.0,0.0,3.9841,3.8857,3.7437,0.0,0.0,0.0,0.0,0.0,0.0,0.0,0.0,0.0,0.0,0.0,0.0,0.0,0.0,0.0,0.0,0.0,0.0,0.0,0.0,0.0,0.0,0.0,0.0,0.0,0.0,0.0,0.0,0.0,0.0,0.0,0.0,0.0,0.0,0.0,0.0,0.0,0.0,0.0,0.0,0.0,0.0,0.0,0.0,0.0,0.0,0.0,0.0,0.0,0.0,0.0,0.0,0.0,0.0,0.0,0.0,0.0,0.0,0.0,0.0,0.0,0.0,0.0,0.0,0.0,0.0,0.0,0.0,0.0,0.0,0.0,0.0,0.0,0.0,0.0,0.0,0.0,0.0,0.0,0.0,0.0,0.0,0.0,0.0,0.0,0.0,0.0,0.0,0.0,0.0,0.0,0.0,0.0,0.0,0.0,0.0,0.0,0.0,0.0,0.0,0.0,0.0,0.0,0.0,0.0,0.0,0.0,0.0,0.0,0.0,4.0324,4.1676,4.0543,0.0,3.669,0.0,0.0,0.0,0.0,0.0,0.0,0.0,0.0,0.0,0.0,0.0,0.0,0.0,0.0,0.0,0.0,0.0,0.0,0.0,0.0,0.0,0.0,0.0,0.0,0.0,0.0,0.0,0.0,0.0,0.0,0.0,0.0,0.0,0.0,0.0,0.0,0.0,0.0,0.0,0.0,0.0,0.0,0.0,0.0,0.0,0.0,0.0,0.0,0.0,0.0,0.0,0.0,0.0,0.0,0.0,0.0,0.0,0.0,0.0,0.0,0.0,0.0,0.0,0.0,0.0,0.0,0.0,0.0,0.0,0.0,0.0,0.0,0.0,0.0,0.0,0.0,0.0,0.0,0.0,0.0,0.0,0.0,0.0,0.0,0.0,0.0,0.0,0.0,0.0,0.0,0.0,0.0,0.0,0.0,0.0,0.0,0.0,0.0,0.0,0.0,0.0,0.0,0.0,0.0,0.0,0.0,0.0,0.0,0.0,0.0,4.0737,4.1703,3.9857,3.833,0.0,0.0,0.0,0.0,0.0,0.0,0.0,0.0,0.0,0.0,0.0,0.0,0.0,0.0,0.0,0.0,0.0,0.0,0.0,0.0,0.0,0.0,0.0,0.0,0.0,0.0,0.0,0.0,0.0,0.0,0.0,0.0,0.0,0.0,0.0,0.0,0.0,0.0,0.0,0.0,0.0,0.0,0.0,0.0,0.0,0.0,0.0,0.0,0.0,0.0,0.0,0.0,0.0,0.0,0.0,0.0,0.0,0.0,0.0,0.0,0.0,0.0,0.0,0.0,0.0,0.0,0.0,0.0,0.0,0.0,0.0,0.0,0.0,0.0,0.0,0.0,0.0,0.0,0.0,0.0,0.0,0.0,0.0,0.0,0.0,0.0,0.0,0.0,0.0,0.0,0.0,0.0,0.0,0.0,0.0,0.0,0.0,0.0,0.0,0.0,0.0,0.0,0.0,0.0,0.0,0.0,0.0,0.0,0.0,0.0,4.0148,4.0751,4.1022,3.9359,3.8078,3.7352,0.0,0.0,0.0,0.0,0.0,0.0,0.0,0.0,0.0,0.0,0.0,0.0,0.0,0.0,0.0,0.0,0.0,0.0,0.0,0.0,0.0,0.0,0.0,0.0,0.0,0.0,0.0,0.0,0.0,0.0,0.0,0.0,0.0,0.0,0.0,0.0,0.0,0.0,0.0,0.0,0.0,0.0,0.0,0.0,0.0,0.0,0.0,0.0,0.0,0.0,0.0,0.0,0.0,0.0,0.0,0.0,0.0,0.0,0.0,0.0,0.0,0.0,0.0,0.0,0.0,0.0,0.0,0.0,0.0,0.0,0.0,0.0,0.0,0.0,0.0,0.0,0.0,0.0,0.0,0.0,0.0,0.0,0.0,0.0,0.0,0.0,0.0,0.0,0.0,0.0,0.0,0.0,0.0,0.0,0.0,0.0,0.0,0.0,0.0,0.0,0.0,0.0,0.0,0.0,0.0,0.0,0.0,0.0,0.0,4.0561,4.0357,3.9974,3.9403,3.8312,0.0,0.0,0.0,0.0,0.0,0.0,0.0,0.0,0.0,0.0,0.0,0.0,0.0,0.0,0.0,0.0,0.0,0.0,0.0,0.0,0.0,0.0,0.0,0.0,0.0,0.0,0.0,0.0,0.0,0.0,0.0,0.0,0.0,0.0,0.0,0.0,0.0,0.0,0.0,0.0,0.0,0.0,0.0,0.0,0.0,0.0,0.0,0.0,0.0,0.0,0.0,0.0,0.0,0.0,0.0,0.0,0.0,0.0,0.0,0.0,0.0,0.0,0.0,0.0,0.0,0.0,0.0,0.0,0.0,0.0,0.0,0.0,0.0,0.0,0.0,0.0,0.0,0.0,0.0,0.0,0.0,0.0,0.0,0.0,0.0,0.0,0.0,0.0,0.0,0.0,0.0,0.0,0.0,0.0,0.0,0.0,0.0,0.0,0.0,0.0,0.0,0.0,0.0,0.0,0.0,0.0,0.0,0.0,0.0,3.9882,4.0356,4.0912,4.1465,3.9134,3.7894,0.0,0.0,0.0,0.0,0.0,0.0,0.0,0.0,0.0,0.0,0.0,0.0,0.0,0.0,0.0,0.0,0.0,0.0,0.0,0.0,0.0,0.0,0.0,0.0,0.0,0.0,0.0,0.0,0.0,0.0,0.0,0.0,0.0,0.0,0.0,0.0,0.0,0.0,0.0,0.0,0.0,0.0,0.0,0.0,0.0,0.0,0.0,0.0,0.0,0.0,0.0,0.0,0.0,0.0,0.0,0.0,0.0,0.0,0.0,0.0,0.0,0.0,0.0,0.0,0.0,0.0,0.0,0.0,0.0,0.0,0.0,0.0,0.0,0.0,0.0,0.0,0.0,0.0,0.0,0.0,0.0,0.0,0.0,0.0,0.0,0.0,0.0,0.0,0.0,0.0,0.0,0.0,0.0,0.0,0.0,0.0,0.0,0.0,0.0,0.0,0.0,0.0,0.0,0.0,0.0,0.0,0.0,0.0,0.0,4.0023,0.0,4.126,0.0,3.9277,3.8019,0.0,0.0,0.0,0.0,0.0,0.0,0.0,0.0,0.0,0.0,0.0,0.0,0.0,0.0,0.0,0.0,0.0,0.0,0.0,0.0,0.0,0.0,0.0,0.0,0.0,0.0,0.0,0.0,0.0,0.0,0.0,0.0,0.0,0.0,0.0,0.0,0.0,0.0,0.0,0.0,0.0,0.0,0.0,0.0,0.0,0.0,0.0,0.0,0.0,0.0,0.0,0.0,0.0,0.0,0.0,0.0,0.0,0.0,0.0,0.0,0.0,0.0,0.0,0.0,0.0,0.0,0.0,0.0,0.0,0.0,0.0,0.0,0.0,0.0,0.0,0.0,0.0,0.0,0.0,0.0,0.0,0.0,0.0,0.0,0.0,0.0,0.0,0.0,0.0,0.0,0.0,0.0,0.0,0.0,0.0,0.0,0.0,0.0,0.0,0.0,0.0,0.0,0.0,0.0,0.0,0.0,0.0,0.0,3.9692,4.1005,4.1411,4.1383,4.0753,3.992,3.8683,0.0,0.0,0.0,0.0,0.0,0.0,0.0,0.0,0.0,0.0,0.0,0.0,0.0,0.0,0.0,0.0,0.0,0.0,0.0,0.0,0.0,0.0,0.0,0.0,0.0,0.0,0.0,0.0,0.0,0.0,0.0,0.0,0.0,0.0,0.0,0.0,0.0,0.0,0.0,0.0,0.0,0.0,0.0,0.0,0.0,0.0,0.0,0.0,0.0,0.0,0.0,0.0,0.0,0.0,0.0,0.0,0.0,0.0,0.0,0.0,0.0,0.0,0.0,0.0,0.0,0.0,0.0,0.0,0.0,0.0,0.0,0.0,0.0,0.0,0.0,0.0,0.0,0.0,0.0,0.0,0.0,0.0,0.0,0.0,0.0,0.0,0.0,0.0,0.0,0.0,0.0,0.0,0.0,0.0,0.0,0.0,0.0,0.0,0.0,0.0,0.0,0.0,0.0,0.0,0.0,0.0,0.0,0.0,0.0,4.0701,4.1292,4.2091,4.2956,4.0442,3.9299,0.0,0.0,0.0,0.0,0.0,0.0,0.0,0.0,0.0,0.0,0.0,0.0,0.0,0.0,0.0,0.0,0.0,0.0,0.0,0.0,0.0,0.0,0.0,0.0,0.0,0.0,0.0,0.0,0.0,0.0,0.0,0.0,0.0,0.0,0.0,0.0,0.0,0.0,0.0,0.0,0.0,0.0,0.0,0.0,0.0,0.0,0.0,0.0,0.0,0.0,0.0,0.0,0.0,0.0,0.0,0.0,0.0,0.0,0.0,0.0,0.0,0.0,0.0,0.0,0.0,0.0,0.0,0.0,0.0,0.0,0.0,0.0,0.0,0.0,0.0,0.0,0.0,0.0,0.0,0.0,0.0,0.0,0.0,0.0,0.0,0.0,0.0,0.0,0.0,0.0,0.0,0.0,0.0,0.0,0.0,0.0,0.0,0.0,0.0,0.0,0.0,0.0,0.0,0.0,0.0,0.0,0.0,0.0,0.0,4.1698,4.24,4.3146,4.3971,4.1475,4.0236,4.0469,0.0,0.0,0.0,0.0,0.0,0.0,0.0,0.0,0.0,0.0,0.0,0.0,0.0,0.0,0.0,0.0,0.0,0.0,0.0,0.0,0.0,0.0,0.0,0.0,0.0,0.0,0.0,0.0,0.0,0.0,0.0,0.0,0.0,0.0,0.0,0.0,0.0,0.0,0.0,0.0,0.0,0.0,0.0,0.0,0.0,0.0,0.0,0.0,0.0,0.0,0.0,0.0,0.0,0.0,0.0,0.0,0.0,0.0,0.0,0.0,0.0,0.0,0.0,0.0,0.0,0.0,0.0,0.0,0.0,0.0,0.0,0.0,0.0,0.0,0.0,0.0,0.0,0.0,0.0,0.0,0.0,0.0,0.0,0.0,0.0,0.0,0.0,0.0,0.0,0.0,0.0,0.0,0.0,0.0,0.0,0.0,0.0,0.0,0.0,0.0,0.0,0.0,0.0,0.0,0.0,0.0,0.0,0.0,4.3679,4.4456,4.4556,4.383,4.2866,4.1479,0.0,0.0,0.0,0.0,0.0,0.0,0.0,0.0,0.0,0.0,0.0,0.0,0.0,0.0,0.0,0.0,0.0,0.0,0.0,0.0,0.0,0.0,0.0,0.0,0.0,0.0,0.0,0.0,0.0,0.0,0.0,0.0,0.0,0.0,0.0,0.0,0.0,0.0,0.0,0.0,0.0,0.0,0.0,0.0,0.0,0.0,0.0,0.0,0.0,0.0,0.0,0.0,0.0,0.0,0.0,0.0,0.0,0.0,0.0,0.0,0.0,0.0,0.0,0.0,0.0,0.0,0.0,0.0,0.0,0.0,0.0,0.0,0.0,0.0,0.0,0.0,0.0,0.0,0.0,0.0,0.0,0.0,0.0,0.0,0.0,0.0,0.0,0.0,0.0,0.0,0.0,0.0,0.0,0.0,0.0,0.0,0.0,0.0,0.0,0.0,0.0,0.0,0.0,0.0,0.0,0.0,0.0,0.0,0.0,4.4456,4.6179,4.6775,4.6046,4.4245,4.3021,0.0,0.0,0.0,0.0,0.0,0.0,0.0,0.0,0.0,0.0,0.0,0.0,0.0,0.0,0.0,0.0,0.0,0.0,0.0,0.0,0.0,0.0,0.0,0.0,0.0,0.0,0.0,0.0,0.0,0.0,0.0,0.0,0.0,0.0,0.0,0.0,0.0,0.0,0.0,0.0,0.0,0.0,0.0,0.0,0.0,0.0,0.0,0.0,0.0,0.0,0.0,0.0,0.0,0.0,0.0,0.0,0.0,0.0,0.0,0.0,0.0,0.0,0.0,0.0,0.0,0.0,0.0,0.0,0.0,0.0,0.0,0.0,0.0,0.0,0.0,0.0,0.0,0.0,0.0,0.0,0.0,0.0,0.0,0.0,0.0,0.0,0.0,0.0,0.0,0.0,0.0,0.0,0.0,0.0,0.0,0.0,0.0,0.0,0.0,0.0,0.0,0.0,0.0,0.0,0.0,0.0,0.0,0.0,4.4721,4.5167,4.7007,4.7918,4.7835,4.5997,4.4408,0.0,0.0,0.0,0.0,0.0,0.0,0.0,0.0,0.0,0.0,0.0,0.0,0.0,0.0,0.0,0.0,0.0,0.0,0.0,0.0,0.0,0.0,0.0,0.0,0.0,0.0,0.0,0.0,0.0,0.0,0.0,0.0,0.0,0.0,0.0,0.0,0.0,0.0,0.0,0.0,0.0,0.0,0.0,0.0,0.0,0.0,0.0,0.0,0.0,0.0,0.0,0.0,0.0,0.0,0.0,0.0,0.0,0.0,0.0,0.0,0.0,0.0,0.0,0.0,0.0,0.0,0.0,0.0,0.0,0.0,0.0,0.0,0.0,0.0,0.0,0.0,0.0,0.0,0.0,0.0,0.0,0.0,0.0,0.0,0.0,0.0,0.0,0.0,0.0,0.0,0.0,0.0,0.0,0.0,0.0,0.0,0.0,0.0,0.0,0.0,0.0,0.0,0.0,0.0,0.0,0.0,0.0,0.0,4.583,4.5914,4.7371,4.8415,4.9011,4.7603,4.5549,0.0,0.0,0.0,0.0,0.0,0.0,0.0,0.0,0.0,0.0,0.0,0.0,0.0,0.0,0.0,0.0,0.0,0.0,0.0,0.0,0.0,0.0,0.0,0.0,0.0,0.0,0.0,0.0,0.0,0.0,0.0,0.0,0.0,0.0,0.0,0.0,0.0,0.0,0.0,0.0,0.0,0.0,0.0,0.0,0.0,0.0,0.0,0.0,0.0,0.0,0.0,0.0,0.0,0.0,0.0,0.0,0.0,0.0,0.0,0.0,0.0,0.0,0.0,0.0,0.0,0.0,0.0,0.0,0.0,0.0,0.0,0.0,0.0,0.0,0.0,0.0,0.0,0.0,0.0,0.0,0.0,0.0,0.0,0.0,0.0,0.0,0.0,0.0,0.0,0.0,0.0,0.0,0.0,0.0,0.0,0.0,0.0,0.0,0.0,0.0,0.0,0.0,0.0,0.0,0.0,0.0,0.0,0.0,4.6079,4.6676,4.81,4.8945,4.9077,4.7106,4.5748,0.0,0.0,0.0,0.0,0.0,0.0,0.0,0.0,0.0,0.0,0.0,0.0,0.0,0.0,0.0,0.0,0.0,0.0,0.0,0.0,0.0,0.0,0.0,0.0,0.0,0.0,0.0,0.0,0.0,0.0,0.0,0.0,0.0,0.0,0.0,0.0,0.0,0.0,0.0,0.0,0.0,0.0,0.0,0.0,0.0,0.0,0.0,0.0,4.2773,0.0,0.0,0.0,0.0,0.0,0.0,0.0,0.0,0.0,0.0,0.0,0.0,0.0,0.0,0.0,0.0,0.0,0.0,0.0,0.0,0.0,0.0,0.0,0.0,0.0,0.0,0.0,0.0,0.0,0.0,0.0,0.0,0.0,0.0,0.0,0.0,0.0,0.0,0.0,0.0,0.0,0.0,0.0,0.0,0.0,0.0,0.0,0.0,0.0,0.0,0.0,0.0,0.0,0.0,0.0,0.0,0.0,0.0,0.0,4.639,4.7421,4.8531,4.9293,4.9642,4.8264,4.6953,0.0,0.0,0.0,0.0,0.0,0.0,0.0,0.0,0.0,0.0,0.0,0.0,0.0,0.0,0.0,0.0,0.0,0.0,0.0,0.0,0.0,0.0,0.0,0.0,0.0,0.0,0.0,0.0,0.0,0.0,0.0,0.0,0.0,0.0,0.0,0.0,0.0,0.0,0.0,0.0,0.0,0.0,0.0,0.0,0.0,0.0,0.0,0.0,0.0,0.0,0.0,0.0,0.0,0.0,0.0,0.0,0.0,0.0,0.0,0.0,0.0,0.0,0.0,0.0,0.0,0.0,0.0,0.0,0.0,0.0,0.0,0.0,0.0,0.0,0.0,0.0,0.0,0.0,0.0,0.0,0.0,0.0,0.0,0.0,0.0,0.0,0.0,0.0,0.0,0.0,0.0,0.0,0.0,0.0,0.0,0.0,0.0,0.0,0.0,0.0,0.0,0.0,0.0,0.0,0.0,0.0,0.0,4.5666,4.6731,4.8049,4.8796,4.9576,5.0393,4.9792,4.8427,4.6273,0.0,0.0,0.0,0.0,0.0,0.0,0.0,0.0,0.0,0.0,0.0,0.0,0.0,0.0,0.0,0.0,0.0,0.0,0.0,0.0,0.0,0.0,0.0,0.0,0.0,0.0,0.0,0.0,0.0,0.0,0.0,0.0,0.0,0.0,0.0,0.0,0.0,0.0,4.3267,4.4576,0.0,0.0,0.0,0.0,0.0,0.0,0.0,0.0,4.4249,0.0,0.0,0.0,0.0,0.0,0.0,0.0,0.0,0.0,0.0,0.0,0.0,0.0,0.0,0.0,0.0,0.0,0.0,0.0,0.0,0.0,0.0,0.0,0.0,0.0,0.0,0.0,0.0,0.0,0.0,0.0,0.0,0.0,0.0,0.0,0.0,0.0,0.0,0.0,0.0,0.0,0.0,0.0,0.0,0.0,0.0,0.0,0.0,0.0,0.0,0.0,0.0,0.0,0.0,0.0,0.0,4.603,4.6195,4.6964,4.8386,4.9139,4.9875,5.0593,4.9941,4.9105,4.8018,0.0,0.0,0.0,0.0,0.0,0.0,0.0,0.0,0.0,0.0,0.0,0.0,0.0,0.0,0.0,0.0,0.0,0.0,0.0,0.0,0.0,0.0,0.0,0.0,0.0,0.0,0.0,0.0,0.0,0.0,0.0,0.0,0.0,0.0,0.0,0.0,0.0,0.0,0.0,4.6647,4.7116,0.0,0.0,0.0,0.0,0.0,0.0,0.0,0.0,4.5361,0.0,0.0,0.0,0.0,0.0,0.0,0.0,0.0,0.0,0.0,0.0,0.0,0.0,0.0,0.0,0.0,0.0,0.0,0.0,0.0,0.0,0.0,0.0,0.0,0.0,0.0,0.0,0.0,0.0,0.0,0.0,0.0,0.0,0.0,0.0,0.0,0.0,0.0,0.0,0.0,0.0,0.0,0.0,0.0,0.0,0.0,0.0,0.0,0.0,0.0,0.0,0.0,0.0,0.0,0.0,4.6825,4.7337,4.8075,4.9035,4.9421,5.0006,5.0792,5.0121,4.9382,0.0,0.0,0.0,0.0,0.0,0.0,0.0,0.0,0.0,0.0,0.0,0.0,0.0,0.0,0.0,0.0,0.0,0.0,0.0,0.0,0.0,0.0,0.0,0.0,0.0,0.0,0.0,0.0,0.0,0.0,0.0,0.0,0.0,0.0,0.0,0.0,0.0,0.0,0.0,0.0,4.8473,4.9051,4.9566,0.0,0.0,0.0,0.0,0.0,0.0,4.5923,4.6051,0.0,0.0,0.0,0.0,0.0,0.0,0.0,0.0,0.0,0.0,0.0,0.0,0.0,0.0,0.0,0.0,0.0,0.0,0.0,0.0,0.0,0.0,0.0,0.0,0.0,0.0,0.0,0.0,0.0,0.0,0.0,0.0,0.0,0.0,0.0,0.0,0.0,0.0,0.0,0.0,0.0,0.0,0.0,0.0,0.0,0.0,0.0,0.0,0.0,0.0,0.0,0.0,0.0,0.0,0.0,4.7701,4.8855,4.973,5.0284,5.0286,5.0722,5.1577,5.073,4.9752,0.0,0.0,0.0,0.0,0.0,0.0,0.0,0.0,0.0,0.0,0.0,0.0,0.0,0.0,0.0,0.0,0.0,0.0,0.0,0.0,0.0,0.0,0.0,0.0,0.0,0.0,0.0,0.0,0.0,0.0,0.0,0.0,0.0,0.0,0.0,0.0,0.0,0.0,0.0,0.0,0.0,5.085,5.1349,4.9589,0.0,0.0,0.0,0.0,4.6398,4.6938,0.0,0.0,0.0,0.0,0.0,0.0,0.0,0.0,0.0,0.0,0.0,0.0,0.0,0.0,0.0,0.0,0.0,0.0,0.0,0.0,0.0,0.0,0.0,0.0,0.0,0.0,0.0,0.0,0.0,0.0,0.0,0.0,0.0,0.0,0.0,0.0,0.0,0.0,0.0,0.0,0.0,0.0,0.0,0.0,0.0,0.0,0.0,0.0,0.0,0.0,0.0,0.0,0.0,0.0,0.0,0.0,4.8692,5.0614,5.1983,5.2655,5.2633,5.3003,5.3766,5.2409,5.0766,0.0,0.0,0.0,0.0,0.0,0.0,0.0,0.0,0.0,0.0,0.0,0.0,0.0,0.0,0.0,0.0,0.0,0.0,0.0,0.0,0.0,0.0,0.0,0.0,0.0,0.0,0.0,0.0,0.0,0.0,0.0,0.0,0.0,0.0,0.0,0.0,0.0,0.0,0.0,0.0,0.0,5.1815,5.0642,4.967,4.9043,0.0,0.0,4.9267,5.0718,5.1005,0.0,0.0,0.0,0.0,0.0,0.0,0.0,0.0,0.0,0.0,0.0,0.0,0.0,0.0,0.0,0.0,0.0,0.0,0.0,0.0,0.0,0.0,0.0,0.0,0.0,0.0,0.0,0.0,0.0,0.0,0.0,0.0,0.0,0.0,0.0,0.0,0.0,0.0,0.0,0.0,0.0,0.0,0.0,0.0,0.0,0.0,0.0,0.0,0.0,0.0,0.0,0.0,0.0,0.0,0.0,4.8926,4.9315,5.1892,5.3176,5.3099,5.3071,5.3429,5.4188,5.2305,5.0638,0.0,0.0,0.0,0.0,0.0,0.0,0.0,0.0,0.0,0.0,0.0,0.0,0.0,0.0,0.0,0.0,0.0,0.0,0.0,0.0,0.0,0.0,0.0,0.0,0.0,0.0,0.0,0.0,0.0,0.0,0.0,0.0,0.0,0.0,0.0,0.0,0.0,0.0,0.0,0.0,0.0,0.0,5.2844,5.2124,0.0,0.0,0.0,5.1255,5.1092,0.0,0.0,0.0,0.0,0.0,0.0,0.0,0.0,0.0,0.0,0.0,0.0,0.0,0.0,0.0,0.0,0.0,0.0,0.0,0.0,0.0,0.0,0.0,0.0,0.0,0.0,0.0,0.0,0.0,0.0,0.0,0.0,0.0,0.0,0.0,0.0,0.0,0.0,0.0,0.0,0.0,0.0,0.0,0.0,0.0,0.0,0.0,0.0,0.0,0.0,0.0,0.0,0.0,0.0,0.0,0.0,0.0,5.0188,5.3501,5.488,5.4164,5.4128,5.4398,5.4902,5.2719,0.0,0.0,0.0,0.0,0.0,0.0,0.0,0.0,0.0,0.0,0.0,0.0,0.0,0.0,0.0,0.0,0.0,0.0,0.0,0.0,0.0,0.0,0.0,0.0,0.0,0.0,0.0,4.1171,0.0,0.0,0.0,0.0,0.0,0.0,0.0,0.0,0.0,0.0,0.0,0.0,0.0,0.0,5.3147,5.4363,5.4206,5.4047,0.0,0.0,5.3017,5.2088,5.308,5.3019,0.0,0.0,0.0,0.0,0.0,0.0,0.0,0.0,0.0,0.0,0.0,0.0,0.0,0.0,0.0,0.0,0.0,0.0,0.0,0.0,0.0,0.0,0.0,0.0,0.0,0.0,0.0,0.0,0.0,0.0,0.0,0.0,0.0,0.0,0.0,0.0,0.0,0.0,0.0,0.0,0.0,0.0,0.0,0.0,0.0,0.0,0.0,0.0,0.0,0.0,0.0,0.0,0.0,0.0,0.0,5.1674,5.5896,5.7689,5.6942,5.6919,5.6942,5.6942,5.4737,5.2234,0.0,0.0,0.0,0.0,0.0,0.0,0.0,0.0,0.0,0.0,0.0,0.0,0.0,0.0,0.0,0.0,0.0,0.0,0.0,0.0,0.0,0.0,0.0,0.0,0.0,0.0,0.0,0.0,0.0,0.0,0.0,0.0,0.0,0.0,0.0,0.0,0.0,0.0,0.0,0.0,0.0,5.4142,5.3676,5.4808,5.6024,0.0,0.0,5.4808,5.5533,5.6318,5.5545,5.1607,0.0,0.0,0.0,0.0,0.0,0.0,0.0,0.0,0.0,0.0,0.0,0.0,0.0,0.0,0.0,0.0,0.0,0.0,0.0,0.0,0.0,0.0,0.0,0.0,0.0,0.0,0.0,0.0,0.0,0.0,0.0,0.0,0.0,0.0,0.0,0.0,0.0,0.0,0.0,0.0,0.0,0.0,0.0,0.0,0.0,0.0,0.0,0.0,0.0,0.0,0.0,0.0,0.0,5.1233,5.2955,5.6633,5.8569,5.8673,5.8673,5.8494,5.8076,5.661,5.4219,0.0,0.0,0.0,0.0,0.0,0.0,0.0,0.0,0.0,0.0,0.0,0.0,0.0,0.0,0.0,0.0,0.0,0.0,0.0,0.0,0.0,0.0,0.0,0.0,0.0,0.0,0.0,0.0,4.5949,4.6032,4.5999,0.0,0.0,0.0,0.0,0.0,0.0,0.0,0.0,0.0,0.0,5.4423,5.5593,5.6651,0.0,0.0,5.8063,5.7554,5.7465,5.7333,5.6017,5.2542,5.0459,0.0,0.0,0.0,0.0,0.0,0.0,0.0,0.0,0.0,0.0,0.0,0.0,0.0,0.0,0.0,0.0,0.0,0.0,0.0,0.0,0.0,0.0,0.0,0.0,0.0,0.0,0.0,0.0,0.0,0.0,0.0,0.0,0.0,0.0,0.0,0.0,0.0,0.0,0.0,0.0,0.0,0.0,0.0,0.0,0.0,0.0,0.0,0.0,0.0,0.0,0.0,0.0,5.1693,5.3746,5.7242,5.9254,5.9709,5.995,5.9748,5.9037,5.7908,5.5728,0.0,0.0,0.0,0.0,0.0,0.0,0.0,0.0,0.0,0.0,0.0,0.0,0.0,0.0,0.0,0.0,0.0,0.0,0.0,0.0,0.0,0.0,0.0,0.0,0.0,0.0,0.0,0.0,4.7951,4.7706,4.7917,0.0,0.0,0.0,0.0,0.0,0.0,0.0,0.0,0.0,0.0,5.5414,5.7297,5.8161,5.8786,5.9203,5.874,5.8221,5.7755,5.7224,5.5933,5.3277,0.0,0.0,0.0,0.0,0.0,0.0,0.0,0.0,0.0,0.0,0.0,0.0,0.0,0.0,0.0,0.0,0.0,0.0,0.0,0.0,0.0,0.0,0.0,0.0,0.0,0.0,0.0,5.3952,0.0,0.0,5.2739,0.0,0.0,0.0,0.0,0.0,0.0,0.0,0.0,0.0,0.0,0.0,0.0,0.0,0.0,0.0,0.0,0.0,0.0,0.0,0.0,0.0,0.0,5.236,5.3933,5.7899,5.999,6.0026,6.0779,6.0779,5.999,5.8458,5.6452,5.3972,0.0,0.0,0.0,0.0,0.0,0.0,0.0,0.0,0.0,0.0,0.0,0.0,0.0,0.0,0.0,0.0,0.0,0.0,0.0,0.0,0.0,0.0,0.0,0.0,0.0,0.0,4.699,4.6861,4.7199,0.0,0.0,0.0,0.0,0.0,0.0,0.0,0.0,0.0,0.0,5.4665,5.7406,5.8239,5.9035,5.9276,5.8601,5.7165,5.615,5.6187,5.6078,5.5486,0.0,0.0,0.0,0.0,0.0,0.0,0.0,0.0,0.0,0.0,0.0,0.0,0.0,0.0,0.0,0.0,0.0,0.0,0.0,0.0,0.0,0.0,0.0,0.0,0.0,0.0,0.0,5.731,5.5789,0.0,0.0,0.0,0.0,0.0,0.0,0.0,0.0,0.0,0.0,0.0,5.7111,5.7636,0.0,0.0,0.0,0.0,0.0,0.0,0.0,0.0,0.0,0.0,0.0,0.0,5.3503,5.5627,5.9079,6.1124,6.1594,6.1873,6.1657,6.0955,6.0332,5.813,5.413,0.0,0.0,0.0,0.0,0.0,0.0,0.0,0.0,0.0,0.0,0.0,0.0,0.0,0.0,0.0,0.0,0.0,0.0,0.0,0.0,0.0,0.0,0.0,0.0,0.0,4.8633,0.0,0.0,0.0,0.0,0.0,0.0,0.0,0.0,0.0,0.0,0.0,5.1566,5.2913,5.5642,5.7752,5.8428,5.9237,5.9779,0.0,0.0,0.0,0.0,0.0,0.0,0.0,0.0,0.0,0.0,0.0,0.0,0.0,0.0,5.3033,4.8752,4.8172,4.8033,4.7066,0.0,0.0,0.0,0.0,0.0,0.0,0.0,0.0,0.0,0.0,0.0,0.0,0.0,0.0,5.9637,0.0,5.8145,0.0,0.0,0.0,0.0,0.0,0.0,0.0,0.0,6.0774,6.1435,6.0921,6.1728,6.0994,0.0,5.8657,5.6351,0.0,0.0,0.0,0.0,0.0,0.0,0.0,0.0,5.488,5.6912,6.0188,6.236,6.338,6.3403,6.3186,6.274,6.1859,5.9323,5.5119,5.2436,5.0163,0.0,0.0,0.0,0.0,0.0,0.0,0.0,0.0,0.0,0.0,0.0,0.0,0.0,0.0,0.0,0.0,0.0,0.0,0.0,0.0,0.0,0.0,0.0,5.037,0.0,0.0,0.0,0.0,0.0,0.0,0.0,0.0,0.0,5.0944,5.2267,5.3954,5.5854,5.7737,5.9042,5.9475,0.0,0.0,0.0,0.0,0.0,0.0,0.0,5.7545,5.7222,5.6381,5.5789,5.6018,5.7087,5.7719,5.7023,0.0,0.0,5.2596,5.176,5.1528,5.0824,5.1148,5.1304,5.057,5.0713,5.0847,0.0,0.0,0.0,0.0,0.0,0.0,0.0,0.0,6.305,6.2609,0.0,6.1006,0.0,0.0,0.0,0.0,0.0,6.0236,0.0,0.0,6.464,6.5742,6.4396,6.5081,6.4591,6.3086,6.3759,6.2083,5.8132,5.4155,0.0,0.0,0.0,0.0,0.0,0.0,5.6421,5.8004,6.1239,6.3673,6.5178,6.5288,6.5251,6.5178,6.2952,6.0224,5.7104,5.5427,5.3445,5.1086,4.9324,0.0,0.0,0.0,0.0,0.0,0.0,0.0,0.0,0.0,0.0,0.0,0.0,0.0,0.0,0.0,0.0,0.0,0.0,0.0,0.0,5.2897,0.0,0.0,0.0,0.0,0.0,0.0,0.0,0.0,0.0,0.0,5.4409,5.5536,5.7389,5.9755,0.0,0.0,0.0,0.0,6.1015,6.0115,5.9297,5.9059,5.9745,5.9749,5.9686,5.9697,0.0,0.0,5.882,5.9074,5.8934,5.7041,5.8287,5.9019,5.787,5.6407,5.5496,5.5147,5.418,5.3302,5.2952,5.3115,5.3295,6.9669,0.0,0.0,0.0,0.0,6.6035,6.6953,6.8017,6.8017,6.7247,6.5902,6.5081,0.0,0.0,0.0,0.0,0.0,0.0,6.4163,6.5645,6.6819,6.77,6.8385,6.8605,6.8201,6.716,6.6806,6.5485,6.3172,6.0823,5.7327,5.2842,0.0,0.0,0.0,0.0,5.8352,6.053,6.3184,6.4811,6.5288,6.5325,6.5325,6.5288,6.4053,6.2414,6.0272,5.8682,5.6994,5.5122,5.2417,0.0,0.0,0.0,0.0,0.0,0.0,0.0,0.0,0.0,0.0,0.0,0.0,0.0,0.0,0.0,0.0,0.0,0.0,0.0,5.1994,5.2657,5.2535,0.0,0.0,0.0,0.0,0.0,0.0,0.0,0.0,0.0,6.019,5.9197,5.8887,0.0,0.0,6.1353,6.0675,6.1612,6.2432,6.2614,6.2599,0.0,0.0,6.2269,6.1404,6.2044,6.2381,6.2323,6.1841,6.2383,6.2688,6.2056,6.1495,6.0951,6.0584,5.885,5.7264,5.6581,5.6542,5.6456,5.5869,5.5801,5.561,7.4368,7.1138,6.9389,6.8568,6.8495,6.9265,7.0513,7.1982,7.1651,7.1138,7.044,6.9045,6.6769,6.3968,6.2742,0.0,0.0,0.0,6.7776,6.9768,7.0424,7.1227,7.2105,7.2166,7.1627,7.0639,6.9777,6.8465,6.6683,6.5081,6.1985,5.7593,0.0,0.0,5.6334,5.84,6.0321,6.2071,6.4187,6.5325,6.5325,6.5618,6.5778,6.5778,6.5301,6.4286,6.2671,6.1667,6.0382,5.8767,5.6235,5.4485,0.0,0.0,0.0,0.0,0.0,0.0,0.0,0.0,0.0,0.0,0.0,5.0376,0.0,0.0,0.0,0.0,5.1969,5.2989,5.3664,5.4178,0.0,0.0,0.0,0.0,0.0,0.0,0.0,5.9185,6.0561,6.2013,6.3648,6.2881,6.2478,6.3341,6.3568,6.3466,6.2921,0.0,6.4454,6.4793,6.4964,6.5332,6.597,6.4963,6.4124,6.4303,6.4067,6.3898,6.3832,6.4238,6.4388,6.3964,6.2881,6.1864,6.1497,5.9909,5.8501,5.7947,5.7967,5.7817,5.7075,5.6887,5.6662,7.8846,7.8332,7.3083,7.1284,7.1931,7.2665,7.3839,7.5212,7.4515,7.4515,7.4918,7.2722,7.0441,6.8134,6.6421,0.0,6.9105,7.0347,7.1735,7.3266,7.4737,7.5429,7.5429,7.542,7.4758,7.3551,7.2682,7.1261,6.9332,6.7773,6.6142,6.4462,6.147,5.9804,5.949,6.086,6.2034,6.2903,6.4481,6.5325,6.5325,6.6035,6.6439,6.6476,6.6512,6.5778,6.4383,6.4286,6.3577,6.1998,6.0332,5.8552,5.6627,0.0,0.0,0.0,0.0,0.0,0.0,0.0,0.0,0.0,0.0,0.0,0.0,0.0,0.0,0.0,5.3982,0.0,5.6803,5.6899,0.0,0.0,0.0,5.7619,5.9217,5.9522,6.0172,6.1631,0.0,0.0,6.5413,6.6361,6.7209,6.8012,6.7324,6.6781,6.6713,6.672,6.6849,6.6662,6.6692,6.6945,6.7511,6.7332,6.6802,6.609,6.5446,6.488,6.4824,6.4862,6.4538,6.3932,6.2886,6.2004,6.1149,6.0222,5.9465,5.927,5.8736,5.8004,5.7263,5.7037,5.6774,8.0975,8.0277,7.8311,7.7246,7.6864,7.7047,7.7708,7.8589,7.8405,7.7745,7.6695,7.5928,7.4506,7.263,7.2188,7.2702,7.3935,7.4245,7.493,7.5878,7.6244,7.6433,7.6459,7.6357,7.6141,7.5847,7.4966,7.3922,7.2778,7.1782,7.0137,6.7991,6.7142,6.4833,6.119,6.141,6.234,6.3796,6.4787,6.5325,6.5325,6.5472,6.5888,6.6476,6.6512,6.6329,6.5925,6.5925,6.5617,6.4924,6.2775,6.1236,6.0443,5.6346,0.0,0.0,0.0,0.0,0.0,0.0,0.0,0.0,0.0,5.2823,5.0768,0.0,5.3255,0.0,5.6568,5.8467,5.9415,5.9498,0.0,0.0,6.0523,6.0828,6.1891,6.3114,6.3809,6.3587,6.5421,6.6873,6.7255,6.805,6.889,6.9647,6.8547,6.74,6.6827,6.7821,6.8569,6.8567,6.8921,6.9379,6.9304,6.8311,6.7192,6.6425,6.5576,6.4967,6.4935,6.4917,6.4813,6.4547,6.3364,6.2353,6.2079,6.0774,5.9726,5.9554,5.9241,5.8764,5.8004,5.7817,5.7404,8.3185,8.2995,8.2166,8.1763,8.1497,7.9848,7.9596,8.0277,7.9963,7.947,7.8877,7.7932,7.6705,7.5425,7.5635,7.6204,7.7031,7.7291,7.7826,7.8529,7.8186,7.7996,7.7986,7.7166,7.6693,7.6468,7.5588,7.4805,7.4101,7.2912,7.1681,7.0298,6.9206,6.7252,6.4536,6.4025,6.3918,6.4079,6.453,6.5118,6.5778,6.5629,6.5939,6.6714,6.6593,6.6344,6.5998,6.5961,6.5682,6.5098,6.3441,6.2191,6.1391,5.8106,5.5758,0.0,0.0,0.0,0.0,0.0,0.0,0.0,0.0,0.0,0.0,0.0,5.5683,5.7295,5.9213,6.0862,6.2056,6.2164,6.2648,6.3791,6.3898,6.4228,6.5031,6.5956,6.6483,6.6453,6.7637,6.8623,6.8967,6.9425,6.9884,7.0334,6.9616,6.8852,6.8508,6.9158,6.9723,6.9761,7.0072,7.0328,7.023,6.8816,6.755,6.7058,6.6004,6.5147,6.5136,6.5128,6.5128,6.5014,6.4038,6.3131,6.3014,6.157,6.0308,6.0132,5.9764,5.912,5.8276,5.8117,5.7704,8.5127,8.551,8.4824,8.4826,8.5009,8.1865,8.0843,8.1381,8.0659,8.0727,8.124,7.9474,7.8239,7.7533,7.7941,7.8474,7.9124,7.9625,8.0211,8.0788,7.9936,7.9552,7.9475,7.7933,7.696,7.6531,7.5674,7.5103,7.475,7.3123,7.2253,7.2054,6.988,6.8535,6.8095,6.7347,6.6079,6.4328,6.4267,6.4966,6.6316,6.6023,6.6161,6.6818,6.6533,6.6035,6.5359,6.5301,6.4994,6.4294,6.3601,6.273,6.1667,6.0048,5.8561,0.0,5.624,0.0,0.0,0.0,0.0,0.0,0.0,0.0,0.0,5.7902,5.87,6.1032,6.203,6.318,6.4746,6.49,6.5479,6.694,6.7117,6.7431,6.8173,6.8242,6.8548,6.9305,6.9373,6.9671,7.0435,7.0495,7.0411,7.0572,7.0411,7.022,7.0334,7.0334,7.0334,7.0411,7.0411,7.0394,7.0241,6.9112,6.8042,6.7782,6.6621,6.5566,6.5398,6.5398,6.5406,6.5322,6.4612,6.3985,6.3961,6.2493,6.1304,6.1169,6.0434,5.9501,5.8576,5.8342,5.7967,8.5906,8.5448,8.5284,8.4909,8.4393,8.4341,8.405,8.3586,8.3436,8.3301,8.3081,8.1463,8.0883,8.1136,8.0571,8.0446,8.0688,8.0807,8.0907,8.1007,8.0161,7.973,7.9692,7.866,7.8089,7.7955,7.7083,7.6939,7.7529,7.5808,7.4622,7.3964,7.2786,7.1048,6.8792,0.0,0.0,0.0,6.5133,6.5309,6.5608,6.5544,6.5538,6.563,6.5564,0.0,6.5376,6.5342,6.5429,6.5688,6.5535,0.0,0.0,0.0,0.0,0.0,0.0,0.0,0.0,0.0,0.0,0.0,6.181,6.0954,6.0246,6.1857,6.3429,6.4625,6.5475,6.6396,6.7386,6.7501,6.787,6.8768,6.8922,6.9221,7.0057,7.0172,7.0248,7.0363,7.0371,7.063,7.1357,7.088,7.0724,7.1306,7.0877,7.0449,7.0411,7.0449,7.0411,7.0411,7.0411,7.0411,7.0411,6.9578,6.8623,6.7981,6.7133,6.6254,6.5605,6.5452,6.5413,6.5413,6.4718,6.4168,6.4153,6.323,6.2398,6.2319,6.1481,6.0437,5.9335,5.9065,5.884,8.7814,0.0,8.6814,8.6463,0.0,8.596,8.5502,8.5079,8.4467,8.4059,8.3742,8.2952,8.2703,8.2883,8.2413,8.2284,8.2324,8.2331,8.2093,8.167,8.1246,8.0592,7.9777,7.8854,7.8223,7.7831,7.737,7.7162,7.7124,7.6279,7.5434,7.4581,7.3775,7.2571,7.1089,7.1191,6.989,6.7061,6.6831,6.6947,6.7324,6.7145,6.7014,6.6967,0.0,0.0,0.0,0.0,0.0,0.0,0.0,0.0,0.0,0.0,0.0,6.3834,6.2996,6.2702,6.3118,6.3553,6.4353,6.5608,6.646,6.6069,6.393,6.5755,6.7382,6.8188,6.9034,6.9687,7.0141,7.0563,7.0926,7.1312,7.1343,7.152,7.1873,7.1942,7.1942,7.1935,7.1904,7.2049,7.2392,7.2046,7.1882,7.2261,7.1985,7.1489,7.1068,7.0648,7.0411,7.0411,7.0411,7.0411,7.0334,6.9723,6.9082,6.8547,6.7859,6.7018,6.6208,6.6063,6.591,6.549,6.5031,6.4771,6.4726,6.4016,6.336,6.3167,6.2447,6.1646,6.0914,6.0075,5.927,8.9558,8.995,8.8575,8.8261,8.8603,8.7171,8.6401,8.6043,0.0,0.0,0.0,8.4002,8.3779,8.3593,8.3293,8.3139,8.3178,8.3139,8.2755,8.2093,8.19,8.1131,7.9785,7.89,7.8176,7.7522,7.7369,7.7022,7.6438,7.6169,7.563,7.4892,7.4123,7.3594,7.3336,7.3277,7.2041,6.9646,6.9064,6.9105,6.9739,6.9438,6.9137,6.8833,6.8541,6.7616,6.5904,6.5859,6.5207,6.3878,6.3916,6.4338,6.5035,6.508,6.546,6.6204,6.6403,6.6814,6.7513,6.7866,6.8359,6.9237,7.0591,7.0378,6.81,6.941,7.0629,7.1283,7.2014,7.2399,7.2444,7.3053,7.3447,7.3344,7.3336,7.3276,7.3261,7.3246,7.3177,7.3246,7.3162,7.3238,7.3337,7.3144,7.3133,7.322,7.2996,7.2758,7.1994,7.103,7.0411,7.0411,7.0411,7.0411,7.0296,6.9922,6.9387,6.9158,6.8547,6.7859,6.7171,6.6904,6.6636,6.6101,6.5757,6.5643,6.5559,6.4902,6.426,6.4167,6.3402,6.2751,6.253,6.1274,6.0053,8.9877,8.9912,8.9681,8.9226,8.8679,8.8449,8.7478,8.6124,8.5911,8.5825,8.5693,8.4272,8.3613,8.3524,8.2093,8.1439,8.1439,8.1477,8.1362,8.1246,8.0516,8.0046,7.9746,7.89,7.8446,7.8292,7.7638,7.7599,7.7946,7.6714,7.5938,7.5745,7.4938,7.4192,7.3531,7.3447,7.3265,7.2837,7.1904,7.1512,7.1619,7.1551,7.0808,6.939,6.9282,6.8489,6.6894,6.6769,6.6647,6.6471,6.7169,6.763,6.7752,6.78,6.7871,6.807,6.8731,6.9199,6.936,7.0674,7.186,7.2699,7.3007,7.2661,7.1622,7.2392,7.3007,7.3122,7.3238,7.3315,7.3353,7.3469,7.3623,7.3531,7.3493,7.3486,7.3548,7.3541,7.3548,7.3579,7.3344,7.3645,7.4198,7.3713,7.3519,7.3899,7.3619,7.2987,7.2635,7.1412,7.0525,7.0411,7.0411,7.0411,7.0487,7.0334,6.9999,6.9311,6.912,6.8738,6.7905,6.7744,6.7637,6.7523,6.6904,6.656,6.6476,6.5826,6.5345,6.5169,6.4458,6.3854,6.3736,6.2756,6.1759,9.1325,9.1171,9.0316,8.9701,8.9286,8.8363,8.7555,8.6786,8.6286,8.6094,8.6047,8.5286,8.4939,8.4901,8.417,8.3555,8.317,8.317,8.267,8.1785,8.1823,8.1362,8.0516,8.0092,7.9669,7.9208,7.8823,7.8631,7.8484,7.8169,7.7592,7.6707,7.5822,7.4969,7.4238,7.463,7.463,7.4123,7.325,7.2798,7.2798,7.2798,7.2414,7.1653,7.1646,7.1091,6.9851,6.9791,6.9554,6.912,6.9505,6.9934,7.0396,7.0462,7.0667,7.1122,7.1545,7.1776,7.1738,7.2476,7.3283,7.4046,7.4161,7.4207,7.4245,7.4207,7.4123,7.4161,7.4546,7.4668,7.4238,7.4584,7.4861,7.4861,7.4861,7.4861,7.4861,7.4853,7.4861,7.4853,7.4786,7.4903,7.5249,7.4912,7.4688,7.4992,7.4336,7.3772,7.3637,7.2635,7.1794,7.1794,7.1833,7.1603,7.1221,7.1107,7.0763,6.9999,6.9846,6.9502,6.8776,6.8631,6.8432,6.7981,6.7553,6.74,6.7362,6.7056,6.6636,6.6132,6.5841,6.5337,6.481,6.3984,6.3019,9.2364,9.2056,9.074,9.0086,8.9778,8.8517,8.7863,8.7594,8.6786,8.6401,8.6363,8.6017,8.5816,8.5824,8.5632,8.517,8.4632,8.4401,8.3593,8.2439,8.2824,8.2324,8.1208,8.1093,8.0746,8.0131,7.9892,7.9438,7.8938,7.9285,7.8861,7.7638,7.6899,7.6207,7.5592,7.6207,7.6207,7.5553,7.493,7.4437,7.4084,7.4046,7.3969,7.3776,7.3738,7.336,7.2552,7.2476,7.2168,7.1552,7.1475,7.1783,7.2437,7.2476,7.2783,7.343,7.3699,7.3853,7.4046,7.4053,7.443,7.5207,7.5284,7.5668,7.6399,7.5938,7.5476,7.5438,7.6092,7.6207,7.5553,7.5861,7.6207,7.6053,7.5976,7.5899,7.5976,7.5976,7.5976,7.5976,7.5976,7.5947,7.5933,7.5902,7.5779,7.5547,7.5099,7.4681,7.4444,7.3921,7.3624,7.3484,7.3255,7.272,7.2108,7.1994,7.1718,7.106,7.0801,7.0495,6.9922,6.9655,6.9273,6.8699,6.8363,6.8211,6.8211,6.7943,6.7599,6.7056,6.6705,6.6323,6.5475,6.4825,6.3992,9.2056,9.1355,9.1171,9.0624,8.9932,8.9701,8.921,8.8517,8.7671,8.7286,8.7094,8.5709,8.5085,8.4893,8.4286,8.3947,8.3747,8.2901,8.2516,8.2285,8.1631,8.1246,8.1208,8.1131,8.1054,8.09,8.02,7.9823,7.9669,7.9015,7.8561,7.8407,7.8292,7.8176,7.8099,7.8176,7.8215,7.8138,7.8061,7.7284,7.5861,7.5784,7.5399,7.4623,7.4584,7.4199,7.3584,7.3392,7.3353,7.3276,7.3315,7.3353,7.343,7.343,7.343,7.3623,7.4238,7.4938,7.5668,7.5745,7.613,7.6938,7.7022,7.733,7.8099,7.8138,7.783,7.7361,7.7792,7.7792,7.7176,7.7138,7.6899,7.6322,7.6169,7.5976,7.6092,7.5976,7.5976,7.5976,7.613,7.6015,7.6146,7.6094,7.5941,7.6031,7.5777,7.5567,7.5476,7.5336,7.5128,7.4915,7.4049,7.3132,7.2911,7.2911,7.275,7.2597,7.207,7.1573,7.1268,7.0763,7.022,6.9999,6.9464,6.9082,6.889,6.8508,6.7981,6.7782,6.7286,6.6483,6.5681,6.536,6.4863,9.348,9.2633,9.2172,9.1479,9.0671,9.0124,8.9701,8.9325,8.8517,8.7902,8.7363,8.6671,8.6094,8.5593,8.5209,8.4824,8.4362,8.3978,8.3555,8.3062,8.2716,8.2562,8.2516,8.2016,8.1823,8.1747,8.0977,8.0554,8.0439,7.9708,7.9246,7.9208,7.8792,7.8484,7.8484,7.8484,7.8484,7.8484,7.8484,7.8138,7.7561,7.7476,7.733,7.6938,7.6476,7.6361,7.6399,7.6015,7.5976,7.6399,7.6438,7.6438,7.6438,7.6438,7.6438,7.6484,7.6746,7.7092,7.7445,7.7476,7.7638,7.7984,7.8023,7.8176,7.8484,7.8938,7.9092,7.8861,7.8638,7.833,7.8061,7.7984,7.783,7.7515,7.7476,7.7445,7.7484,7.7484,7.7484,7.7445,7.7061,7.6976,7.7284,7.7031,7.6932,7.7062,7.6923,7.6492,7.6399,7.6365,7.6101,7.5574,7.486,7.4316,7.3858,7.3705,7.3514,7.3093,7.2711,7.249,7.2376,7.1718,7.1183,7.1145,7.0457,6.996,6.9914,6.9685,6.9273,6.8776,6.7973,6.7171,6.633,6.6178,6.5757,9.4143,9.3326,9.2479,9.1787,9.1163,9.0509,9.0239,9.0163,8.9402,8.8671,8.8055,8.7632,8.7055,8.6478,8.6209,8.5786,8.5239,8.5008,8.4555,8.3947,8.3717,8.3601,8.3524,8.2978,8.267,8.2554,8.2093,8.167,8.1362,8.0592,8.0169,8.0054,7.9515,7.9208,7.9215,7.9208,7.9215,7.9254,7.9215,7.9215,7.9215,7.9215,7.8984,7.8523,7.7946,7.7907,7.8446,7.7946,7.7869,7.8446,7.8484,7.8484,7.8484,7.8484,7.8484,7.8484,7.8484,7.8484,7.8484,7.8484,7.86,7.883,7.8869,7.8946,7.9246,7.9785,8.0131,8.0085,7.9554,7.9215,7.8869,7.8861,7.8792,7.8561,7.8484,7.8484,7.8446,7.8484,7.8446,7.8446,7.7907,7.783,7.8253,7.7977,7.78,7.8139,7.7854,7.7308,7.7057,7.6908,7.6607,7.5723,7.5506,7.5268,7.4707,7.4545,7.424,7.3896,7.359,7.3323,7.3284,7.2597,7.1803,7.1565,7.1068,7.0648,7.0296,7.0258,7.0105,6.9387,6.8669,6.7973,6.7171,6.6942,6.6476,9.3287,9.2479,9.1633,9.1248,9.1163,9.1133,9.1086,9.1018,9.0239,8.9816,8.947,8.8132,8.7401,8.7248,8.644,8.6055,8.5931,8.5286,8.4931,8.4786,8.4055,8.364,8.3601,8.3563,8.3524,8.3524,8.3332,8.2947,8.2208,8.1477,8.1054,8.1054,8.1016,8.0977,8.0977,8.0977,8.0977,8.09,8.0939,8.0939,8.0939,8.0939,8.0208,7.8869,7.8484,7.8523,7.86,7.8484,7.8523,7.8523,7.8638,7.8561,7.8561,7.86,7.86,7.86,7.8561,7.8561,7.86,7.8638,7.8938,7.9592,7.9746,8.0046,8.0631,8.0823,8.09,8.0977,8.0823,8.0516,7.9862,7.9738,7.9438,7.8792,7.86,7.8638,7.86,7.8792,7.8523,7.86,7.8638,7.86,7.86,7.8484,7.8523,7.8623,7.8515,7.82,7.75,7.7246,7.6752,7.6092,7.5727,7.5566,7.545,7.5242,7.528,7.5013,7.4431,7.4163,7.3896,7.3476,7.2711,7.2032,7.165,7.1221,7.064,7.0258,7.0037,6.9616,6.9387,6.8776,6.8058,6.7247,6.6743,9.371,9.2441,9.1556,9.1201,9.1201,9.1201,9.1201,9.1171,9.0855,9.0432,8.9778,8.8709,8.791,8.7363,8.6478,8.6094,8.6055,8.5778,8.567,8.5632,8.5324,8.5209,8.517,8.4709,8.4439,8.4362,8.3862,8.3447,8.3178,8.2832,8.2716,8.2708,8.2678,8.2716,8.2708,8.2678,8.2447,8.1977,8.2401,8.2208,8.1323,8.2131,8.2093,8.0946,7.9862,7.9862,8.0908,7.99,7.9823,8.087,8.0439,8.0169,8.0169,8.0169,8.0169,8.0169,8.0169,8.0169,8.0169,8.0177,8.0285,8.0554,8.0631,8.0708,8.1016,8.1093,8.1093,8.1093,8.1093,8.09,8.0746,8.0631,8.0516,8.0246,8.0131,8.0092,8.0169,8.0169,8.0169,8.0177,8.0169,7.9977,7.9477,7.9323,7.9554,7.9977,7.9708,7.9169,7.8807,7.8322,7.7721,7.7258,7.6778,7.6399,7.6282,7.5777,7.5471,7.5433,7.5165,7.5051,7.4821,7.4278,7.3552,7.275,7.2338,7.1612,7.0984,7.0411,7.0151,7.0067,6.9876,6.9502,6.8898,6.8241,6.7591,9.3595,9.2095,9.1441,9.1201,9.1201,9.1201,9.1201,9.1201,9.1163,9.0864,9.0248,8.944,8.8748,8.8132,8.7325,8.694,8.6863,8.6401,8.6247,8.6478,8.6247,8.6239,8.6363,8.5662,8.5286,8.517,8.4439,8.4024,8.3978,8.3755,8.3601,8.3563,8.3601,8.3601,8.3601,8.3601,8.3255,8.2947,8.3332,8.2978,8.217,8.3024,8.3332,8.2678,8.1593,8.1516,8.267,8.1593,8.1516,8.2439,8.2178,8.19,8.1908,8.19,8.1747,8.1554,8.1477,8.1362,8.1131,8.1093,8.1093,8.1093,8.1093,8.1093,8.1093,8.1093,8.1093,8.1093,8.1093,8.1093,8.1093,8.1093,8.1093,8.1093,8.1093,8.1093,8.1093,8.1054,8.1054,8.0977,8.0977,8.0746,8.0362,8.0246,8.0477,8.1054,8.0554,8.0146,7.9722,7.9276,7.866,7.8245,7.773,7.7382,7.716,7.6637,7.5812,7.5641,7.5471,7.5471,7.5395,7.4851,7.4278,7.3514,7.275,7.1985,7.1298,7.0716,7.0487,7.0449,7.0296,6.9999,6.9578,6.9311,6.8623,9.271,9.1364,9.1201,9.1201,9.1201,9.1201,9.1201,9.1201,9.1201,9.1124,9.0893,9.0201,8.9701,8.9586,8.8748,8.8564,8.8218,8.7017,8.6748,8.7286,8.6671,8.6748,8.7325,8.6632,8.6209,8.6094,8.5277,8.4931,8.4863,8.4247,8.387,8.3793,8.387,8.4063,8.3793,8.3986,8.3755,8.3755,8.387,8.3678,8.3601,8.3717,8.3793,8.364,8.3524,8.3563,8.3678,8.3486,8.337,8.3563,8.3486,8.3563,8.3409,8.337,8.3139,8.2439,8.2324,8.1939,8.1323,8.1285,8.14,8.14,8.1246,8.1362,8.1439,8.1362,8.1362,8.14,8.1362,8.1285,8.1323,8.1362,8.1246,8.1093,8.1093,8.1093,8.1093,8.1093,8.1093,8.1093,8.1093,8.1093,8.1054,8.0939,8.0977,8.1016,8.0977,8.0708,8.0115,7.9762,7.9354,7.883,7.8497,7.8333,7.7977,7.7543,7.6616,7.5859,7.5641,7.5509,7.5509,7.5165,7.4736,7.4049,7.3437,7.2673,7.1603,7.103,7.064,7.0525,7.0449,7.0411,7.0113,6.9769,6.9425,9.221,9.1248,9.1201,9.1201,9.1201,9.1201,9.1201,9.1201,9.1201,9.1201,9.1047,9.0278,8.9893,8.9739,8.9056,8.8718,8.8641,8.8094,8.8055,8.8218,8.8025,8.7979,8.8179,8.8025,8.7555,8.694,8.6124,8.5747,8.5709,8.5478,8.5593,8.6017,8.5593,8.5978,8.6871,8.5978,8.5324,8.5324,8.5324,8.4786,8.387,8.4747,8.5055,8.4632,8.5016,8.5324,8.5247,8.4217,8.3939,8.4439,8.3901,8.3601,8.3601,8.3601,8.3486,8.3255,8.3216,8.3101,8.2862,8.2785,8.2755,8.2793,8.2785,8.2832,8.2832,8.2755,8.2747,8.2755,8.2832,8.2832,8.2824,8.2824,8.2324,8.1208,8.1093,8.117,8.1246,8.1131,8.1093,8.1093,8.1093,8.1093,8.1093,8.1093,8.1093,8.1093,8.1093,8.09,8.0669,8.0169,8.0054,8.0021,7.9697,7.9267,7.9018,7.8623,7.7875,7.6833,7.6246,7.5659,7.5574,7.5433,7.5051,7.4584,7.401,7.3246,7.2176,7.1527,7.1183,7.0716,7.0602,7.0525,7.0411,7.0143,6.9769,9.2441,9.1672,9.1325,9.1595,9.1979,9.1518,9.1402,9.1595,9.1317,9.1201,9.1047,9.0633,9.0393,9.0287,8.9825,8.9633,8.9633,8.9633,8.9641,8.9479,8.8872,8.8863,8.9017,8.8786,8.8449,8.791,8.7325,8.7055,8.7055,8.7094,8.7363,8.7671,8.7325,8.7517,8.8564,8.7671,8.694,8.6671,8.6555,8.5901,8.5016,8.5555,8.5863,8.5478,8.5824,8.6055,8.6017,8.5055,8.4786,8.517,8.4786,8.4563,8.4516,8.4555,8.4401,8.4132,8.4055,8.3939,8.367,8.3486,8.3601,8.3601,8.3601,8.3563,8.3601,8.3601,8.3601,8.3601,8.3563,8.3601,8.3563,8.3563,8.3062,8.217,8.2093,8.2016,8.1977,8.1708,8.1554,8.1516,8.1285,8.1131,8.1093,8.1093,8.1093,8.1093,8.1093,8.1093,8.0977,8.0631,8.0746,8.0791,8.0522,8.0229,8.0073,7.9657,7.9133,7.8062,7.7028,7.6233,7.5693,7.5574,7.528,7.4889,7.4393,7.3925,7.3017,7.2482,7.2062,7.1527,7.103,7.0992,7.0992,7.0525,7.0143,9.3133,9.2402,9.1595,9.2018,9.3056,9.1902,9.1672,9.2133,9.1672,9.1278,9.121,9.1086,9.1124,9.1163,9.0932,9.0902,9.1163,9.1171,9.1018,9.071,8.9979,8.971,8.9902,8.9248,8.8872,8.8756,8.8603,8.8526,8.8372,8.841,8.8718,8.8709,8.8556,8.8756,8.8949,8.8795,8.8209,8.7748,8.7555,8.7017,8.6286,8.6324,8.6286,8.6209,8.6209,8.6286,8.6247,8.6247,8.617,8.6132,8.5901,8.5824,8.6017,8.6094,8.5593,8.4978,8.4939,8.4593,8.3986,8.4024,8.3978,8.4024,8.4024,8.3717,8.3986,8.4063,8.4063,8.4024,8.3986,8.3909,8.3901,8.3947,8.387,8.3755,8.3447,8.337,8.3447,8.2793,8.2447,8.2285,8.1747,8.1285,8.1477,8.1439,8.14,8.1246,8.1285,8.1285,8.1093,8.0939,8.1054,8.1,8.0915,8.0823,8.0552,8.039,7.9829,7.902,7.8018,7.716,7.6118,7.5791,7.5509,7.5165,7.4936,7.4469,7.3925,7.3323,7.2902,7.2482,7.21,7.1879,7.1573,7.1183,7.0763,9.2133,9.2364,9.1556,9.1441,9.1902,9.1979,9.1902,9.1633,9.2018,9.1748,9.1325,9.1201,9.1201,9.1201,9.1201,9.1201,9.1432,9.1902,9.1748,9.1441,9.2172,9.1633,9.0855,9.0009,8.9594,8.9556,8.9141,8.8679,8.8679,8.8872,8.9141,8.9556,8.918,8.9449,9.021,8.9372,8.8979,8.9086,8.8594,8.8256,8.8025,8.7948,8.7671,8.7094,8.7055,8.7055,8.7132,8.7679,8.7325,8.6209,8.6094,8.6094,8.6132,8.617,8.6055,8.5863,8.5778,8.5709,8.5517,8.5363,8.5401,8.544,8.5286,8.544,8.544,8.544,8.544,8.544,8.544,8.5363,8.5401,8.5363,8.5401,8.5286,8.4447,8.3755,8.3678,8.3447,8.3255,8.3216,8.3024,8.2832,8.2793,8.2755,8.2593,8.2131,8.1939,8.1823,8.1593,8.1246,8.1285,8.1131,8.1046,8.1046,8.1,8.0877,8.0484,7.9815,7.9044,7.8363,7.7143,7.6161,7.5773,7.5395,7.5497,7.5191,7.4554,7.3934,7.3628,7.3408,7.2979,7.2643,7.2414,7.2062,7.1642,9.2249,9.2903,9.171,9.1595,9.221,9.2441,9.221,9.1902,9.2249,9.2018,9.1325,9.1201,9.1402,9.1748,9.1748,9.1979,9.2287,9.2787,9.271,9.2518,9.3172,9.3056,9.2133,9.1133,9.0624,9.0902,9.0133,8.9825,8.9863,9.0103,9.0556,9.0902,9.0517,9.0825,9.1518,9.0517,8.9748,8.9816,8.9402,8.9103,8.8718,8.8679,8.8487,8.8017,8.794,8.794,8.8025,8.8449,8.8179,8.7325,8.6901,8.6632,8.6632,8.6632,8.6671,8.6632,8.6632,8.6786,8.6978,8.6594,8.6286,8.6478,8.6401,8.6132,8.6055,8.6094,8.6094,8.6017,8.6094,8.6094,8.6094,8.6094,8.6094,8.5901,8.5209,8.4632,8.4632,8.4362,8.417,8.4055,8.3832,8.3601,8.3601,8.364,8.337,8.3024,8.287,8.2639,8.2324,8.19,8.1593,8.1593,8.1285,8.1208,8.117,8.1046,8.0962,8.0338,7.9799,7.9166,7.827,7.6995,7.6752,7.6496,7.6267,7.5935,7.5442,7.4966,7.4622,7.4363,7.3819,7.3476,7.3284,7.2826,7.2414,9.2826,9.345,9.1864,9.2133,9.3249,9.2903,9.2672,9.2633,9.2864,9.2441,9.1748,9.1518,9.2056,9.2633,9.2633,9.2979,9.3595,9.371,9.395,9.3864,9.3941,9.3672,9.3826,9.2133,9.1825,9.221,9.1748,9.1441,9.1518,9.2172,9.2518,9.2441,9.2479,9.2556,9.2441,9.171,9.097,9.0624,9.0239,8.994,8.9556,8.9372,8.9133,8.8863,8.8786,8.8786,8.8863,8.9017,8.9026,8.8987,8.8055,8.7594,8.7517,8.7517,8.7517,8.7517,8.7555,8.7833,8.8295,8.7248,8.6786,8.7286,8.6863,8.6363,8.6555,8.6671,8.6671,8.6709,8.6401,8.6594,8.6555,8.6401,8.6478,8.6517,8.6363,8.6209,8.6094,8.5517,8.5047,8.5008,8.4324,8.3947,8.387,8.3832,8.3862,8.3824,8.3708,8.3486,8.3139,8.2716,8.2477,8.2439,8.1977,8.1323,8.1246,8.117,8.1093,8.0854,8.0392,7.9829,7.9242,7.8423,7.8165,7.7854,7.7228,7.6938,7.6732,7.6303,7.57,7.5318,7.4851,7.4545,7.4278,7.3628,7.3093,9.1979,9.2672,9.1633,9.1787,9.2749,9.3249,9.3441,9.3441,9.4143,9.3826,9.3287,9.3133,9.321,9.3441,9.3441,9.3557,9.3941,9.4441,9.5066,9.5557,9.421,9.4634,9.4903,9.3364,9.2749,9.3056,9.2595,9.2518,9.3018,9.3172,9.3441,9.3441,9.345,9.345,9.3326,9.2672,9.2518,9.2556,9.1633,9.121,9.1325,9.0825,9.0287,8.9739,8.9663,8.9633,8.9816,9.0325,9.0633,9.0325,8.9325,8.8517,8.844,8.841,8.841,8.841,8.8402,8.8526,8.8603,8.8372,8.8179,8.8295,8.8132,8.8141,8.8141,8.8025,8.8055,8.8141,8.8132,8.794,8.7902,8.744,8.744,8.7671,8.7448,8.7132,8.6978,8.6363,8.5816,8.5747,8.5593,8.5517,8.5517,8.5363,8.517,8.4786,8.4478,8.4286,8.3947,8.3563,8.3401,8.3285,8.267,8.2016,8.1631,8.1439,8.1131,8.1093,8.0754,8.0507,7.9952,7.9443,7.9023,7.8556,7.8011,7.7806,7.7741,7.697,7.6253,7.6053,7.5768,7.531,7.4813,7.424,7.3934,9.2287,9.2941,9.2172,9.2095,9.2672,9.3787,9.4066,9.3903,9.4643,9.4527,9.3826,9.3672,9.3903,9.4296,9.4335,9.4489,9.4941,9.5365,9.5826,9.6019,9.5288,9.548,9.5749,9.4672,9.3758,9.3633,9.2864,9.2826,9.3172,9.3941,9.4335,9.4296,9.4296,9.4296,9.4181,9.3489,9.3287,9.3403,9.2903,9.2479,9.2364,9.2056,9.1402,9.0701,9.0509,9.0509,9.0594,9.0893,9.1124,9.0979,9.0364,8.9633,8.9325,8.9286,8.9286,8.9248,8.9248,8.9517,8.9671,8.918,8.8825,8.9248,8.8949,8.8718,8.8679,8.8679,8.8679,8.8679,8.8641,8.8679,8.8679,8.8372,8.8372,8.8487,8.8333,8.8025,8.7825,8.6901,8.6094,8.6094,8.6017,8.6017,8.6094,8.6094,8.6017,8.5401,8.5401,8.5209,8.5093,8.4709,8.4324,8.4016,8.337,8.2755,8.2208,8.1708,8.117,8.1093,8.1008,8.0885,8.0669,8.019,7.975,7.933,7.9025,7.8782,7.8594,7.7708,7.6806,7.6435,7.6083,7.5739,7.5356,7.4898,7.4783,9.3056,9.3633,9.2979,9.2749,9.3095,9.4373,9.4681,9.4326,9.4874,9.4941,9.421,9.4095,9.4672,9.5066,9.5181,9.5672,9.6057,9.6211,9.6249,9.6172,9.6134,9.6095,9.6019,9.5249,9.4489,9.3864,9.3364,9.3172,9.371,9.4403,9.5172,9.5181,9.5181,9.5181,9.5027,9.4373,9.4104,9.4249,9.3749,9.3249,9.2787,9.2518,9.1941,9.1248,9.1056,9.1047,9.1047,9.1163,9.1201,9.1201,9.1201,9.0778,9.0316,9.0086,9.0086,9.0086,9.0086,9.0355,9.0594,8.9979,8.9517,9.0047,8.9556,8.921,8.9218,8.9295,8.9325,8.918,8.918,8.9094,8.9064,8.894,8.8979,8.9103,8.9056,8.8863,8.8594,8.744,8.6786,8.6363,8.6247,8.6094,8.6094,8.6094,8.6094,8.6094,8.6094,8.6055,8.5863,8.567,8.5209,8.4863,8.4247,8.3486,8.2901,8.2554,8.1939,8.1516,8.14,8.1323,8.1246,8.0784,8.039,8.0427,8.0216,7.9851,7.914,7.8169,7.742,7.6853,7.6223,7.5667,7.5506,7.5527,7.548,9.3557,9.3672,9.3557,9.3912,9.4566,9.4912,9.5326,9.5826,9.5942,9.598,9.5826,9.5826,9.5826,9.6019,9.6057,9.6172,9.6249,9.6288,9.6288,9.6288,9.6288,9.6288,9.6134,9.5557,9.4989,9.4835,9.4566,9.4788,9.5249,9.598,9.5942,9.6019,9.598,9.598,9.5749,9.5326,9.5095,9.5288,9.4557,9.3826,9.348,9.2903,9.2287,9.1556,9.1518,9.1441,9.1317,9.124,9.1201,9.1201,9.1201,9.1124,9.1018,9.0979,9.0932,9.0855,9.0855,9.097,9.1018,9.0941,9.0787,9.0932,9.071,9.0671,9.0671,9.0671,9.0479,9.0402,9.0094,8.9979,9.071,9.0094,9.0133,9.0287,9.0094,8.971,8.9517,8.8825,8.794,8.744,8.6824,8.6286,8.6517,8.6517,8.6401,8.6324,8.6209,8.6132,8.6017,8.5978,8.5863,8.5517,8.5162,8.4362,8.3601,8.337,8.2947,8.2362,8.2093,8.1862,8.167,8.1246,8.1023,8.129,8.0973,8.0386,7.956,7.8713,7.8058,7.7556,7.6641,7.5689,7.5919,7.6178,7.5753,9.4373,9.4373,9.4373,9.4604,9.5027,9.548,9.5903,9.6249,9.6288,9.6288,9.6288,9.6288,9.6288,9.6288,9.6288,9.6288,9.6288,9.6288,9.6288,9.6288,9.6288,9.6288,9.6288,9.5788,9.5711,9.5672,9.5672,9.5557,9.5672,9.6095,9.6288,9.6288,9.6288,9.6288,9.6249,9.5903,9.5903,9.598,9.5441,9.4749,9.4335,9.3557,9.2864,9.2595,9.2479,9.2518,9.2402,9.2018,9.1902,9.1787,9.1441,9.1518,9.171,9.1825,9.1672,9.1355,9.124,9.124,9.1201,9.1201,9.1163,9.1163,9.1201,9.1201,9.1201,9.1124,9.1201,9.1086,9.097,9.0701,9.1095,9.074,9.0864,9.0979,9.0778,9.0586,9.0355,8.9787,8.921,8.8632,8.8132,8.7748,8.7517,8.7363,8.6901,8.6632,8.6363,8.6247,8.6209,8.6094,8.6094,8.5863,8.5508,8.5016,8.4324,8.4101,8.3832,8.3285,8.2901,8.267,8.2331,8.2016,8.2162,8.2484,8.1905,8.0943,8.0372,7.964,7.8963,7.8316,7.7623,7.7053,7.6892,7.676,7.6412,9.5258,9.5258,9.5258,9.5258,9.5374,9.598,9.6288,9.6288,9.6288,9.6288,9.6288,9.6288,9.6288,9.6288,9.6288,9.6288,9.6288,9.6288,9.6288,9.6288,9.6288,9.6288,9.6288,9.6288,9.6211,9.6134,9.6172,9.5942,9.5711,9.6019,9.6365,9.6519,9.648,9.6442,9.6519,9.6326,9.6365,9.6288,9.6249,9.5865,9.5027,9.4181,9.3672,9.3672,9.3672,9.3595,9.3441,9.3018,9.2749,9.2556,9.2287,9.2056,9.2595,9.2749,9.2402,9.1864,9.171,9.171,9.1748,9.1825,9.1979,9.2018,9.1633,9.1518,9.1402,9.1402,9.1201,9.1201,9.1163,9.1086,9.1163,9.1163,9.1171,9.1163,9.1163,9.1124,9.0941,9.0594,9.0278,8.9825,8.944,8.894,8.8479,8.8141,8.7709,8.7401,8.7132,8.6748,8.6632,8.617,8.6055,8.594,8.5701,8.5431,8.5016,8.4786,8.4478,8.4055,8.3785,8.3632,8.3293,8.2909,8.317,8.3239,8.2308,8.1391,8.0975,8.0567,7.9829,7.922,7.8749,7.8256,7.7788,7.7533,7.7292,9.6172,9.6134,9.6134,9.6134,9.6134,9.6249,9.6288,9.6288,9.6288,9.6288,9.6288,9.6288,9.6288,9.6288,9.6288,9.6288,9.6288,9.6288,9.6365,9.6442,9.6365,9.6326,9.6326,9.6288,9.6288,9.6288,9.6288,9.6249,9.6172,9.6288,9.6673,9.7019,9.6749,9.6634,9.7096,9.6749,9.6288,9.6288,9.6288,9.5903,9.5104,9.4287,9.3941,9.3864,9.3864,9.3941,9.398,9.3749,9.3557,9.3566,9.3441,9.3403,9.3557,9.3566,9.3566,9.3441,9.3403,9.3364,9.3249,9.3095,9.3095,9.2941,9.2672,9.2402,9.2095,9.1633,9.1317,9.1201,9.1201,9.1201,9.1201,9.1201,9.1201,9.1201,9.1201,9.1201,9.1124,9.1056,9.0778,9.074,9.0325,8.9671,8.9094,8.8786,8.8479,8.8209,8.7902,8.7478,8.7171,8.6863,8.6401,8.6363,8.6247,8.5978,8.5593,8.5363,8.517,8.4786,8.4709,8.4555,8.4209,8.3909,8.3678,8.3516,8.2708,8.2477,8.2484,8.1938,8.0869,8.0192,7.979,7.9121,7.8383,7.8228,7.8188,9.6288,9.6288,9.6288,9.6288,9.6288,9.6288,9.6288,9.6288,9.6288,9.6288,9.6288,9.6288,9.6288,9.6288,9.6288,9.6288,9.6288,9.6365,9.6596,9.6788,9.6634,9.6596,9.6788,9.6519,9.6288,9.6288,9.6365,9.6673,9.6663,9.6596,9.6711,9.7403,9.7173,9.7096,9.7557,9.7173,9.6711,9.6442,9.6249,9.6134,9.5749,9.5365,9.5172,9.5134,9.5134,9.5095,9.5018,9.4643,9.445,9.4335,9.4066,9.398,9.4287,9.4489,9.4604,9.5172,9.5172,9.4711,9.3864,9.3749,9.3787,9.371,9.3364,9.2979,9.2595,9.2172,9.1672,9.1201,9.1201,9.124,9.1278,9.1201,9.1201,9.1201,9.1393,9.1278,9.1278,9.1201,9.1086,9.1163,9.1124,9.0441,8.9863,8.9594,8.9402,8.9171,8.8748,8.8256,8.8102,8.8017,8.7478,8.694,8.6824,8.6671,8.6209,8.5863,8.5901,8.567,8.5632,8.5478,8.517,8.4901,8.4709,8.4593,8.4286,8.4132,8.4132,8.3123,8.1846,8.1338,8.0907,8.0353,7.983,7.9223,7.9068,9.6288,9.6288,9.6288,9.6288,9.6288,9.6288,9.6288,9.6288,9.6288,9.6288,9.6288,9.6288,9.6288,9.6365,9.6519,9.6673,9.6673,9.6826,9.725,9.7403,9.7326,9.7211,9.7211,9.6865,9.6519,9.6288,9.6288,9.6711,9.7057,9.7096,9.7211,9.8019,9.7634,9.7673,9.7711,9.7519,9.7057,9.6365,9.6288,9.6249,9.6211,9.6211,9.6172,9.6211,9.6288,9.6288,9.6172,9.5749,9.5326,9.522,9.4864,9.4864,9.5258,9.5365,9.5518,9.5942,9.6019,9.5634,9.4903,9.4557,9.4364,9.4287,9.3989,9.371,9.2979,9.2787,9.2672,9.2056,9.2018,9.1979,9.1825,9.1902,9.2056,9.1979,9.1825,9.1633,9.1479,9.1402,9.1278,9.1201,9.1201,9.1201,9.0701,9.0432,9.0239,9.0124,8.9671,8.9026,8.8872,8.8833,8.841,8.7748,8.7671,8.7555,8.7248,8.6863,8.6748,8.6594,8.6594,8.644,8.6209,8.5978,8.5786,8.5709,8.5547,8.5286,8.4978,8.3901,8.2939,8.2777,8.2538,8.2008,8.1431,8.0708,8.0269,9.6288,9.6288,9.6288,9.6288,9.6288,9.6288,9.6288,9.6288,9.6288,9.6288,9.6288,9.6288,9.6288,9.6442,9.698,9.7288,9.7403,9.825,9.8519,9.8596,9.8596,9.8134,9.7904,9.7557,9.7057,9.648,9.648,9.6903,9.7326,9.7442,9.8327,9.9529,9.8519,9.8327,9.8096,9.7673,9.7019,9.6403,9.6288,9.6288,9.6288,9.6288,9.6288,9.6326,9.6326,9.6326,9.6288,9.6211,9.6095,9.6057,9.5826,9.5749,9.5942,9.598,9.6134,9.6211,9.6288,9.6019,9.5749,9.5711,9.598,9.5826,9.5365,9.4527,9.3749,9.3633,9.3518,9.3287,9.3018,9.3172,9.3287,9.348,9.3133,9.2941,9.2595,9.2441,9.2133,9.1595,9.1479,9.1278,9.1201,9.1201,9.1201,9.0855,9.074,9.0624,9.0393,8.9787,8.941,8.9295,8.9026,8.8641,8.8603,8.8564,8.8487,8.8179,8.7786,8.7709,8.7748,8.7555,8.7325,8.7094,8.6901,8.6478,8.6247,8.6017,8.5747,8.4939,8.4401,8.4439,8.4093,8.3247,8.2516,8.1785,8.1708,9.6288,9.6288,9.6288,9.6288,9.6288,9.6288,9.6288,9.6288,9.6288,9.6288,9.6288,9.6288,9.6288,9.6519,9.7096,9.7519,9.7634,9.8404,9.9019,9.9259,9.9096,9.8942,9.8711,9.8404,9.7865,9.7211,9.7096,9.748,9.8211,9.7942,9.9058,9.9712,9.9481,9.9019,9.8596,9.7673,9.6826,9.6557,9.6365,9.6326,9.6288,9.6288,9.6288,9.6288,9.6903,9.6711,9.648,9.6826,9.6673,9.648,9.6403,9.6442,9.648,9.6442,9.6442,9.6442,9.648,9.6442,9.6403,9.6365,9.6288,9.6249,9.5903,9.5403,9.4604,9.4489,9.4181,9.3941,9.3787,9.3941,9.3749,9.3672,9.3557,9.3595,9.348,9.3335,9.2941,9.2402,9.2056,9.2018,9.1556,9.1201,9.1201,9.1163,9.1124,9.1086,9.0855,9.0586,9.0171,8.9902,8.971,8.9517,8.9479,8.921,8.9103,8.8949,8.8756,8.8833,8.8872,8.8564,8.8325,8.8218,8.7948,8.744,8.7017,8.6901,8.6594,8.6094,8.5593,8.5132,8.4709,8.4132,8.3478,8.287,8.2832,9.6134,9.598,9.6172,9.6288,9.6288,9.6288,9.6288,9.6288,9.6288,9.6288,9.6288,9.6288,9.6288,9.6557,9.7442,9.7904,9.8288,9.9096,9.9865,10.0096,10.0019,9.9837,9.976,9.9452,9.875,9.8096,9.798,9.8327,9.9135,9.8557,9.9558,10.0558,10.0712,9.9981,9.9067,9.7865,9.7019,9.7057,9.7057,9.7057,9.7096,9.7134,9.7134,9.7211,9.7673,9.7673,9.7442,9.7673,9.7634,9.7365,9.7173,9.7134,9.7096,9.7057,9.7057,9.7019,9.7019,9.7019,9.698,9.6519,9.6365,9.6288,9.6288,9.5903,9.5557,9.5365,9.5134,9.4749,9.4557,9.4441,9.4403,9.4672,9.4749,9.4826,9.4335,9.4104,9.3835,9.3403,9.3056,9.2826,9.2364,9.2018,9.1518,9.1518,9.1278,9.124,9.1086,9.0932,9.0855,9.0671,9.0633,9.047,9.0316,8.9979,8.9633,8.9748,8.9863,8.994,8.9902,8.9479,8.9248,8.9141,8.8833,8.8218,8.7902,8.7795,8.7594,8.7248,8.644,8.5508,8.5055,8.4593,8.4555,8.4016,8.3755,9.5826,9.5181,9.5942,9.6288,9.6288,9.6288,9.6288,9.6288,9.6288,9.6288,9.6288,9.6288,9.6365,9.6749,9.7942,9.8596,9.9096,10.0279,10.1048,10.0971,10.0866,10.0673,10.0366,9.9981,9.9606,9.899,9.8836,9.9183,9.9952,9.9683,10.0404,10.0971,10.1087,10.0673,10.0029,9.9183,9.8711,9.8673,9.8557,9.8481,9.8442,9.8365,9.8327,9.8365,9.8634,9.8634,9.8404,9.8596,9.8596,9.8327,9.8288,9.8288,9.8327,9.8365,9.8404,9.8442,9.8481,9.8557,9.8519,9.7134,9.6519,9.6326,9.6288,9.6172,9.6211,9.6172,9.6095,9.5595,9.5826,9.5942,9.6095,9.6095,9.5942,9.5711,9.5181,9.4951,9.4681,9.422,9.3873,9.3364,9.3403,9.3287,9.2479,9.1902,9.1556,9.1355,9.124,9.1201,9.124,9.1163,9.1086,9.097,9.0778,9.0663,9.0441,9.0787,9.0979,9.1056,9.0825,9.0325,9.0094,8.9979,8.9556,8.8987,8.8748,8.8632,8.8632,8.8564,8.7594,8.6594,8.5508,8.5055,8.5132,8.5132,8.4824,9.5788,9.5066,9.5942,9.6288,9.6288,9.6288,9.6288,9.6288,9.6288,9.6288,9.6288,9.6288,9.6634,9.7326,9.8134,9.9029,9.975,10.0587,10.1279,10.1279,10.1279,10.1173,10.0904,10.0712,10.0404,9.9875,9.9683,9.976,10.0067,10.0183,10.0596,10.1096,10.1241,10.0866,10.0067,9.9298,9.8788,9.875,9.875,9.875,9.8788,9.8865,9.8904,9.8942,9.9404,9.9442,9.9067,9.9404,9.9442,9.9096,9.9019,9.8981,9.8942,9.8942,9.8904,9.8865,9.8827,9.8481,9.8134,9.725,9.6865,9.6557,9.6288,9.6288,9.6288,9.6288,9.6288,9.6288,9.6288,9.6288,9.6249,9.6249,9.6134,9.6172,9.5865,9.5865,9.5634,9.4989,9.445,9.3864,9.3633,9.3249,9.2633,9.2172,9.1787,9.1518,9.1402,9.1402,9.1441,9.1317,9.1201,9.1163,9.1086,9.1124,9.1201,9.1201,9.1201,9.1124,9.1086,9.097,9.0778,9.0624,9.0509,9.0133,8.9787,8.9479,8.9402,8.9248,8.8632,8.7748,8.6709,8.5978,8.6017,8.5978,8.5747,9.5326,9.4681,9.548,9.6019,9.6249,9.6288,9.6288,9.6288,9.6288,9.6288,9.6288,9.6288,9.6519,9.7211,9.798,9.8836,9.9683,10.0481,10.1202,10.1202,10.1279,10.1241,10.1241,10.1279,10.0943,10.0596,10.0481,10.0558,10.0596,10.0519,10.0827,10.1173,10.1279,10.1058,10.0481,10.0058,9.9788,9.9865,9.9904,9.9865,9.9827,9.9788,9.975,9.9904,10.0135,10.0289,10.0019,10.0058,10.025,9.9788,9.9635,9.9635,9.9596,9.9635,9.9673,9.9673,9.9635,9.9288,9.875,9.8557,9.8134,9.7442,9.6749,9.6326,9.6288,9.6288,9.6288,9.6288,9.6288,9.6288,9.6288,9.6288,9.6288,9.6288,9.6288,9.6249,9.6134,9.548,9.5066,9.4441,9.4018,9.348,9.2826,9.2402,9.2018,9.1787,9.1556,9.1748,9.1902,9.1787,9.171,9.1672,9.1595,9.1595,9.1432,9.1201,9.1201,9.1201,9.1317,9.1432,9.1163,9.0932,9.1086,9.1201,9.0663,9.0278,9.0133,8.9863,8.9325,8.8748,8.7979,8.7401,8.7055,8.6863,8.6748,9.445,9.3903,9.4643,9.5518,9.6211,9.6288,9.6288,9.6288,9.6288,9.6326,9.6355,9.6365,9.6557,9.6711,9.7326,9.825,9.9173,9.9981,10.0673,10.1164,10.1279,10.1279,10.1279,10.1279,10.1164,10.1241,10.1164,10.1019,10.1241,10.1087,10.1164,10.1279,10.1279,10.1164,10.1048,10.0971,10.0866,10.0779,10.0779,10.0789,10.0741,10.0933,10.0817,10.0894,10.0971,10.101,10.0933,10.101,10.1087,10.101,10.1087,10.1164,10.1202,10.1241,10.1279,10.1241,10.1125,10.0558,9.9942,9.9683,9.9298,9.8327,9.7326,9.6673,9.6442,9.6519,9.6519,9.6365,9.6288,9.6288,9.6288,9.6288,9.6288,9.6288,9.6288,9.6288,9.6288,9.5942,9.5634,9.5211,9.4874,9.4296,9.3364,9.2826,9.2979,9.2864,9.2903,9.3326,9.3364,9.2787,9.2672,9.2518,9.2402,9.2133,9.1941,9.1864,9.1902,9.2133,9.1902,9.1941,9.1595,9.1432,9.1556,9.1595,9.1317,9.1009,9.0701,9.0432,9.0086,8.9517,8.9171,8.8517,8.8055,8.8064,8.8034,9.3903,9.3787,9.4643,9.5518,9.6249,9.6288,9.6288,9.6288,9.6288,9.6596,9.7134,9.6557,9.6903,9.8057,9.8327,9.8904,9.9673,10.0519,10.0981,10.1241,10.1279,10.1279,10.1279,10.1279,10.1279,10.1279,10.1279,10.1279,10.1279,10.1279,10.1279,10.1279,10.1279,10.1279,10.1279,10.1279,10.1279,10.1279,10.1279,10.1279,10.1279,10.1279,10.1279,10.1279,10.1279,10.1279,10.1279,10.1279,10.1279,10.1279,10.1279,10.1279,10.1279,10.1279,10.1279,10.1279,10.1202,10.0904,10.0298,10.0106,9.9837,9.9221,9.8365,9.7788,9.7403,9.7096,9.6942,9.6634,9.648,9.6519,9.6519,9.6519,9.6519,9.6519,9.6442,9.6288,9.6288,9.6211,9.5826,9.5258,9.4989,9.4604,9.371,9.4134,9.4287,9.4172,9.4249,9.4557,9.4672,9.4057,9.3595,9.3441,9.3287,9.3056,9.3056,9.3018,9.3018,9.3056,9.2787,9.2633,9.2672,9.2518,9.2249,9.2056,9.1941,9.1556,9.1124,9.097,9.1095,9.0902,9.0556,8.9787,8.918,8.9218,8.9111,9.3604,9.4181,9.4373,9.5172,9.6249,9.6634,9.6634,9.6403,9.6625,9.7096,9.7403,9.7019,9.7326,9.8019,9.8211,9.8673,9.9529,10.025,10.0866,10.1279,10.1279,10.1279,10.1279,10.1279,10.1279,10.1279,10.1279,10.1279,10.1279,10.1279,10.1279,10.1279,10.1279,10.1279,10.1279,10.1279,10.1279,10.1279,10.1279,10.1279,10.1279,10.1279,10.1279,10.1279,10.1279,10.1279,10.1279,10.1279,10.1279,10.1279,10.1279,10.1279,10.1279,10.1279,10.1279,10.1279,10.1279,10.1087,10.0712,10.0635,10.025,9.9942,9.9712,9.9327,9.8519,9.7942,9.7442,9.698,9.6865,9.6826,9.6788,9.6788,9.6788,9.6826,9.6557,9.6326,9.6288,9.6288,9.5788,9.5143,9.4758,9.4489,9.4557,9.5172,9.5172,9.4403,9.4172,9.4557,9.4941,9.5018,9.4595,9.4287,9.4172,9.4057,9.4057,9.3941,9.3787,9.3633,9.3403,9.3364,9.3595,9.3441,9.3056,9.2826,9.2633,9.2326,9.2095,9.2249,9.2326,9.2095,9.1979,9.1672,9.1018,9.0479,9.0304,9.3412,9.4951,9.4287,9.5057,9.6288,9.7019,9.6903,9.6442,9.7096,9.7519,9.748,9.7365,9.7326,9.7711,9.7904,9.8288,9.9211,10.0058,10.0866,10.1279,10.1279,10.1279,10.1279,10.1279,10.1279,10.1279,10.1279,10.1279,10.1279,10.1279,10.1279,10.1279,10.1279,10.1279,10.1279,10.1279,10.1279,10.1279,10.1279,10.1279,10.1279,10.1279,10.1279,10.1279,10.1279,10.1279,10.1279,10.1279,10.1279,10.1279,10.1279,10.1279,10.1279,10.1279,10.1279,10.1279,10.1279,10.1241,10.1125,10.1087,10.1125,10.1087,10.1241,10.0673,9.975,9.8865,9.825,9.775,9.7634,9.7365,9.7288,9.7173,9.7096,9.6865,9.6519,9.6326,9.6288,9.6249,9.6019,9.548,9.5211,9.4941,9.4941,9.5441,9.5595,9.4557,9.448,9.4903,9.5134,9.5595,9.5441,9.5095,9.5057,9.4903,9.4711,9.4557,9.4326,9.4134,9.4095,9.421,9.4595,9.4287,9.3796,9.3441,9.3133,9.3364,9.3326,9.3249,9.3172,9.3172,9.3172,9.348,9.2979,9.2095,9.1719,9.2903,9.5104,9.6134,9.6519,9.6326,9.6519,9.6519,9.6365,9.7134,9.748,9.7403,9.698,9.698,9.7519,9.8134,9.8596,9.8981,10.0173,10.0981,10.1241,10.1279,10.1279,10.1279,10.1279,10.1279,10.1279,10.1279,10.1279,10.1279,10.1279,10.1279,10.1279,10.1279,10.1279,10.1279,10.1279,10.1279,10.1279,10.1279,10.1279,10.1279,10.1279,10.1279,10.1279,10.1279,10.1279,10.1279,10.1279,10.1279,10.1279,10.1279,10.1279,10.1279,10.1279,10.1279,10.1279,10.1279,10.1279,10.1279,10.1279,10.1279,10.1279,10.1279,10.1202,10.075,9.9942,9.9288,9.8788,9.8365,9.8057,9.7827,9.7634,9.7403,9.698,9.6442,9.6365,9.6288,9.6249,9.6172,9.598,9.5711,9.5595,9.5518,9.5557,9.5672,9.5711,9.5749,9.5903,9.5826,9.6057,9.6019,9.5788,9.5903,9.5788,9.548,9.5288,9.5095,9.5249,9.5326,9.548,9.5557,9.5095,9.4604,9.3941,9.3633,9.4018,9.4134,9.3749,9.371,9.4018,9.4095,9.4287,9.4134,9.3364,9.321,9.3595,9.5749,9.7788,9.7942,9.6942,9.6826,9.6826,9.6865,9.6942,9.698,9.7019,9.6903,9.7096,9.7596,9.8404,9.8788,9.9096,10.0558,10.1087,10.1279,10.1279,10.1279,10.1279,10.1279,10.1279,10.1279,10.1279,10.1279,10.1279,10.1279,10.1279,10.1279,10.1279,10.1279,10.1279,10.1279,10.1279,10.1279,10.1279,10.1279,10.1279,10.1279,10.1279,10.1279,10.1279,10.1279,10.1279,10.1279,10.1279,10.1279,10.1279,10.1279,10.1279,10.1279,10.1279,10.1279,10.1279,10.1279,10.1279,10.1279,10.1279,10.1279,10.1279,10.1202,10.1212,10.0481,10.0135,9.9673,9.9413,9.9106,9.8865,9.8673,9.8288,9.7865,9.6903,9.6326,9.6288,9.6249,9.6249,9.6172,9.6019,9.6019,9.5942,9.5942,9.6057,9.6057,9.6249,9.624,9.6288,9.6288,9.6288,9.6288,9.6288,9.6288,9.6019,9.5942,9.598,9.6172,9.6288,9.6134,9.5903,9.5749,9.5365,9.4903,9.4711,9.5018,9.498,9.4634,9.4788,9.5211,9.5134,9.5018,9.4826,9.4749,9.4788,9.4672,9.6557,9.875,9.8904,9.7596,9.7365,9.7288,9.7173,9.6634,9.6326,9.6442,9.7019,9.7326,9.7634,9.8365,9.8634,9.9327,10.0635,10.1164,10.1279,10.1279,10.1279,10.1279,10.1279,10.1279,10.1279,10.1279,10.1279,10.1279,10.1279,10.1279,10.1279,10.1279,10.1279,10.1279,10.1279,10.1279,10.1279,10.1279,10.1279,10.1279,10.1279,10.1279,10.1279,10.1279,10.1279,10.1279,10.1279,10.1279,10.1279,10.1279,10.1279,10.1279,10.1279,10.1279,10.1279,10.1279,10.1279,10.1279,10.1279,10.1279,10.1279,10.1279,10.1279,10.1279,10.1135,10.075,10.0558,10.0298,10.0029,9.9788,9.9288,9.8904,9.8288,9.7173,9.6288,9.6288,9.6288,9.6288,9.6288,9.6288,9.6288,9.6288,9.6288,9.6288,9.6288,9.6326,9.6288,9.6288,9.6288,9.6288,9.6288,9.6288,9.6288,9.6288,9.6365,9.6365,9.6288,9.6288,9.6288,9.6249,9.6057,9.598,9.6057,9.6019,9.5942,9.5942,9.5749,9.6019,9.6172,9.6211,9.6057,9.6134,9.6134,9.6403,9.4711,9.6403,9.7557,9.7788,9.7403,9.6826,9.6519,9.6519,9.6403,9.6288,9.6326,9.6403,9.6557,9.6625,9.8173,9.8788,9.9096,10.0519,10.1164,10.1279,10.1279,10.1279,10.1279,10.1279,10.1279,10.1279,10.1279,10.1279,10.1279,10.1279,10.1279,10.1279,10.1279,10.1279,10.1279,10.1279,10.1279,10.1279,10.1279,10.1279,10.1279,10.1279,10.1279,10.1279,10.1279,10.1279,10.1279,10.1279,10.1279,10.1279,10.1279,10.1279,10.1279,10.1279,10.1279,10.1279,10.1279,10.1279,10.1279,10.1279,10.1279,10.1279,10.1279,10.1279,10.1279,10.1279,10.1048,10.1048,10.0827,10.0558,10.0173,9.9288,9.8711,9.7865,9.6865,9.648,9.6288,9.6288,9.6288,9.6288,9.6288,9.6288,9.6288,9.6326,9.6355,9.6403,9.648,9.6519,9.6711,9.6557,9.6403,9.6403,9.6442,9.6288,9.6326,9.648,9.648,9.6365,9.6326,9.6403,9.6403,9.6288,9.6326,9.6519,9.6519,9.6403,9.648,9.6826,9.6634,9.6749,9.7096,9.7173,9.725,9.7326,9.7442]}]]